<?xml version="1.0" encoding="UTF-8" standalone="no" ?>
<gpx xmlns="http://www.topografix.com/GPX/1/1" xmlns:xsi="http://www.w3.org/2001/XMLSchema-instance" xsi:schemaLocation="http://www.topografix.com/GPX/1/1 http://www.topografix.com/GPX/1/1/gpx.xsd" version="1.1" creator="VisuGPX - https://www.visugpx.com">
  <metadata>
    <name>AMPUS NOTRE DAME DE SPELUQUE 26 09 2016</name>
    <desc><![CDATA[Randonnée au départ d'Ampus, charmant petit village. Passage par le chemin de croix puis les calades (ça monte), le Turquet, la ferme du Mourjaï, les charbonnières et la chapelle notre dame de Spéluque, le vieux moulin, la source de la Nartuby et le chemin de l'eau.]]></desc>
  </metadata>
  <trk>
    <name><![CDATA[Tracé actuel: 26 SEP 2016 09:08]]></name>
    <trkseg>
      <trkpt lat="43.60531" lon="6.38277">
        <ele>540.4</ele>
        <time>2016-09-26T07:08:41Z</time>
      </trkpt>
      <trkpt lat="43.60531" lon="6.38278">
        <ele>540.4</ele>
        <time>2016-09-26T07:08:42Z</time>
      </trkpt>
      <trkpt lat="43.60549" lon="6.38285">
        <ele>540.4</ele>
        <time>2016-09-26T07:09:05Z</time>
      </trkpt>
      <trkpt lat="43.60549" lon="6.38283">
        <ele>540.4</ele>
        <time>2016-09-26T07:09:27Z</time>
      </trkpt>
      <trkpt lat="43.6055" lon="6.38284">
        <ele>540.4</ele>
        <time>2016-09-26T07:09:52Z</time>
      </trkpt>
      <trkpt lat="43.60552" lon="6.38288">
        <ele>540.4</ele>
        <time>2016-09-26T07:10:13Z</time>
      </trkpt>
      <trkpt lat="43.60568" lon="6.38268">
        <ele>540.4</ele>
        <time>2016-09-26T07:10:42Z</time>
      </trkpt>
      <trkpt lat="43.60578" lon="6.38251">
        <ele>539.92</ele>
        <time>2016-09-26T07:11:08Z</time>
      </trkpt>
      <trkpt lat="43.60582" lon="6.38249">
        <ele>540.4</ele>
        <time>2016-09-26T07:11:32Z</time>
      </trkpt>
      <trkpt lat="43.60583" lon="6.3825">
        <ele>540.4</ele>
        <time>2016-09-26T07:11:56Z</time>
      </trkpt>
      <trkpt lat="43.60582" lon="6.38251">
        <ele>540.4</ele>
        <time>2016-09-26T07:12:11Z</time>
      </trkpt>
      <trkpt lat="43.6058" lon="6.38249">
        <ele>544.72</ele>
        <time>2016-09-26T07:12:37Z</time>
      </trkpt>
      <trkpt lat="43.6058" lon="6.38249">
        <ele>549.05</ele>
        <time>2016-09-26T07:12:39Z</time>
      </trkpt>
      <trkpt lat="43.6058" lon="6.38249">
        <ele>552.9</ele>
        <time>2016-09-26T07:12:41Z</time>
      </trkpt>
      <trkpt lat="43.6058" lon="6.38249">
        <ele>556.74</ele>
        <time>2016-09-26T07:12:43Z</time>
      </trkpt>
      <trkpt lat="43.60581" lon="6.38249">
        <ele>560.11</ele>
        <time>2016-09-26T07:12:45Z</time>
      </trkpt>
      <trkpt lat="43.60581" lon="6.38249">
        <ele>563.47</ele>
        <time>2016-09-26T07:12:47Z</time>
      </trkpt>
      <trkpt lat="43.60581" lon="6.38249">
        <ele>566.35</ele>
        <time>2016-09-26T07:12:49Z</time>
      </trkpt>
      <trkpt lat="43.60581" lon="6.38248">
        <ele>570.68</ele>
        <time>2016-09-26T07:12:52Z</time>
      </trkpt>
      <trkpt lat="43.60581" lon="6.38248">
        <ele>575.01</ele>
        <time>2016-09-26T07:12:55Z</time>
      </trkpt>
      <trkpt lat="43.60581" lon="6.38248">
        <ele>577.89</ele>
        <time>2016-09-26T07:12:58Z</time>
      </trkpt>
      <trkpt lat="43.60581" lon="6.38248">
        <ele>581.25</ele>
        <time>2016-09-26T07:13:00Z</time>
      </trkpt>
      <trkpt lat="43.60581" lon="6.38248">
        <ele>585.1</ele>
        <time>2016-09-26T07:13:04Z</time>
      </trkpt>
      <trkpt lat="43.60581" lon="6.38248">
        <ele>588.46</ele>
        <time>2016-09-26T07:13:08Z</time>
      </trkpt>
      <trkpt lat="43.60581" lon="6.38248">
        <ele>591.83</ele>
        <time>2016-09-26T07:13:12Z</time>
      </trkpt>
      <trkpt lat="43.60581" lon="6.38248">
        <ele>595.19</ele>
        <time>2016-09-26T07:13:17Z</time>
      </trkpt>
      <trkpt lat="43.60581" lon="6.38248">
        <ele>598.56</ele>
        <time>2016-09-26T07:13:23Z</time>
      </trkpt>
      <trkpt lat="43.60581" lon="6.38248">
        <ele>601.92</ele>
        <time>2016-09-26T07:13:31Z</time>
      </trkpt>
      <trkpt lat="43.60581" lon="6.38248">
        <ele>604.81</ele>
        <time>2016-09-26T07:13:40Z</time>
      </trkpt>
      <trkpt lat="43.60581" lon="6.38248">
        <ele>608.17</ele>
        <time>2016-09-26T07:13:58Z</time>
      </trkpt>
      <trkpt lat="43.60581" lon="6.38248">
        <ele>608.65</ele>
        <time>2016-09-26T07:14:26Z</time>
      </trkpt>
      <trkpt lat="43.60583" lon="6.38248">
        <ele>608.65</ele>
        <time>2016-09-26T07:14:49Z</time>
      </trkpt>
      <trkpt lat="43.60586" lon="6.38248">
        <ele>608.65</ele>
        <time>2016-09-26T07:15:12Z</time>
      </trkpt>
      <trkpt lat="43.60586" lon="6.38247">
        <ele>608.65</ele>
        <time>2016-09-26T07:15:43Z</time>
      </trkpt>
      <trkpt lat="43.60586" lon="6.38245">
        <ele>608.65</ele>
        <time>2016-09-26T07:16:11Z</time>
      </trkpt>
      <trkpt lat="43.60589" lon="6.38245">
        <ele>608.65</ele>
        <time>2016-09-26T07:16:50Z</time>
      </trkpt>
      <trkpt lat="43.60591" lon="6.38244">
        <ele>609.13</ele>
        <time>2016-09-26T07:17:25Z</time>
      </trkpt>
      <trkpt lat="43.60591" lon="6.38244">
        <ele>609.13</ele>
        <time>2016-09-26T07:17:52Z</time>
      </trkpt>
      <trkpt lat="43.60586" lon="6.38246">
        <ele>608.65</ele>
        <time>2016-09-26T07:18:15Z</time>
      </trkpt>
      <trkpt lat="43.60586" lon="6.38244">
        <ele>608.65</ele>
        <time>2016-09-26T07:18:45Z</time>
      </trkpt>
      <trkpt lat="43.60586" lon="6.38243">
        <ele>608.65</ele>
        <time>2016-09-26T07:19:15Z</time>
      </trkpt>
      <trkpt lat="43.60586" lon="6.38243">
        <ele>608.65</ele>
        <time>2016-09-26T07:19:41Z</time>
      </trkpt>
      <trkpt lat="43.60583" lon="6.38256">
        <ele>609.13</ele>
        <time>2016-09-26T07:19:59Z</time>
      </trkpt>
      <trkpt lat="43.60585" lon="6.38264">
        <ele>608.65</ele>
        <time>2016-09-26T07:20:13Z</time>
      </trkpt>
      <trkpt lat="43.60586" lon="6.38275">
        <ele>609.61</ele>
        <time>2016-09-26T07:20:27Z</time>
      </trkpt>
      <trkpt lat="43.6058" lon="6.38285">
        <ele>610.57</ele>
        <time>2016-09-26T07:20:41Z</time>
      </trkpt>
      <trkpt lat="43.60579" lon="6.38294">
        <ele>611.06</ele>
        <time>2016-09-26T07:20:48Z</time>
      </trkpt>
      <trkpt lat="43.60583" lon="6.38314">
        <ele>612.02</ele>
        <time>2016-09-26T07:21:01Z</time>
      </trkpt>
      <trkpt lat="43.60582" lon="6.38332">
        <ele>613.94</ele>
        <time>2016-09-26T07:21:17Z</time>
      </trkpt>
      <trkpt lat="43.60578" lon="6.38354">
        <ele>614.9</ele>
        <time>2016-09-26T07:21:32Z</time>
      </trkpt>
      <trkpt lat="43.60579" lon="6.38373">
        <ele>615.38</ele>
        <time>2016-09-26T07:21:44Z</time>
      </trkpt>
      <trkpt lat="43.60579" lon="6.38375">
        <ele>615.38</ele>
        <time>2016-09-26T07:21:46Z</time>
      </trkpt>
      <trkpt lat="43.60581" lon="6.38396">
        <ele>615.38</ele>
        <time>2016-09-26T07:22:00Z</time>
      </trkpt>
      <trkpt lat="43.60582" lon="6.38399">
        <ele>615.38</ele>
        <time>2016-09-26T07:22:02Z</time>
      </trkpt>
      <trkpt lat="43.60583" lon="6.38403">
        <ele>615.38</ele>
        <time>2016-09-26T07:22:04Z</time>
      </trkpt>
      <trkpt lat="43.60588" lon="6.38405">
        <ele>615.86</ele>
        <time>2016-09-26T07:22:10Z</time>
      </trkpt>
      <trkpt lat="43.60599" lon="6.384">
        <ele>619.23</ele>
        <time>2016-09-26T07:22:26Z</time>
      </trkpt>
      <trkpt lat="43.606" lon="6.38392">
        <ele>621.63</ele>
        <time>2016-09-26T07:22:40Z</time>
      </trkpt>
      <trkpt lat="43.60606" lon="6.38395">
        <ele>623.55</ele>
        <time>2016-09-26T07:22:55Z</time>
      </trkpt>
      <trkpt lat="43.60612" lon="6.38398">
        <ele>624.99</ele>
        <time>2016-09-26T07:23:05Z</time>
      </trkpt>
      <trkpt lat="43.60626" lon="6.38386">
        <ele>627.4</ele>
        <time>2016-09-26T07:23:19Z</time>
      </trkpt>
      <trkpt lat="43.60632" lon="6.38374">
        <ele>627.88</ele>
        <time>2016-09-26T07:23:35Z</time>
      </trkpt>
      <trkpt lat="43.60633" lon="6.38374">
        <ele>629.32</ele>
        <time>2016-09-26T07:23:37Z</time>
      </trkpt>
      <trkpt lat="43.60647" lon="6.38364">
        <ele>629.32</ele>
        <time>2016-09-26T07:23:51Z</time>
      </trkpt>
      <trkpt lat="43.60663" lon="6.38358">
        <ele>629.32</ele>
        <time>2016-09-26T07:24:08Z</time>
      </trkpt>
      <trkpt lat="43.60666" lon="6.38362">
        <ele>629.32</ele>
        <time>2016-09-26T07:24:22Z</time>
      </trkpt>
      <trkpt lat="43.60667" lon="6.38361">
        <ele>629.32</ele>
        <time>2016-09-26T07:24:41Z</time>
      </trkpt>
      <trkpt lat="43.60667" lon="6.38361">
        <ele>628.84</ele>
        <time>2016-09-26T07:24:51Z</time>
      </trkpt>
      <trkpt lat="43.60666" lon="6.38361">
        <ele>628.36</ele>
        <time>2016-09-26T07:25:00Z</time>
      </trkpt>
      <trkpt lat="43.60667" lon="6.38362">
        <ele>628.84</ele>
        <time>2016-09-26T07:25:20Z</time>
      </trkpt>
      <trkpt lat="43.60668" lon="6.38365">
        <ele>629.8</ele>
        <time>2016-09-26T07:25:35Z</time>
      </trkpt>
      <trkpt lat="43.60667" lon="6.38372">
        <ele>629.32</ele>
        <time>2016-09-26T07:25:52Z</time>
      </trkpt>
      <trkpt lat="43.60665" lon="6.38372">
        <ele>629.8</ele>
        <time>2016-09-26T07:26:01Z</time>
      </trkpt>
      <trkpt lat="43.60649" lon="6.38376">
        <ele>631.72</ele>
        <time>2016-09-26T07:26:17Z</time>
      </trkpt>
      <trkpt lat="43.60639" lon="6.38385">
        <ele>632.2</ele>
        <time>2016-09-26T07:26:33Z</time>
      </trkpt>
      <trkpt lat="43.60643" lon="6.3839">
        <ele>633.17</ele>
        <time>2016-09-26T07:26:48Z</time>
      </trkpt>
      <trkpt lat="43.60649" lon="6.38391">
        <ele>634.13</ele>
        <time>2016-09-26T07:27:04Z</time>
      </trkpt>
      <trkpt lat="43.60654" lon="6.3839">
        <ele>634.61</ele>
        <time>2016-09-26T07:27:24Z</time>
      </trkpt>
      <trkpt lat="43.60666" lon="6.38391">
        <ele>635.09</ele>
        <time>2016-09-26T07:27:39Z</time>
      </trkpt>
      <trkpt lat="43.6067" lon="6.38391">
        <ele>635.57</ele>
        <time>2016-09-26T07:27:54Z</time>
      </trkpt>
      <trkpt lat="43.60672" lon="6.38392">
        <ele>636.53</ele>
        <time>2016-09-26T07:28:12Z</time>
      </trkpt>
      <trkpt lat="43.60672" lon="6.38393">
        <ele>636.53</ele>
        <time>2016-09-26T07:28:29Z</time>
      </trkpt>
      <trkpt lat="43.6067" lon="6.38393">
        <ele>637.97</ele>
        <time>2016-09-26T07:28:42Z</time>
      </trkpt>
      <trkpt lat="43.60669" lon="6.38394">
        <ele>637.49</ele>
        <time>2016-09-26T07:28:57Z</time>
      </trkpt>
      <trkpt lat="43.60667" lon="6.38394">
        <ele>636.53</ele>
        <time>2016-09-26T07:29:11Z</time>
      </trkpt>
      <trkpt lat="43.60667" lon="6.38395">
        <ele>636.05</ele>
        <time>2016-09-26T07:29:33Z</time>
      </trkpt>
      <trkpt lat="43.60662" lon="6.38396">
        <ele>635.57</ele>
        <time>2016-09-26T07:29:48Z</time>
      </trkpt>
      <trkpt lat="43.60656" lon="6.38393">
        <ele>635.09</ele>
        <time>2016-09-26T07:29:57Z</time>
      </trkpt>
      <trkpt lat="43.60651" lon="6.38391">
        <ele>633.17</ele>
        <time>2016-09-26T07:30:09Z</time>
      </trkpt>
      <trkpt lat="43.60648" lon="6.38392">
        <ele>631.72</ele>
        <time>2016-09-26T07:30:15Z</time>
      </trkpt>
      <trkpt lat="43.60643" lon="6.38395">
        <ele>629.32</ele>
        <time>2016-09-26T07:30:29Z</time>
      </trkpt>
      <trkpt lat="43.60641" lon="6.38404">
        <ele>628.36</ele>
        <time>2016-09-26T07:30:44Z</time>
      </trkpt>
      <trkpt lat="43.60638" lon="6.38417">
        <ele>628.36</ele>
        <time>2016-09-26T07:30:57Z</time>
      </trkpt>
      <trkpt lat="43.6064" lon="6.38415">
        <ele>627.88</ele>
        <time>2016-09-26T07:31:14Z</time>
      </trkpt>
      <trkpt lat="43.6064" lon="6.38415">
        <ele>627.88</ele>
        <time>2016-09-26T07:31:38Z</time>
      </trkpt>
      <trkpt lat="43.60641" lon="6.38415">
        <ele>627.4</ele>
        <time>2016-09-26T07:32:01Z</time>
      </trkpt>
      <trkpt lat="43.6064" lon="6.38416">
        <ele>626.92</ele>
        <time>2016-09-26T07:32:31Z</time>
      </trkpt>
      <trkpt lat="43.60641" lon="6.38416">
        <ele>626.44</ele>
        <time>2016-09-26T07:33:07Z</time>
      </trkpt>
      <trkpt lat="43.60641" lon="6.38416">
        <ele>626.44</ele>
        <time>2016-09-26T07:33:36Z</time>
      </trkpt>
      <trkpt lat="43.60641" lon="6.38415">
        <ele>625.96</ele>
        <time>2016-09-26T07:33:59Z</time>
      </trkpt>
      <trkpt lat="43.6064" lon="6.38411">
        <ele>626.92</ele>
        <time>2016-09-26T07:34:28Z</time>
      </trkpt>
      <trkpt lat="43.60639" lon="6.38394">
        <ele>624.99</ele>
        <time>2016-09-26T07:34:46Z</time>
      </trkpt>
      <trkpt lat="43.60648" lon="6.38385">
        <ele>623.55</ele>
        <time>2016-09-26T07:35:02Z</time>
      </trkpt>
      <trkpt lat="43.60663" lon="6.38382">
        <ele>622.11</ele>
        <time>2016-09-26T07:35:19Z</time>
      </trkpt>
      <trkpt lat="43.60667" lon="6.3837">
        <ele>620.19</ele>
        <time>2016-09-26T07:35:32Z</time>
      </trkpt>
      <trkpt lat="43.60668" lon="6.38368">
        <ele>619.71</ele>
        <time>2016-09-26T07:35:36Z</time>
      </trkpt>
      <trkpt lat="43.60672" lon="6.38353">
        <ele>618.75</ele>
        <time>2016-09-26T07:35:46Z</time>
      </trkpt>
      <trkpt lat="43.60687" lon="6.38349">
        <ele>616.82</ele>
        <time>2016-09-26T07:36:01Z</time>
      </trkpt>
      <trkpt lat="43.60688" lon="6.38341">
        <ele>614.42</ele>
        <time>2016-09-26T07:36:15Z</time>
      </trkpt>
      <trkpt lat="43.60683" lon="6.38338">
        <ele>612.98</ele>
        <time>2016-09-26T07:36:31Z</time>
      </trkpt>
      <trkpt lat="43.60676" lon="6.38337">
        <ele>612.5</ele>
        <time>2016-09-26T07:36:36Z</time>
      </trkpt>
      <trkpt lat="43.60668" lon="6.38339">
        <ele>612.5</ele>
        <time>2016-09-26T07:36:39Z</time>
      </trkpt>
      <trkpt lat="43.60661" lon="6.38341">
        <ele>611.54</ele>
        <time>2016-09-26T07:36:45Z</time>
      </trkpt>
      <trkpt lat="43.60651" lon="6.3834">
        <ele>610.09</ele>
        <time>2016-09-26T07:36:52Z</time>
      </trkpt>
      <trkpt lat="43.60643" lon="6.38334">
        <ele>608.17</ele>
        <time>2016-09-26T07:37:10Z</time>
      </trkpt>
      <trkpt lat="43.60653" lon="6.38325">
        <ele>607.21</ele>
        <time>2016-09-26T07:37:29Z</time>
      </trkpt>
      <trkpt lat="43.60664" lon="6.38308">
        <ele>606.25</ele>
        <time>2016-09-26T07:37:49Z</time>
      </trkpt>
      <trkpt lat="43.6069" lon="6.38309">
        <ele>605.77</ele>
        <time>2016-09-26T07:38:08Z</time>
      </trkpt>
      <trkpt lat="43.60705" lon="6.38318">
        <ele>605.77</ele>
        <time>2016-09-26T07:38:22Z</time>
      </trkpt>
      <trkpt lat="43.60706" lon="6.38319">
        <ele>605.77</ele>
        <time>2016-09-26T07:38:23Z</time>
      </trkpt>
      <trkpt lat="43.60708" lon="6.38322">
        <ele>605.29</ele>
        <time>2016-09-26T07:38:26Z</time>
      </trkpt>
      <trkpt lat="43.60714" lon="6.38329">
        <ele>604.81</ele>
        <time>2016-09-26T07:38:33Z</time>
      </trkpt>
      <trkpt lat="43.60717" lon="6.38332">
        <ele>604.81</ele>
        <time>2016-09-26T07:38:36Z</time>
      </trkpt>
      <trkpt lat="43.60719" lon="6.38335">
        <ele>604.33</ele>
        <time>2016-09-26T07:38:39Z</time>
      </trkpt>
      <trkpt lat="43.60725" lon="6.38344">
        <ele>603.36</ele>
        <time>2016-09-26T07:38:53Z</time>
      </trkpt>
      <trkpt lat="43.60727" lon="6.38346">
        <ele>601.92</ele>
        <time>2016-09-26T07:39:00Z</time>
      </trkpt>
      <trkpt lat="43.60736" lon="6.38353">
        <ele>600.48</ele>
        <time>2016-09-26T07:39:15Z</time>
      </trkpt>
      <trkpt lat="43.60744" lon="6.38362">
        <ele>599.52</ele>
        <time>2016-09-26T07:39:29Z</time>
      </trkpt>
      <trkpt lat="43.6075" lon="6.38364">
        <ele>598.08</ele>
        <time>2016-09-26T07:39:36Z</time>
      </trkpt>
      <trkpt lat="43.6077" lon="6.38363">
        <ele>595.19</ele>
        <time>2016-09-26T07:39:53Z</time>
      </trkpt>
      <trkpt lat="43.60785" lon="6.3836">
        <ele>593.27</ele>
        <time>2016-09-26T07:40:09Z</time>
      </trkpt>
      <trkpt lat="43.608" lon="6.38356">
        <ele>591.35</ele>
        <time>2016-09-26T07:40:24Z</time>
      </trkpt>
      <trkpt lat="43.60805" lon="6.38356">
        <ele>591.35</ele>
        <time>2016-09-26T07:40:28Z</time>
      </trkpt>
      <trkpt lat="43.60823" lon="6.38353">
        <ele>588.46</ele>
        <time>2016-09-26T07:40:45Z</time>
      </trkpt>
      <trkpt lat="43.60839" lon="6.3835">
        <ele>586.54</ele>
        <time>2016-09-26T07:41:00Z</time>
      </trkpt>
      <trkpt lat="43.60841" lon="6.3835">
        <ele>586.54</ele>
        <time>2016-09-26T07:41:01Z</time>
      </trkpt>
      <trkpt lat="43.6086" lon="6.38353">
        <ele>584.14</ele>
        <time>2016-09-26T07:41:16Z</time>
      </trkpt>
      <trkpt lat="43.60878" lon="6.38354">
        <ele>582.22</ele>
        <time>2016-09-26T07:41:32Z</time>
      </trkpt>
      <trkpt lat="43.60894" lon="6.38358">
        <ele>580.29</ele>
        <time>2016-09-26T07:41:45Z</time>
      </trkpt>
      <trkpt lat="43.60902" lon="6.38361">
        <ele>579.81</ele>
        <time>2016-09-26T07:41:51Z</time>
      </trkpt>
      <trkpt lat="43.60905" lon="6.38364">
        <ele>579.33</ele>
        <time>2016-09-26T07:41:54Z</time>
      </trkpt>
      <trkpt lat="43.60922" lon="6.38364">
        <ele>577.89</ele>
        <time>2016-09-26T07:42:08Z</time>
      </trkpt>
      <trkpt lat="43.60941" lon="6.3836">
        <ele>575.97</ele>
        <time>2016-09-26T07:42:24Z</time>
      </trkpt>
      <trkpt lat="43.60959" lon="6.38359">
        <ele>574.53</ele>
        <time>2016-09-26T07:42:39Z</time>
      </trkpt>
      <trkpt lat="43.60962" lon="6.38361">
        <ele>574.04</ele>
        <time>2016-09-26T07:42:41Z</time>
      </trkpt>
      <trkpt lat="43.60978" lon="6.38364">
        <ele>572.6</ele>
        <time>2016-09-26T07:42:55Z</time>
      </trkpt>
      <trkpt lat="43.6099" lon="6.38364">
        <ele>571.64</ele>
        <time>2016-09-26T07:43:05Z</time>
      </trkpt>
      <trkpt lat="43.6101" lon="6.38362">
        <ele>569.72</ele>
        <time>2016-09-26T07:43:22Z</time>
      </trkpt>
      <trkpt lat="43.61026" lon="6.3836">
        <ele>567.32</ele>
        <time>2016-09-26T07:43:36Z</time>
      </trkpt>
      <trkpt lat="43.61043" lon="6.38362">
        <ele>564.43</ele>
        <time>2016-09-26T07:43:50Z</time>
      </trkpt>
      <trkpt lat="43.61044" lon="6.38361">
        <ele>563.95</ele>
        <time>2016-09-26T07:43:51Z</time>
      </trkpt>
      <trkpt lat="43.6106" lon="6.38359">
        <ele>562.51</ele>
        <time>2016-09-26T07:44:06Z</time>
      </trkpt>
      <trkpt lat="43.61068" lon="6.38353">
        <ele>561.55</ele>
        <time>2016-09-26T07:44:16Z</time>
      </trkpt>
      <trkpt lat="43.61073" lon="6.38347">
        <ele>562.03</ele>
        <time>2016-09-26T07:44:29Z</time>
      </trkpt>
      <trkpt lat="43.61076" lon="6.38345">
        <ele>561.55</ele>
        <time>2016-09-26T07:44:37Z</time>
      </trkpt>
      <trkpt lat="43.61081" lon="6.38342">
        <ele>561.07</ele>
        <time>2016-09-26T07:44:43Z</time>
      </trkpt>
      <trkpt lat="43.61088" lon="6.38339">
        <ele>560.59</ele>
        <time>2016-09-26T07:44:49Z</time>
      </trkpt>
      <trkpt lat="43.61105" lon="6.38328">
        <ele>560.11</ele>
        <time>2016-09-26T07:45:06Z</time>
      </trkpt>
      <trkpt lat="43.61114" lon="6.38324">
        <ele>559.62</ele>
        <time>2016-09-26T07:45:17Z</time>
      </trkpt>
      <trkpt lat="43.61127" lon="6.38328">
        <ele>558.66</ele>
        <time>2016-09-26T07:45:30Z</time>
      </trkpt>
      <trkpt lat="43.61143" lon="6.38334">
        <ele>558.18</ele>
        <time>2016-09-26T07:45:44Z</time>
      </trkpt>
      <trkpt lat="43.61153" lon="6.38349">
        <ele>557.22</ele>
        <time>2016-09-26T07:45:59Z</time>
      </trkpt>
      <trkpt lat="43.61156" lon="6.38357">
        <ele>556.74</ele>
        <time>2016-09-26T07:46:05Z</time>
      </trkpt>
      <trkpt lat="43.61162" lon="6.38367">
        <ele>556.26</ele>
        <time>2016-09-26T07:46:13Z</time>
      </trkpt>
      <trkpt lat="43.61165" lon="6.38378">
        <ele>556.26</ele>
        <time>2016-09-26T07:46:21Z</time>
      </trkpt>
      <trkpt lat="43.61174" lon="6.38397">
        <ele>556.26</ele>
        <time>2016-09-26T07:46:35Z</time>
      </trkpt>
      <trkpt lat="43.61176" lon="6.38403">
        <ele>556.26</ele>
        <time>2016-09-26T07:46:40Z</time>
      </trkpt>
      <trkpt lat="43.61179" lon="6.38427">
        <ele>556.74</ele>
        <time>2016-09-26T07:46:55Z</time>
      </trkpt>
      <trkpt lat="43.61181" lon="6.38449">
        <ele>556.74</ele>
        <time>2016-09-26T07:47:08Z</time>
      </trkpt>
      <trkpt lat="43.61182" lon="6.38455">
        <ele>556.74</ele>
        <time>2016-09-26T07:47:17Z</time>
      </trkpt>
      <trkpt lat="43.61182" lon="6.38469">
        <ele>556.26</ele>
        <time>2016-09-26T07:47:25Z</time>
      </trkpt>
      <trkpt lat="43.61182" lon="6.38493">
        <ele>555.78</ele>
        <time>2016-09-26T07:47:40Z</time>
      </trkpt>
      <trkpt lat="43.61182" lon="6.38503">
        <ele>555.3</ele>
        <time>2016-09-26T07:47:47Z</time>
      </trkpt>
      <trkpt lat="43.61184" lon="6.38509">
        <ele>555.78</ele>
        <time>2016-09-26T07:47:51Z</time>
      </trkpt>
      <trkpt lat="43.61186" lon="6.38513">
        <ele>555.78</ele>
        <time>2016-09-26T07:47:54Z</time>
      </trkpt>
      <trkpt lat="43.61195" lon="6.38527">
        <ele>557.22</ele>
        <time>2016-09-26T07:48:06Z</time>
      </trkpt>
      <trkpt lat="43.61199" lon="6.38532">
        <ele>557.7</ele>
        <time>2016-09-26T07:48:11Z</time>
      </trkpt>
      <trkpt lat="43.61206" lon="6.38537">
        <ele>558.66</ele>
        <time>2016-09-26T07:48:18Z</time>
      </trkpt>
      <trkpt lat="43.61225" lon="6.38545">
        <ele>561.55</ele>
        <time>2016-09-26T07:48:36Z</time>
      </trkpt>
      <trkpt lat="43.61238" lon="6.38549">
        <ele>563.95</ele>
        <time>2016-09-26T07:48:51Z</time>
      </trkpt>
      <trkpt lat="43.61241" lon="6.3855">
        <ele>564.43</ele>
        <time>2016-09-26T07:48:54Z</time>
      </trkpt>
      <trkpt lat="43.61253" lon="6.38552">
        <ele>566.35</ele>
        <time>2016-09-26T07:49:06Z</time>
      </trkpt>
      <trkpt lat="43.61255" lon="6.38551">
        <ele>566.35</ele>
        <time>2016-09-26T07:49:08Z</time>
      </trkpt>
      <trkpt lat="43.6127" lon="6.38556">
        <ele>568.76</ele>
        <time>2016-09-26T07:49:24Z</time>
      </trkpt>
      <trkpt lat="43.61285" lon="6.38566">
        <ele>571.16</ele>
        <time>2016-09-26T07:49:40Z</time>
      </trkpt>
      <trkpt lat="43.61296" lon="6.38575">
        <ele>572.6</ele>
        <time>2016-09-26T07:49:53Z</time>
      </trkpt>
      <trkpt lat="43.613" lon="6.38578">
        <ele>573.08</ele>
        <time>2016-09-26T07:49:58Z</time>
      </trkpt>
      <trkpt lat="43.61302" lon="6.38579">
        <ele>573.08</ele>
        <time>2016-09-26T07:50:00Z</time>
      </trkpt>
      <trkpt lat="43.61311" lon="6.38583">
        <ele>574.04</ele>
        <time>2016-09-26T07:50:09Z</time>
      </trkpt>
      <trkpt lat="43.61328" lon="6.38591">
        <ele>575.49</ele>
        <time>2016-09-26T07:50:25Z</time>
      </trkpt>
      <trkpt lat="43.61331" lon="6.38592">
        <ele>575.97</ele>
        <time>2016-09-26T07:50:28Z</time>
      </trkpt>
      <trkpt lat="43.61342" lon="6.38596">
        <ele>576.45</ele>
        <time>2016-09-26T07:50:38Z</time>
      </trkpt>
      <trkpt lat="43.61357" lon="6.38604">
        <ele>577.89</ele>
        <time>2016-09-26T07:50:54Z</time>
      </trkpt>
      <trkpt lat="43.6136" lon="6.38606">
        <ele>578.37</ele>
        <time>2016-09-26T07:50:57Z</time>
      </trkpt>
      <trkpt lat="43.61372" lon="6.38614">
        <ele>579.33</ele>
        <time>2016-09-26T07:51:10Z</time>
      </trkpt>
      <trkpt lat="43.61375" lon="6.38615">
        <ele>579.81</ele>
        <time>2016-09-26T07:51:13Z</time>
      </trkpt>
      <trkpt lat="43.6138" lon="6.38619">
        <ele>579.81</ele>
        <time>2016-09-26T07:51:18Z</time>
      </trkpt>
      <trkpt lat="43.61392" lon="6.38626">
        <ele>580.77</ele>
        <time>2016-09-26T07:51:30Z</time>
      </trkpt>
      <trkpt lat="43.61406" lon="6.38632">
        <ele>581.73</ele>
        <time>2016-09-26T07:51:44Z</time>
      </trkpt>
      <trkpt lat="43.6142" lon="6.38638">
        <ele>582.7</ele>
        <time>2016-09-26T07:51:57Z</time>
      </trkpt>
      <trkpt lat="43.61432" lon="6.38642">
        <ele>583.18</ele>
        <time>2016-09-26T07:52:08Z</time>
      </trkpt>
      <trkpt lat="43.61445" lon="6.38646">
        <ele>584.14</ele>
        <time>2016-09-26T07:52:20Z</time>
      </trkpt>
      <trkpt lat="43.61448" lon="6.38647">
        <ele>584.62</ele>
        <time>2016-09-26T07:52:23Z</time>
      </trkpt>
      <trkpt lat="43.61463" lon="6.38651">
        <ele>586.06</ele>
        <time>2016-09-26T07:52:36Z</time>
      </trkpt>
      <trkpt lat="43.61469" lon="6.38653">
        <ele>586.54</ele>
        <time>2016-09-26T07:52:42Z</time>
      </trkpt>
      <trkpt lat="43.61474" lon="6.38655">
        <ele>587.02</ele>
        <time>2016-09-26T07:52:47Z</time>
      </trkpt>
      <trkpt lat="43.6149" lon="6.38657">
        <ele>588.46</ele>
        <time>2016-09-26T07:53:02Z</time>
      </trkpt>
      <trkpt lat="43.61502" lon="6.38659">
        <ele>589.43</ele>
        <time>2016-09-26T07:53:14Z</time>
      </trkpt>
      <trkpt lat="43.61504" lon="6.38659">
        <ele>589.91</ele>
        <time>2016-09-26T07:53:16Z</time>
      </trkpt>
      <trkpt lat="43.61518" lon="6.3866">
        <ele>591.35</ele>
        <time>2016-09-26T07:53:29Z</time>
      </trkpt>
      <trkpt lat="43.61531" lon="6.38661">
        <ele>592.79</ele>
        <time>2016-09-26T07:53:43Z</time>
      </trkpt>
      <trkpt lat="43.61543" lon="6.38658">
        <ele>594.71</ele>
        <time>2016-09-26T07:53:56Z</time>
      </trkpt>
      <trkpt lat="43.61559" lon="6.38654">
        <ele>597.12</ele>
        <time>2016-09-26T07:54:12Z</time>
      </trkpt>
      <trkpt lat="43.61563" lon="6.38654">
        <ele>598.08</ele>
        <time>2016-09-26T07:54:16Z</time>
      </trkpt>
      <trkpt lat="43.61576" lon="6.38657">
        <ele>600.48</ele>
        <time>2016-09-26T07:54:31Z</time>
      </trkpt>
      <trkpt lat="43.61588" lon="6.38658">
        <ele>602.88</ele>
        <time>2016-09-26T07:54:45Z</time>
      </trkpt>
      <trkpt lat="43.616" lon="6.38662">
        <ele>605.29</ele>
        <time>2016-09-26T07:55:00Z</time>
      </trkpt>
      <trkpt lat="43.61605" lon="6.38663">
        <ele>605.77</ele>
        <time>2016-09-26T07:55:04Z</time>
      </trkpt>
      <trkpt lat="43.61609" lon="6.38664">
        <ele>606.25</ele>
        <time>2016-09-26T07:55:09Z</time>
      </trkpt>
      <trkpt lat="43.61615" lon="6.38668">
        <ele>607.69</ele>
        <time>2016-09-26T07:55:17Z</time>
      </trkpt>
      <trkpt lat="43.61624" lon="6.38674">
        <ele>608.65</ele>
        <time>2016-09-26T07:55:26Z</time>
      </trkpt>
      <trkpt lat="43.61629" lon="6.38677">
        <ele>609.61</ele>
        <time>2016-09-26T07:55:32Z</time>
      </trkpt>
      <trkpt lat="43.61631" lon="6.3868">
        <ele>609.61</ele>
        <time>2016-09-26T07:55:35Z</time>
      </trkpt>
      <trkpt lat="43.61634" lon="6.38682">
        <ele>610.09</ele>
        <time>2016-09-26T07:55:38Z</time>
      </trkpt>
      <trkpt lat="43.61642" lon="6.38693">
        <ele>611.06</ele>
        <time>2016-09-26T07:55:48Z</time>
      </trkpt>
      <trkpt lat="43.61653" lon="6.38706">
        <ele>612.5</ele>
        <time>2016-09-26T07:56:02Z</time>
      </trkpt>
      <trkpt lat="43.61657" lon="6.3871">
        <ele>612.98</ele>
        <time>2016-09-26T07:56:07Z</time>
      </trkpt>
      <trkpt lat="43.6166" lon="6.38715">
        <ele>613.94</ele>
        <time>2016-09-26T07:56:12Z</time>
      </trkpt>
      <trkpt lat="43.61666" lon="6.38716">
        <ele>614.42</ele>
        <time>2016-09-26T07:56:26Z</time>
      </trkpt>
      <trkpt lat="43.61668" lon="6.38717">
        <ele>614.42</ele>
        <time>2016-09-26T07:56:35Z</time>
      </trkpt>
      <trkpt lat="43.6167" lon="6.38718">
        <ele>614.42</ele>
        <time>2016-09-26T07:56:37Z</time>
      </trkpt>
      <trkpt lat="43.61675" lon="6.38722">
        <ele>614.9</ele>
        <time>2016-09-26T07:56:42Z</time>
      </trkpt>
      <trkpt lat="43.61691" lon="6.38724">
        <ele>616.82</ele>
        <time>2016-09-26T07:56:56Z</time>
      </trkpt>
      <trkpt lat="43.61702" lon="6.38725">
        <ele>618.26</ele>
        <time>2016-09-26T07:57:07Z</time>
      </trkpt>
      <trkpt lat="43.61715" lon="6.38728">
        <ele>620.19</ele>
        <time>2016-09-26T07:57:19Z</time>
      </trkpt>
      <trkpt lat="43.61717" lon="6.38731">
        <ele>620.67</ele>
        <time>2016-09-26T07:57:22Z</time>
      </trkpt>
      <trkpt lat="43.61718" lon="6.38736">
        <ele>621.15</ele>
        <time>2016-09-26T07:57:25Z</time>
      </trkpt>
      <trkpt lat="43.6172" lon="6.38741">
        <ele>621.63</ele>
        <time>2016-09-26T07:57:30Z</time>
      </trkpt>
      <trkpt lat="43.61721" lon="6.38747">
        <ele>623.07</ele>
        <time>2016-09-26T07:57:35Z</time>
      </trkpt>
      <trkpt lat="43.61727" lon="6.38738">
        <ele>624.99</ele>
        <time>2016-09-26T07:57:48Z</time>
      </trkpt>
      <trkpt lat="43.61729" lon="6.38727">
        <ele>626.44</ele>
        <time>2016-09-26T07:57:58Z</time>
      </trkpt>
      <trkpt lat="43.61734" lon="6.3871">
        <ele>628.84</ele>
        <time>2016-09-26T07:58:14Z</time>
      </trkpt>
      <trkpt lat="43.6174" lon="6.38693">
        <ele>631.72</ele>
        <time>2016-09-26T07:58:29Z</time>
      </trkpt>
      <trkpt lat="43.6174" lon="6.38691">
        <ele>632.68</ele>
        <time>2016-09-26T07:58:30Z</time>
      </trkpt>
      <trkpt lat="43.61741" lon="6.38687">
        <ele>632.68</ele>
        <time>2016-09-26T07:58:33Z</time>
      </trkpt>
      <trkpt lat="43.6174" lon="6.38681">
        <ele>633.17</ele>
        <time>2016-09-26T07:58:37Z</time>
      </trkpt>
      <trkpt lat="43.61736" lon="6.38675">
        <ele>634.61</ele>
        <time>2016-09-26T07:58:44Z</time>
      </trkpt>
      <trkpt lat="43.61724" lon="6.3867">
        <ele>636.53</ele>
        <time>2016-09-26T07:58:57Z</time>
      </trkpt>
      <trkpt lat="43.6172" lon="6.38669">
        <ele>636.53</ele>
        <time>2016-09-26T07:59:00Z</time>
      </trkpt>
      <trkpt lat="43.61703" lon="6.38657">
        <ele>638.93</ele>
        <time>2016-09-26T07:59:17Z</time>
      </trkpt>
      <trkpt lat="43.61699" lon="6.38652">
        <ele>639.41</ele>
        <time>2016-09-26T07:59:22Z</time>
      </trkpt>
      <trkpt lat="43.61697" lon="6.38649">
        <ele>639.89</ele>
        <time>2016-09-26T07:59:25Z</time>
      </trkpt>
      <trkpt lat="43.61691" lon="6.38645">
        <ele>640.38</ele>
        <time>2016-09-26T07:59:40Z</time>
      </trkpt>
      <trkpt lat="43.61691" lon="6.38645">
        <ele>640.38</ele>
        <time>2016-09-26T08:00:02Z</time>
      </trkpt>
      <trkpt lat="43.61691" lon="6.38646">
        <ele>639.89</ele>
        <time>2016-09-26T08:00:24Z</time>
      </trkpt>
      <trkpt lat="43.61692" lon="6.38647">
        <ele>639.41</ele>
        <time>2016-09-26T08:00:46Z</time>
      </trkpt>
      <trkpt lat="43.61691" lon="6.38648">
        <ele>639.89</ele>
        <time>2016-09-26T08:01:08Z</time>
      </trkpt>
      <trkpt lat="43.6169" lon="6.38649">
        <ele>639.89</ele>
        <time>2016-09-26T08:01:32Z</time>
      </trkpt>
      <trkpt lat="43.6169" lon="6.3865">
        <ele>639.89</ele>
        <time>2016-09-26T08:01:53Z</time>
      </trkpt>
      <trkpt lat="43.61691" lon="6.3865">
        <ele>639.89</ele>
        <time>2016-09-26T08:02:18Z</time>
      </trkpt>
      <trkpt lat="43.61691" lon="6.38649">
        <ele>639.89</ele>
        <time>2016-09-26T08:02:43Z</time>
      </trkpt>
      <trkpt lat="43.61691" lon="6.38649">
        <ele>639.41</ele>
        <time>2016-09-26T08:03:01Z</time>
      </trkpt>
      <trkpt lat="43.61691" lon="6.38649">
        <ele>639.41</ele>
        <time>2016-09-26T08:03:28Z</time>
      </trkpt>
      <trkpt lat="43.61692" lon="6.3865">
        <ele>639.41</ele>
        <time>2016-09-26T08:03:55Z</time>
      </trkpt>
      <trkpt lat="43.61692" lon="6.3865">
        <ele>639.41</ele>
        <time>2016-09-26T08:04:21Z</time>
      </trkpt>
      <trkpt lat="43.61692" lon="6.3865">
        <ele>638.93</ele>
        <time>2016-09-26T08:04:43Z</time>
      </trkpt>
      <trkpt lat="43.61692" lon="6.3865">
        <ele>638.93</ele>
        <time>2016-09-26T08:05:03Z</time>
      </trkpt>
      <trkpt lat="43.61692" lon="6.38649">
        <ele>639.41</ele>
        <time>2016-09-26T08:05:06Z</time>
      </trkpt>
      <trkpt lat="43.61684" lon="6.38635">
        <ele>640.38</ele>
        <time>2016-09-26T08:05:18Z</time>
      </trkpt>
      <trkpt lat="43.61678" lon="6.38617">
        <ele>642.3</ele>
        <time>2016-09-26T08:05:31Z</time>
      </trkpt>
      <trkpt lat="43.61671" lon="6.38606">
        <ele>643.26</ele>
        <time>2016-09-26T08:05:39Z</time>
      </trkpt>
      <trkpt lat="43.61668" lon="6.38593">
        <ele>643.74</ele>
        <time>2016-09-26T08:05:48Z</time>
      </trkpt>
      <trkpt lat="43.61666" lon="6.38581">
        <ele>644.22</ele>
        <time>2016-09-26T08:05:54Z</time>
      </trkpt>
      <trkpt lat="43.61666" lon="6.38566">
        <ele>645.18</ele>
        <time>2016-09-26T08:06:06Z</time>
      </trkpt>
      <trkpt lat="43.61661" lon="6.38557">
        <ele>645.18</ele>
        <time>2016-09-26T08:06:13Z</time>
      </trkpt>
      <trkpt lat="43.6165" lon="6.38538">
        <ele>645.66</ele>
        <time>2016-09-26T08:06:24Z</time>
      </trkpt>
      <trkpt lat="43.61653" lon="6.38517">
        <ele>647.1</ele>
        <time>2016-09-26T08:06:40Z</time>
      </trkpt>
      <trkpt lat="43.61656" lon="6.38498">
        <ele>648.55</ele>
        <time>2016-09-26T08:06:55Z</time>
      </trkpt>
      <trkpt lat="43.6166" lon="6.3849">
        <ele>649.03</ele>
        <time>2016-09-26T08:07:01Z</time>
      </trkpt>
      <trkpt lat="43.6166" lon="6.38475">
        <ele>649.51</ele>
        <time>2016-09-26T08:07:09Z</time>
      </trkpt>
      <trkpt lat="43.61648" lon="6.38453">
        <ele>649.51</ele>
        <time>2016-09-26T08:07:25Z</time>
      </trkpt>
      <trkpt lat="43.6164" lon="6.38438">
        <ele>649.51</ele>
        <time>2016-09-26T08:07:36Z</time>
      </trkpt>
      <trkpt lat="43.6164" lon="6.38434">
        <ele>649.51</ele>
        <time>2016-09-26T08:07:38Z</time>
      </trkpt>
      <trkpt lat="43.61641" lon="6.38427">
        <ele>649.51</ele>
        <time>2016-09-26T08:07:42Z</time>
      </trkpt>
      <trkpt lat="43.61638" lon="6.38422">
        <ele>649.51</ele>
        <time>2016-09-26T08:07:46Z</time>
      </trkpt>
      <trkpt lat="43.61623" lon="6.38401">
        <ele>649.51</ele>
        <time>2016-09-26T08:08:05Z</time>
      </trkpt>
      <trkpt lat="43.61622" lon="6.384">
        <ele>649.03</ele>
        <time>2016-09-26T08:08:06Z</time>
      </trkpt>
      <trkpt lat="43.61607" lon="6.38386">
        <ele>649.51</ele>
        <time>2016-09-26T08:08:24Z</time>
      </trkpt>
      <trkpt lat="43.61602" lon="6.38374">
        <ele>649.51</ele>
        <time>2016-09-26T08:08:34Z</time>
      </trkpt>
      <trkpt lat="43.61598" lon="6.38355">
        <ele>649.03</ele>
        <time>2016-09-26T08:08:48Z</time>
      </trkpt>
      <trkpt lat="43.61593" lon="6.38341">
        <ele>648.55</ele>
        <time>2016-09-26T08:08:56Z</time>
      </trkpt>
      <trkpt lat="43.61589" lon="6.38334">
        <ele>649.03</ele>
        <time>2016-09-26T08:09:01Z</time>
      </trkpt>
      <trkpt lat="43.61585" lon="6.38325">
        <ele>648.55</ele>
        <time>2016-09-26T08:09:08Z</time>
      </trkpt>
      <trkpt lat="43.61572" lon="6.38311">
        <ele>648.07</ele>
        <time>2016-09-26T08:09:24Z</time>
      </trkpt>
      <trkpt lat="43.61561" lon="6.38307">
        <ele>647.1</ele>
        <time>2016-09-26T08:09:36Z</time>
      </trkpt>
      <trkpt lat="43.61558" lon="6.38306">
        <ele>647.1</ele>
        <time>2016-09-26T08:09:38Z</time>
      </trkpt>
      <trkpt lat="43.61545" lon="6.38297">
        <ele>646.62</ele>
        <time>2016-09-26T08:09:53Z</time>
      </trkpt>
      <trkpt lat="43.61535" lon="6.38288">
        <ele>645.66</ele>
        <time>2016-09-26T08:10:07Z</time>
      </trkpt>
      <trkpt lat="43.61525" lon="6.38275">
        <ele>645.66</ele>
        <time>2016-09-26T08:10:21Z</time>
      </trkpt>
      <trkpt lat="43.61507" lon="6.38263">
        <ele>644.22</ele>
        <time>2016-09-26T08:10:39Z</time>
      </trkpt>
      <trkpt lat="43.61493" lon="6.38251">
        <ele>643.74</ele>
        <time>2016-09-26T08:10:53Z</time>
      </trkpt>
      <trkpt lat="43.61485" lon="6.3824">
        <ele>643.74</ele>
        <time>2016-09-26T08:11:07Z</time>
      </trkpt>
      <trkpt lat="43.6148" lon="6.38237">
        <ele>643.26</ele>
        <time>2016-09-26T08:11:12Z</time>
      </trkpt>
      <trkpt lat="43.61468" lon="6.38234">
        <ele>642.78</ele>
        <time>2016-09-26T08:11:22Z</time>
      </trkpt>
      <trkpt lat="43.61457" lon="6.38236">
        <ele>642.3</ele>
        <time>2016-09-26T08:11:35Z</time>
      </trkpt>
      <trkpt lat="43.61452" lon="6.38236">
        <ele>641.82</ele>
        <time>2016-09-26T08:11:38Z</time>
      </trkpt>
      <trkpt lat="43.61439" lon="6.38243">
        <ele>641.34</ele>
        <time>2016-09-26T08:11:53Z</time>
      </trkpt>
      <trkpt lat="43.6143" lon="6.38255">
        <ele>640.86</ele>
        <time>2016-09-26T08:12:05Z</time>
      </trkpt>
      <trkpt lat="43.61428" lon="6.38257">
        <ele>640.86</ele>
        <time>2016-09-26T08:12:08Z</time>
      </trkpt>
      <trkpt lat="43.61417" lon="6.38274">
        <ele>639.41</ele>
        <time>2016-09-26T08:12:24Z</time>
      </trkpt>
      <trkpt lat="43.61413" lon="6.38279">
        <ele>638.93</ele>
        <time>2016-09-26T08:12:29Z</time>
      </trkpt>
      <trkpt lat="43.61407" lon="6.38287">
        <ele>638.45</ele>
        <time>2016-09-26T08:12:37Z</time>
      </trkpt>
      <trkpt lat="43.61405" lon="6.38289">
        <ele>637.97</ele>
        <time>2016-09-26T08:12:40Z</time>
      </trkpt>
      <trkpt lat="43.61405" lon="6.38301">
        <ele>637.97</ele>
        <time>2016-09-26T08:12:48Z</time>
      </trkpt>
      <trkpt lat="43.61407" lon="6.38308">
        <ele>638.45</ele>
        <time>2016-09-26T08:13:02Z</time>
      </trkpt>
      <trkpt lat="43.6141" lon="6.3831">
        <ele>638.45</ele>
        <time>2016-09-26T08:13:16Z</time>
      </trkpt>
      <trkpt lat="43.6141" lon="6.38309">
        <ele>637.97</ele>
        <time>2016-09-26T08:13:41Z</time>
      </trkpt>
      <trkpt lat="43.6141" lon="6.38309">
        <ele>637.97</ele>
        <time>2016-09-26T08:14:08Z</time>
      </trkpt>
      <trkpt lat="43.61409" lon="6.38309">
        <ele>637.49</ele>
        <time>2016-09-26T08:14:31Z</time>
      </trkpt>
      <trkpt lat="43.61408" lon="6.3831">
        <ele>637.49</ele>
        <time>2016-09-26T08:14:42Z</time>
      </trkpt>
      <trkpt lat="43.61409" lon="6.38311">
        <ele>637.97</ele>
        <time>2016-09-26T08:14:55Z</time>
      </trkpt>
      <trkpt lat="43.61409" lon="6.38311">
        <ele>637.49</ele>
        <time>2016-09-26T08:15:07Z</time>
      </trkpt>
      <trkpt lat="43.6141" lon="6.38311">
        <ele>637.49</ele>
        <time>2016-09-26T08:15:18Z</time>
      </trkpt>
      <trkpt lat="43.61411" lon="6.38308">
        <ele>637.97</ele>
        <time>2016-09-26T08:15:34Z</time>
      </trkpt>
      <trkpt lat="43.6141" lon="6.38307">
        <ele>637.97</ele>
        <time>2016-09-26T08:15:50Z</time>
      </trkpt>
      <trkpt lat="43.61409" lon="6.38307">
        <ele>637.49</ele>
        <time>2016-09-26T08:16:07Z</time>
      </trkpt>
      <trkpt lat="43.61409" lon="6.38307">
        <ele>637.49</ele>
        <time>2016-09-26T08:16:27Z</time>
      </trkpt>
      <trkpt lat="43.61409" lon="6.38307">
        <ele>637.49</ele>
        <time>2016-09-26T08:16:56Z</time>
      </trkpt>
      <trkpt lat="43.61408" lon="6.38307">
        <ele>637.49</ele>
        <time>2016-09-26T08:17:28Z</time>
      </trkpt>
      <trkpt lat="43.61408" lon="6.38307">
        <ele>637.49</ele>
        <time>2016-09-26T08:18:07Z</time>
      </trkpt>
      <trkpt lat="43.61407" lon="6.38305">
        <ele>637.01</ele>
        <time>2016-09-26T08:18:38Z</time>
      </trkpt>
      <trkpt lat="43.61407" lon="6.38305">
        <ele>637.01</ele>
        <time>2016-09-26T08:19:11Z</time>
      </trkpt>
      <trkpt lat="43.61407" lon="6.38305">
        <ele>637.01</ele>
        <time>2016-09-26T08:19:43Z</time>
      </trkpt>
      <trkpt lat="43.61407" lon="6.38305">
        <ele>636.53</ele>
        <time>2016-09-26T08:20:15Z</time>
      </trkpt>
      <trkpt lat="43.61408" lon="6.38304">
        <ele>636.05</ele>
        <time>2016-09-26T08:20:47Z</time>
      </trkpt>
      <trkpt lat="43.61407" lon="6.38304">
        <ele>636.05</ele>
        <time>2016-09-26T08:21:20Z</time>
      </trkpt>
      <trkpt lat="43.61404" lon="6.38298">
        <ele>635.57</ele>
        <time>2016-09-26T08:21:40Z</time>
      </trkpt>
      <trkpt lat="43.61406" lon="6.38292">
        <ele>636.05</ele>
        <time>2016-09-26T08:21:46Z</time>
      </trkpt>
      <trkpt lat="43.61413" lon="6.38286">
        <ele>636.53</ele>
        <time>2016-09-26T08:21:55Z</time>
      </trkpt>
      <trkpt lat="43.61414" lon="6.38283">
        <ele>637.01</ele>
        <time>2016-09-26T08:21:57Z</time>
      </trkpt>
      <trkpt lat="43.61416" lon="6.38281">
        <ele>637.01</ele>
        <time>2016-09-26T08:22:00Z</time>
      </trkpt>
      <trkpt lat="43.61426" lon="6.3827">
        <ele>637.97</ele>
        <time>2016-09-26T08:22:14Z</time>
      </trkpt>
      <trkpt lat="43.61432" lon="6.38263">
        <ele>638.45</ele>
        <time>2016-09-26T08:22:24Z</time>
      </trkpt>
      <trkpt lat="43.61438" lon="6.38253">
        <ele>639.89</ele>
        <time>2016-09-26T08:22:33Z</time>
      </trkpt>
      <trkpt lat="43.61448" lon="6.38244">
        <ele>639.41</ele>
        <time>2016-09-26T08:22:48Z</time>
      </trkpt>
      <trkpt lat="43.61457" lon="6.38245">
        <ele>639.89</ele>
        <time>2016-09-26T08:22:58Z</time>
      </trkpt>
      <trkpt lat="43.61471" lon="6.38242">
        <ele>640.38</ele>
        <time>2016-09-26T08:23:13Z</time>
      </trkpt>
      <trkpt lat="43.61485" lon="6.38255">
        <ele>640.86</ele>
        <time>2016-09-26T08:23:31Z</time>
      </trkpt>
      <trkpt lat="43.61486" lon="6.38256">
        <ele>640.86</ele>
        <time>2016-09-26T08:23:32Z</time>
      </trkpt>
      <trkpt lat="43.61494" lon="6.38265">
        <ele>641.34</ele>
        <time>2016-09-26T08:23:43Z</time>
      </trkpt>
      <trkpt lat="43.61507" lon="6.38275">
        <ele>641.82</ele>
        <time>2016-09-26T08:23:58Z</time>
      </trkpt>
      <trkpt lat="43.61522" lon="6.38286">
        <ele>642.78</ele>
        <time>2016-09-26T08:24:16Z</time>
      </trkpt>
      <trkpt lat="43.61525" lon="6.38291">
        <ele>642.78</ele>
        <time>2016-09-26T08:24:20Z</time>
      </trkpt>
      <trkpt lat="43.61531" lon="6.38298">
        <ele>643.26</ele>
        <time>2016-09-26T08:24:25Z</time>
      </trkpt>
      <trkpt lat="43.61546" lon="6.3831">
        <ele>643.74</ele>
        <time>2016-09-26T08:24:40Z</time>
      </trkpt>
      <trkpt lat="43.61564" lon="6.38317">
        <ele>644.7</ele>
        <time>2016-09-26T08:24:57Z</time>
      </trkpt>
      <trkpt lat="43.61578" lon="6.38324">
        <ele>644.7</ele>
        <time>2016-09-26T08:25:13Z</time>
      </trkpt>
      <trkpt lat="43.61583" lon="6.38332">
        <ele>645.18</ele>
        <time>2016-09-26T08:25:19Z</time>
      </trkpt>
      <trkpt lat="43.61585" lon="6.38335">
        <ele>645.18</ele>
        <time>2016-09-26T08:25:21Z</time>
      </trkpt>
      <trkpt lat="43.6159" lon="6.38343">
        <ele>645.66</ele>
        <time>2016-09-26T08:25:36Z</time>
      </trkpt>
      <trkpt lat="43.61593" lon="6.38343">
        <ele>645.66</ele>
        <time>2016-09-26T08:25:52Z</time>
      </trkpt>
      <trkpt lat="43.61593" lon="6.38345">
        <ele>645.66</ele>
        <time>2016-09-26T08:25:57Z</time>
      </trkpt>
      <trkpt lat="43.61597" lon="6.38367">
        <ele>645.66</ele>
        <time>2016-09-26T08:26:13Z</time>
      </trkpt>
      <trkpt lat="43.61607" lon="6.38388">
        <ele>645.66</ele>
        <time>2016-09-26T08:26:28Z</time>
      </trkpt>
      <trkpt lat="43.6161" lon="6.38393">
        <ele>645.66</ele>
        <time>2016-09-26T08:26:32Z</time>
      </trkpt>
      <trkpt lat="43.61618" lon="6.38402">
        <ele>645.18</ele>
        <time>2016-09-26T08:26:42Z</time>
      </trkpt>
      <trkpt lat="43.6163" lon="6.38417">
        <ele>645.66</ele>
        <time>2016-09-26T08:26:57Z</time>
      </trkpt>
      <trkpt lat="43.61639" lon="6.38425">
        <ele>646.14</ele>
        <time>2016-09-26T08:27:11Z</time>
      </trkpt>
      <trkpt lat="43.61647" lon="6.38421">
        <ele>646.62</ele>
        <time>2016-09-26T08:27:29Z</time>
      </trkpt>
      <trkpt lat="43.61665" lon="6.38407">
        <ele>647.59</ele>
        <time>2016-09-26T08:27:48Z</time>
      </trkpt>
      <trkpt lat="43.61681" lon="6.384">
        <ele>649.51</ele>
        <time>2016-09-26T08:28:07Z</time>
      </trkpt>
      <trkpt lat="43.61696" lon="6.38407">
        <ele>650.47</ele>
        <time>2016-09-26T08:28:28Z</time>
      </trkpt>
      <trkpt lat="43.61712" lon="6.38414">
        <ele>650.47</ele>
        <time>2016-09-26T08:28:46Z</time>
      </trkpt>
      <trkpt lat="43.6172" lon="6.38421">
        <ele>650.95</ele>
        <time>2016-09-26T08:28:57Z</time>
      </trkpt>
      <trkpt lat="43.61733" lon="6.38434">
        <ele>651.43</ele>
        <time>2016-09-26T08:29:11Z</time>
      </trkpt>
      <trkpt lat="43.61746" lon="6.3845">
        <ele>652.39</ele>
        <time>2016-09-26T08:29:27Z</time>
      </trkpt>
      <trkpt lat="43.61756" lon="6.38462">
        <ele>652.39</ele>
        <time>2016-09-26T08:29:42Z</time>
      </trkpt>
      <trkpt lat="43.6177" lon="6.38478">
        <ele>652.87</ele>
        <time>2016-09-26T08:29:59Z</time>
      </trkpt>
      <trkpt lat="43.61777" lon="6.38482">
        <ele>653.35</ele>
        <time>2016-09-26T08:30:07Z</time>
      </trkpt>
      <trkpt lat="43.61791" lon="6.3849">
        <ele>653.83</ele>
        <time>2016-09-26T08:30:23Z</time>
      </trkpt>
      <trkpt lat="43.61805" lon="6.38501">
        <ele>655.28</ele>
        <time>2016-09-26T08:30:41Z</time>
      </trkpt>
      <trkpt lat="43.61817" lon="6.38512">
        <ele>655.76</ele>
        <time>2016-09-26T08:30:56Z</time>
      </trkpt>
      <trkpt lat="43.61821" lon="6.38517">
        <ele>656.24</ele>
        <time>2016-09-26T08:31:01Z</time>
      </trkpt>
      <trkpt lat="43.61838" lon="6.38531">
        <ele>657.2</ele>
        <time>2016-09-26T08:31:18Z</time>
      </trkpt>
      <trkpt lat="43.61855" lon="6.38541">
        <ele>658.64</ele>
        <time>2016-09-26T08:31:34Z</time>
      </trkpt>
      <trkpt lat="43.6187" lon="6.38537">
        <ele>659.12</ele>
        <time>2016-09-26T08:31:44Z</time>
      </trkpt>
      <trkpt lat="43.61875" lon="6.38533">
        <ele>660.08</ele>
        <time>2016-09-26T08:31:50Z</time>
      </trkpt>
      <trkpt lat="43.61891" lon="6.38525">
        <ele>661.52</ele>
        <time>2016-09-26T08:32:05Z</time>
      </trkpt>
      <trkpt lat="43.61904" lon="6.38521">
        <ele>662.97</ele>
        <time>2016-09-26T08:32:19Z</time>
      </trkpt>
      <trkpt lat="43.61917" lon="6.38512">
        <ele>664.89</ele>
        <time>2016-09-26T08:32:35Z</time>
      </trkpt>
      <trkpt lat="43.61918" lon="6.38511">
        <ele>664.89</ele>
        <time>2016-09-26T08:32:36Z</time>
      </trkpt>
      <trkpt lat="43.61932" lon="6.38501">
        <ele>665.85</ele>
        <time>2016-09-26T08:32:50Z</time>
      </trkpt>
      <trkpt lat="43.6194" lon="6.38498">
        <ele>666.81</ele>
        <time>2016-09-26T08:33:00Z</time>
      </trkpt>
      <trkpt lat="43.61956" lon="6.38489">
        <ele>667.77</ele>
        <time>2016-09-26T08:33:15Z</time>
      </trkpt>
      <trkpt lat="43.6197" lon="6.38485">
        <ele>668.73</ele>
        <time>2016-09-26T08:33:30Z</time>
      </trkpt>
      <trkpt lat="43.61987" lon="6.38482">
        <ele>669.7</ele>
        <time>2016-09-26T08:33:46Z</time>
      </trkpt>
      <trkpt lat="43.61991" lon="6.38481">
        <ele>669.7</ele>
        <time>2016-09-26T08:33:49Z</time>
      </trkpt>
      <trkpt lat="43.62009" lon="6.38471">
        <ele>670.66</ele>
        <time>2016-09-26T08:34:05Z</time>
      </trkpt>
      <trkpt lat="43.62022" lon="6.3846">
        <ele>671.62</ele>
        <time>2016-09-26T08:34:19Z</time>
      </trkpt>
      <trkpt lat="43.62024" lon="6.38458">
        <ele>671.62</ele>
        <time>2016-09-26T08:34:22Z</time>
      </trkpt>
      <trkpt lat="43.62029" lon="6.38456">
        <ele>672.1</ele>
        <time>2016-09-26T08:34:26Z</time>
      </trkpt>
      <trkpt lat="43.62045" lon="6.38448">
        <ele>672.1</ele>
        <time>2016-09-26T08:34:40Z</time>
      </trkpt>
      <trkpt lat="43.62061" lon="6.38445">
        <ele>672.58</ele>
        <time>2016-09-26T08:34:58Z</time>
      </trkpt>
      <trkpt lat="43.62069" lon="6.38445">
        <ele>672.1</ele>
        <time>2016-09-26T08:35:06Z</time>
      </trkpt>
      <trkpt lat="43.62083" lon="6.38439">
        <ele>672.58</ele>
        <time>2016-09-26T08:35:20Z</time>
      </trkpt>
      <trkpt lat="43.621" lon="6.38439">
        <ele>672.58</ele>
        <time>2016-09-26T08:35:37Z</time>
      </trkpt>
      <trkpt lat="43.6211" lon="6.38439">
        <ele>672.58</ele>
        <time>2016-09-26T08:35:45Z</time>
      </trkpt>
      <trkpt lat="43.62131" lon="6.38437">
        <ele>672.58</ele>
        <time>2016-09-26T08:36:03Z</time>
      </trkpt>
      <trkpt lat="43.62154" lon="6.38437">
        <ele>672.58</ele>
        <time>2016-09-26T08:36:20Z</time>
      </trkpt>
      <trkpt lat="43.62168" lon="6.38438">
        <ele>672.58</ele>
        <time>2016-09-26T08:36:34Z</time>
      </trkpt>
      <trkpt lat="43.62176" lon="6.38435">
        <ele>672.1</ele>
        <time>2016-09-26T08:36:39Z</time>
      </trkpt>
      <trkpt lat="43.62181" lon="6.38435">
        <ele>671.14</ele>
        <time>2016-09-26T08:36:43Z</time>
      </trkpt>
      <trkpt lat="43.62202" lon="6.38431">
        <ele>670.18</ele>
        <time>2016-09-26T08:36:59Z</time>
      </trkpt>
      <trkpt lat="43.6222" lon="6.38431">
        <ele>670.18</ele>
        <time>2016-09-26T08:37:15Z</time>
      </trkpt>
      <trkpt lat="43.62229" lon="6.38431">
        <ele>669.7</ele>
        <time>2016-09-26T08:37:22Z</time>
      </trkpt>
      <trkpt lat="43.62245" lon="6.38434">
        <ele>669.7</ele>
        <time>2016-09-26T08:37:36Z</time>
      </trkpt>
      <trkpt lat="43.62259" lon="6.38438">
        <ele>670.18</ele>
        <time>2016-09-26T08:37:50Z</time>
      </trkpt>
      <trkpt lat="43.62275" lon="6.38443">
        <ele>670.18</ele>
        <time>2016-09-26T08:38:04Z</time>
      </trkpt>
      <trkpt lat="43.62291" lon="6.38445">
        <ele>670.18</ele>
        <time>2016-09-26T08:38:18Z</time>
      </trkpt>
      <trkpt lat="43.62294" lon="6.38445">
        <ele>670.18</ele>
        <time>2016-09-26T08:38:21Z</time>
      </trkpt>
      <trkpt lat="43.62304" lon="6.38444">
        <ele>670.18</ele>
        <time>2016-09-26T08:38:30Z</time>
      </trkpt>
      <trkpt lat="43.62313" lon="6.38445">
        <ele>670.18</ele>
        <time>2016-09-26T08:38:37Z</time>
      </trkpt>
      <trkpt lat="43.62329" lon="6.38443">
        <ele>671.14</ele>
        <time>2016-09-26T08:38:50Z</time>
      </trkpt>
      <trkpt lat="43.62333" lon="6.38443">
        <ele>671.14</ele>
        <time>2016-09-26T08:38:53Z</time>
      </trkpt>
      <trkpt lat="43.62338" lon="6.38442">
        <ele>671.62</ele>
        <time>2016-09-26T08:38:58Z</time>
      </trkpt>
      <trkpt lat="43.62342" lon="6.38441">
        <ele>671.62</ele>
        <time>2016-09-26T08:39:01Z</time>
      </trkpt>
      <trkpt lat="43.6235" lon="6.38439">
        <ele>671.62</ele>
        <time>2016-09-26T08:39:08Z</time>
      </trkpt>
      <trkpt lat="43.62369" lon="6.38437">
        <ele>671.14</ele>
        <time>2016-09-26T08:39:22Z</time>
      </trkpt>
      <trkpt lat="43.62383" lon="6.3844">
        <ele>670.66</ele>
        <time>2016-09-26T08:39:34Z</time>
      </trkpt>
      <trkpt lat="43.62398" lon="6.38441">
        <ele>671.62</ele>
        <time>2016-09-26T08:39:48Z</time>
      </trkpt>
      <trkpt lat="43.62409" lon="6.38442">
        <ele>673.06</ele>
        <time>2016-09-26T08:39:58Z</time>
      </trkpt>
      <trkpt lat="43.62412" lon="6.38442">
        <ele>673.06</ele>
        <time>2016-09-26T08:40:01Z</time>
      </trkpt>
      <trkpt lat="43.62429" lon="6.38448">
        <ele>674.02</ele>
        <time>2016-09-26T08:40:16Z</time>
      </trkpt>
      <trkpt lat="43.62437" lon="6.38448">
        <ele>674.5</ele>
        <time>2016-09-26T08:40:25Z</time>
      </trkpt>
      <trkpt lat="43.6244" lon="6.38438">
        <ele>674.5</ele>
        <time>2016-09-26T08:40:37Z</time>
      </trkpt>
      <trkpt lat="43.6244" lon="6.38433">
        <ele>674.02</ele>
        <time>2016-09-26T08:40:55Z</time>
      </trkpt>
      <trkpt lat="43.62439" lon="6.38431">
        <ele>674.02</ele>
        <time>2016-09-26T08:40:56Z</time>
      </trkpt>
      <trkpt lat="43.62431" lon="6.38414">
        <ele>672.58</ele>
        <time>2016-09-26T08:41:11Z</time>
      </trkpt>
      <trkpt lat="43.62421" lon="6.38396">
        <ele>671.14</ele>
        <time>2016-09-26T08:41:27Z</time>
      </trkpt>
      <trkpt lat="43.62416" lon="6.38378">
        <ele>669.7</ele>
        <time>2016-09-26T08:41:41Z</time>
      </trkpt>
      <trkpt lat="43.62414" lon="6.38355">
        <ele>668.25</ele>
        <time>2016-09-26T08:41:56Z</time>
      </trkpt>
      <trkpt lat="43.62415" lon="6.38335">
        <ele>666.81</ele>
        <time>2016-09-26T08:42:09Z</time>
      </trkpt>
      <trkpt lat="43.62415" lon="6.38334">
        <ele>666.81</ele>
        <time>2016-09-26T08:42:10Z</time>
      </trkpt>
      <trkpt lat="43.62417" lon="6.38321">
        <ele>665.85</ele>
        <time>2016-09-26T08:42:19Z</time>
      </trkpt>
      <trkpt lat="43.62419" lon="6.38315">
        <ele>665.85</ele>
        <time>2016-09-26T08:42:23Z</time>
      </trkpt>
      <trkpt lat="43.62429" lon="6.38297">
        <ele>665.37</ele>
        <time>2016-09-26T08:42:38Z</time>
      </trkpt>
      <trkpt lat="43.62431" lon="6.38293">
        <ele>665.37</ele>
        <time>2016-09-26T08:42:41Z</time>
      </trkpt>
      <trkpt lat="43.62432" lon="6.38287">
        <ele>665.37</ele>
        <time>2016-09-26T08:42:45Z</time>
      </trkpt>
      <trkpt lat="43.62434" lon="6.38281">
        <ele>664.89</ele>
        <time>2016-09-26T08:42:49Z</time>
      </trkpt>
      <trkpt lat="43.62443" lon="6.38259">
        <ele>663.93</ele>
        <time>2016-09-26T08:43:05Z</time>
      </trkpt>
      <trkpt lat="43.62453" lon="6.38241">
        <ele>663.45</ele>
        <time>2016-09-26T08:43:19Z</time>
      </trkpt>
      <trkpt lat="43.62454" lon="6.38237">
        <ele>663.45</ele>
        <time>2016-09-26T08:43:21Z</time>
      </trkpt>
      <trkpt lat="43.62461" lon="6.38212">
        <ele>663.45</ele>
        <time>2016-09-26T08:43:37Z</time>
      </trkpt>
      <trkpt lat="43.62467" lon="6.38186">
        <ele>663.45</ele>
        <time>2016-09-26T08:43:54Z</time>
      </trkpt>
      <trkpt lat="43.62468" lon="6.38184">
        <ele>663.45</ele>
        <time>2016-09-26T08:43:55Z</time>
      </trkpt>
      <trkpt lat="43.62469" lon="6.38171">
        <ele>663.45</ele>
        <time>2016-09-26T08:44:04Z</time>
      </trkpt>
      <trkpt lat="43.62472" lon="6.38152">
        <ele>663.45</ele>
        <time>2016-09-26T08:44:17Z</time>
      </trkpt>
      <trkpt lat="43.62471" lon="6.38144">
        <ele>662.97</ele>
        <time>2016-09-26T08:44:22Z</time>
      </trkpt>
      <trkpt lat="43.62472" lon="6.38118">
        <ele>662.49</ele>
        <time>2016-09-26T08:44:38Z</time>
      </trkpt>
      <trkpt lat="43.62473" lon="6.38096">
        <ele>662.49</ele>
        <time>2016-09-26T08:44:52Z</time>
      </trkpt>
      <trkpt lat="43.62476" lon="6.38069">
        <ele>660.56</ele>
        <time>2016-09-26T08:45:08Z</time>
      </trkpt>
      <trkpt lat="43.62478" lon="6.38042">
        <ele>659.12</ele>
        <time>2016-09-26T08:45:25Z</time>
      </trkpt>
      <trkpt lat="43.62476" lon="6.38034">
        <ele>659.12</ele>
        <time>2016-09-26T08:45:33Z</time>
      </trkpt>
      <trkpt lat="43.62476" lon="6.38029">
        <ele>658.64</ele>
        <time>2016-09-26T08:45:36Z</time>
      </trkpt>
      <trkpt lat="43.62471" lon="6.38005">
        <ele>658.64</ele>
        <time>2016-09-26T08:45:51Z</time>
      </trkpt>
      <trkpt lat="43.62462" lon="6.37981">
        <ele>657.68</ele>
        <time>2016-09-26T08:46:07Z</time>
      </trkpt>
      <trkpt lat="43.62459" lon="6.37967">
        <ele>657.2</ele>
        <time>2016-09-26T08:46:16Z</time>
      </trkpt>
      <trkpt lat="43.62462" lon="6.37942">
        <ele>657.2</ele>
        <time>2016-09-26T08:46:31Z</time>
      </trkpt>
      <trkpt lat="43.62464" lon="6.37935">
        <ele>657.2</ele>
        <time>2016-09-26T08:46:35Z</time>
      </trkpt>
      <trkpt lat="43.62465" lon="6.37928">
        <ele>657.2</ele>
        <time>2016-09-26T08:46:39Z</time>
      </trkpt>
      <trkpt lat="43.6247" lon="6.37898">
        <ele>657.68</ele>
        <time>2016-09-26T08:46:57Z</time>
      </trkpt>
      <trkpt lat="43.62471" lon="6.37888">
        <ele>657.68</ele>
        <time>2016-09-26T08:47:03Z</time>
      </trkpt>
      <trkpt lat="43.62474" lon="6.37868">
        <ele>657.68</ele>
        <time>2016-09-26T08:47:16Z</time>
      </trkpt>
      <trkpt lat="43.62475" lon="6.37863">
        <ele>657.68</ele>
        <time>2016-09-26T08:47:19Z</time>
      </trkpt>
      <trkpt lat="43.62482" lon="6.37838">
        <ele>657.2</ele>
        <time>2016-09-26T08:47:34Z</time>
      </trkpt>
      <trkpt lat="43.62492" lon="6.37816">
        <ele>656.72</ele>
        <time>2016-09-26T08:47:50Z</time>
      </trkpt>
      <trkpt lat="43.62493" lon="6.37813">
        <ele>656.72</ele>
        <time>2016-09-26T08:47:52Z</time>
      </trkpt>
      <trkpt lat="43.62503" lon="6.37794">
        <ele>655.28</ele>
        <time>2016-09-26T08:48:05Z</time>
      </trkpt>
      <trkpt lat="43.62516" lon="6.37778">
        <ele>654.31</ele>
        <time>2016-09-26T08:48:18Z</time>
      </trkpt>
      <trkpt lat="43.62519" lon="6.37768">
        <ele>653.83</ele>
        <time>2016-09-26T08:48:25Z</time>
      </trkpt>
      <trkpt lat="43.62526" lon="6.37757">
        <ele>654.31</ele>
        <time>2016-09-26T08:48:34Z</time>
      </trkpt>
      <trkpt lat="43.62529" lon="6.37752">
        <ele>654.31</ele>
        <time>2016-09-26T08:48:38Z</time>
      </trkpt>
      <trkpt lat="43.62546" lon="6.37733">
        <ele>655.28</ele>
        <time>2016-09-26T08:48:55Z</time>
      </trkpt>
      <trkpt lat="43.62559" lon="6.37716">
        <ele>656.24</ele>
        <time>2016-09-26T08:49:10Z</time>
      </trkpt>
      <trkpt lat="43.6257" lon="6.37698">
        <ele>657.68</ele>
        <time>2016-09-26T08:49:25Z</time>
      </trkpt>
      <trkpt lat="43.62577" lon="6.37692">
        <ele>658.64</ele>
        <time>2016-09-26T08:49:33Z</time>
      </trkpt>
      <trkpt lat="43.62588" lon="6.37681">
        <ele>659.6</ele>
        <time>2016-09-26T08:49:46Z</time>
      </trkpt>
      <trkpt lat="43.62595" lon="6.37672">
        <ele>660.56</ele>
        <time>2016-09-26T08:49:56Z</time>
      </trkpt>
      <trkpt lat="43.62611" lon="6.37651">
        <ele>661.52</ele>
        <time>2016-09-26T08:50:14Z</time>
      </trkpt>
      <trkpt lat="43.62622" lon="6.3763">
        <ele>662.97</ele>
        <time>2016-09-26T08:50:32Z</time>
      </trkpt>
      <trkpt lat="43.62632" lon="6.37601">
        <ele>662.97</ele>
        <time>2016-09-26T08:50:49Z</time>
      </trkpt>
      <trkpt lat="43.62639" lon="6.37577">
        <ele>662.97</ele>
        <time>2016-09-26T08:51:05Z</time>
      </trkpt>
      <trkpt lat="43.62646" lon="6.37561">
        <ele>662.01</ele>
        <time>2016-09-26T08:51:17Z</time>
      </trkpt>
      <trkpt lat="43.62652" lon="6.37542">
        <ele>660.56</ele>
        <time>2016-09-26T08:51:29Z</time>
      </trkpt>
      <trkpt lat="43.62658" lon="6.37517">
        <ele>659.6</ele>
        <time>2016-09-26T08:51:45Z</time>
      </trkpt>
      <trkpt lat="43.62659" lon="6.3751">
        <ele>659.6</ele>
        <time>2016-09-26T08:51:50Z</time>
      </trkpt>
      <trkpt lat="43.62661" lon="6.37504">
        <ele>659.6</ele>
        <time>2016-09-26T08:51:54Z</time>
      </trkpt>
      <trkpt lat="43.62664" lon="6.37491">
        <ele>658.64</ele>
        <time>2016-09-26T08:52:03Z</time>
      </trkpt>
      <trkpt lat="43.62664" lon="6.37485">
        <ele>658.64</ele>
        <time>2016-09-26T08:52:06Z</time>
      </trkpt>
      <trkpt lat="43.62664" lon="6.37471">
        <ele>657.68</ele>
        <time>2016-09-26T08:52:14Z</time>
      </trkpt>
      <trkpt lat="43.62667" lon="6.37455">
        <ele>656.72</ele>
        <time>2016-09-26T08:52:27Z</time>
      </trkpt>
      <trkpt lat="43.62666" lon="6.37445">
        <ele>656.24</ele>
        <time>2016-09-26T08:52:42Z</time>
      </trkpt>
      <trkpt lat="43.62666" lon="6.37445">
        <ele>656.24</ele>
        <time>2016-09-26T08:52:58Z</time>
      </trkpt>
      <trkpt lat="43.62668" lon="6.37447">
        <ele>656.24</ele>
        <time>2016-09-26T08:53:24Z</time>
      </trkpt>
      <trkpt lat="43.62667" lon="6.37446">
        <ele>656.24</ele>
        <time>2016-09-26T08:53:44Z</time>
      </trkpt>
      <trkpt lat="43.62667" lon="6.37446">
        <ele>655.76</ele>
        <time>2016-09-26T08:54:09Z</time>
      </trkpt>
      <trkpt lat="43.62668" lon="6.37441">
        <ele>656.24</ele>
        <time>2016-09-26T08:54:28Z</time>
      </trkpt>
      <trkpt lat="43.62676" lon="6.37423">
        <ele>654.8</ele>
        <time>2016-09-26T08:54:42Z</time>
      </trkpt>
      <trkpt lat="43.62677" lon="6.37416">
        <ele>654.8</ele>
        <time>2016-09-26T08:54:46Z</time>
      </trkpt>
      <trkpt lat="43.62679" lon="6.37399">
        <ele>653.83</ele>
        <time>2016-09-26T08:54:57Z</time>
      </trkpt>
      <trkpt lat="43.6268" lon="6.37391">
        <ele>652.87</ele>
        <time>2016-09-26T08:55:02Z</time>
      </trkpt>
      <trkpt lat="43.62684" lon="6.37367">
        <ele>650.95</ele>
        <time>2016-09-26T08:55:19Z</time>
      </trkpt>
      <trkpt lat="43.62685" lon="6.3734">
        <ele>649.51</ele>
        <time>2016-09-26T08:55:35Z</time>
      </trkpt>
      <trkpt lat="43.62685" lon="6.37338">
        <ele>649.99</ele>
        <time>2016-09-26T08:55:36Z</time>
      </trkpt>
      <trkpt lat="43.62685" lon="6.37311">
        <ele>648.07</ele>
        <time>2016-09-26T08:55:52Z</time>
      </trkpt>
      <trkpt lat="43.62687" lon="6.37289">
        <ele>646.62</ele>
        <time>2016-09-26T08:56:06Z</time>
      </trkpt>
      <trkpt lat="43.6269" lon="6.37268">
        <ele>645.66</ele>
        <time>2016-09-26T08:56:19Z</time>
      </trkpt>
      <trkpt lat="43.6269" lon="6.37267">
        <ele>645.66</ele>
        <time>2016-09-26T08:56:20Z</time>
      </trkpt>
      <trkpt lat="43.62693" lon="6.37253">
        <ele>645.18</ele>
        <time>2016-09-26T08:56:28Z</time>
      </trkpt>
      <trkpt lat="43.62694" lon="6.37235">
        <ele>644.7</ele>
        <time>2016-09-26T08:56:37Z</time>
      </trkpt>
      <trkpt lat="43.62693" lon="6.37213">
        <ele>643.26</ele>
        <time>2016-09-26T08:56:49Z</time>
      </trkpt>
      <trkpt lat="43.62691" lon="6.3718">
        <ele>643.26</ele>
        <time>2016-09-26T08:57:07Z</time>
      </trkpt>
      <trkpt lat="43.6269" lon="6.37151">
        <ele>642.78</ele>
        <time>2016-09-26T08:57:22Z</time>
      </trkpt>
      <trkpt lat="43.62692" lon="6.37129">
        <ele>642.3</ele>
        <time>2016-09-26T08:57:36Z</time>
      </trkpt>
      <trkpt lat="43.62692" lon="6.37107">
        <ele>641.82</ele>
        <time>2016-09-26T08:57:48Z</time>
      </trkpt>
      <trkpt lat="43.62691" lon="6.37093">
        <ele>641.34</ele>
        <time>2016-09-26T08:57:55Z</time>
      </trkpt>
      <trkpt lat="43.62693" lon="6.37087">
        <ele>640.86</ele>
        <time>2016-09-26T08:57:59Z</time>
      </trkpt>
      <trkpt lat="43.62691" lon="6.37062">
        <ele>640.86</ele>
        <time>2016-09-26T08:58:12Z</time>
      </trkpt>
      <trkpt lat="43.62692" lon="6.3704">
        <ele>639.89</ele>
        <time>2016-09-26T08:58:25Z</time>
      </trkpt>
      <trkpt lat="43.62694" lon="6.37016">
        <ele>639.41</ele>
        <time>2016-09-26T08:58:38Z</time>
      </trkpt>
      <trkpt lat="43.62696" lon="6.36998">
        <ele>638.45</ele>
        <time>2016-09-26T08:58:49Z</time>
      </trkpt>
      <trkpt lat="43.62697" lon="6.36991">
        <ele>637.97</ele>
        <time>2016-09-26T08:58:53Z</time>
      </trkpt>
      <trkpt lat="43.627" lon="6.36985">
        <ele>637.49</ele>
        <time>2016-09-26T08:58:57Z</time>
      </trkpt>
      <trkpt lat="43.627" lon="6.3698">
        <ele>637.49</ele>
        <time>2016-09-26T08:59:00Z</time>
      </trkpt>
      <trkpt lat="43.62704" lon="6.36955">
        <ele>637.01</ele>
        <time>2016-09-26T08:59:14Z</time>
      </trkpt>
      <trkpt lat="43.62708" lon="6.36933">
        <ele>636.53</ele>
        <time>2016-09-26T08:59:28Z</time>
      </trkpt>
      <trkpt lat="43.62712" lon="6.36918">
        <ele>636.53</ele>
        <time>2016-09-26T08:59:37Z</time>
      </trkpt>
      <trkpt lat="43.62718" lon="6.36894">
        <ele>637.01</ele>
        <time>2016-09-26T08:59:51Z</time>
      </trkpt>
      <trkpt lat="43.62725" lon="6.36869">
        <ele>637.01</ele>
        <time>2016-09-26T09:00:07Z</time>
      </trkpt>
      <trkpt lat="43.62732" lon="6.36845">
        <ele>636.53</ele>
        <time>2016-09-26T09:00:22Z</time>
      </trkpt>
      <trkpt lat="43.62735" lon="6.36835">
        <ele>636.53</ele>
        <time>2016-09-26T09:00:28Z</time>
      </trkpt>
      <trkpt lat="43.62743" lon="6.36815">
        <ele>636.05</ele>
        <time>2016-09-26T09:00:41Z</time>
      </trkpt>
      <trkpt lat="43.62752" lon="6.36793">
        <ele>636.53</ele>
        <time>2016-09-26T09:00:57Z</time>
      </trkpt>
      <trkpt lat="43.62758" lon="6.36767">
        <ele>636.53</ele>
        <time>2016-09-26T09:01:12Z</time>
      </trkpt>
      <trkpt lat="43.62758" lon="6.36759">
        <ele>636.53</ele>
        <time>2016-09-26T09:01:16Z</time>
      </trkpt>
      <trkpt lat="43.62763" lon="6.36734">
        <ele>637.97</ele>
        <time>2016-09-26T09:01:32Z</time>
      </trkpt>
      <trkpt lat="43.62764" lon="6.36728">
        <ele>638.45</ele>
        <time>2016-09-26T09:01:36Z</time>
      </trkpt>
      <trkpt lat="43.62766" lon="6.36719">
        <ele>639.89</ele>
        <time>2016-09-26T09:01:42Z</time>
      </trkpt>
      <trkpt lat="43.62776" lon="6.36697">
        <ele>640.38</ele>
        <time>2016-09-26T09:01:58Z</time>
      </trkpt>
      <trkpt lat="43.62777" lon="6.36694">
        <ele>640.38</ele>
        <time>2016-09-26T09:02:00Z</time>
      </trkpt>
      <trkpt lat="43.62786" lon="6.36672">
        <ele>641.82</ele>
        <time>2016-09-26T09:02:15Z</time>
      </trkpt>
      <trkpt lat="43.62794" lon="6.36648">
        <ele>643.26</ele>
        <time>2016-09-26T09:02:31Z</time>
      </trkpt>
      <trkpt lat="43.62804" lon="6.36629">
        <ele>644.22</ele>
        <time>2016-09-26T09:02:46Z</time>
      </trkpt>
      <trkpt lat="43.6281" lon="6.36611">
        <ele>646.14</ele>
        <time>2016-09-26T09:02:59Z</time>
      </trkpt>
      <trkpt lat="43.62811" lon="6.36602">
        <ele>646.14</ele>
        <time>2016-09-26T09:03:06Z</time>
      </trkpt>
      <trkpt lat="43.62817" lon="6.36582">
        <ele>646.14</ele>
        <time>2016-09-26T09:03:20Z</time>
      </trkpt>
      <trkpt lat="43.62816" lon="6.36577">
        <ele>645.66</ele>
        <time>2016-09-26T09:03:34Z</time>
      </trkpt>
      <trkpt lat="43.62816" lon="6.36577">
        <ele>646.14</ele>
        <time>2016-09-26T09:03:38Z</time>
      </trkpt>
      <trkpt lat="43.62818" lon="6.36575">
        <ele>645.66</ele>
        <time>2016-09-26T09:03:41Z</time>
      </trkpt>
      <trkpt lat="43.62821" lon="6.36553">
        <ele>646.14</ele>
        <time>2016-09-26T09:03:55Z</time>
      </trkpt>
      <trkpt lat="43.62823" lon="6.36525">
        <ele>646.62</ele>
        <time>2016-09-26T09:04:11Z</time>
      </trkpt>
      <trkpt lat="43.62829" lon="6.36498">
        <ele>645.66</ele>
        <time>2016-09-26T09:04:28Z</time>
      </trkpt>
      <trkpt lat="43.62835" lon="6.36473">
        <ele>645.66</ele>
        <time>2016-09-26T09:04:43Z</time>
      </trkpt>
      <trkpt lat="43.62834" lon="6.36446">
        <ele>645.18</ele>
        <time>2016-09-26T09:04:57Z</time>
      </trkpt>
      <trkpt lat="43.62819" lon="6.36425">
        <ele>645.18</ele>
        <time>2016-09-26T09:05:12Z</time>
      </trkpt>
      <trkpt lat="43.62794" lon="6.36419">
        <ele>646.14</ele>
        <time>2016-09-26T09:05:30Z</time>
      </trkpt>
      <trkpt lat="43.62785" lon="6.36408">
        <ele>646.62</ele>
        <time>2016-09-26T09:05:40Z</time>
      </trkpt>
      <trkpt lat="43.6278" lon="6.36405">
        <ele>646.62</ele>
        <time>2016-09-26T09:05:45Z</time>
      </trkpt>
      <trkpt lat="43.62765" lon="6.36391">
        <ele>645.18</ele>
        <time>2016-09-26T09:06:02Z</time>
      </trkpt>
      <trkpt lat="43.62765" lon="6.3639">
        <ele>644.7</ele>
        <time>2016-09-26T09:06:06Z</time>
      </trkpt>
      <trkpt lat="43.62758" lon="6.36367">
        <ele>644.7</ele>
        <time>2016-09-26T09:06:21Z</time>
      </trkpt>
      <trkpt lat="43.62754" lon="6.36363">
        <ele>645.18</ele>
        <time>2016-09-26T09:06:38Z</time>
      </trkpt>
      <trkpt lat="43.62754" lon="6.36363">
        <ele>644.7</ele>
        <time>2016-09-26T09:07:02Z</time>
      </trkpt>
      <trkpt lat="43.62751" lon="6.36361">
        <ele>645.18</ele>
        <time>2016-09-26T09:07:26Z</time>
      </trkpt>
      <trkpt lat="43.62752" lon="6.3636">
        <ele>645.18</ele>
        <time>2016-09-26T09:07:41Z</time>
      </trkpt>
      <trkpt lat="43.6275" lon="6.3636">
        <ele>645.18</ele>
        <time>2016-09-26T09:08:09Z</time>
      </trkpt>
      <trkpt lat="43.62749" lon="6.36359">
        <ele>645.18</ele>
        <time>2016-09-26T09:08:44Z</time>
      </trkpt>
      <trkpt lat="43.62748" lon="6.36359">
        <ele>645.18</ele>
        <time>2016-09-26T09:09:11Z</time>
      </trkpt>
      <trkpt lat="43.62748" lon="6.36356">
        <ele>645.18</ele>
        <time>2016-09-26T09:09:40Z</time>
      </trkpt>
      <trkpt lat="43.62748" lon="6.36354">
        <ele>645.18</ele>
        <time>2016-09-26T09:10:08Z</time>
      </trkpt>
      <trkpt lat="43.62748" lon="6.36352">
        <ele>645.18</ele>
        <time>2016-09-26T09:10:33Z</time>
      </trkpt>
      <trkpt lat="43.62748" lon="6.36351">
        <ele>645.18</ele>
        <time>2016-09-26T09:10:59Z</time>
      </trkpt>
      <trkpt lat="43.62748" lon="6.36351">
        <ele>644.7</ele>
        <time>2016-09-26T09:11:32Z</time>
      </trkpt>
      <trkpt lat="43.6275" lon="6.36353">
        <ele>644.7</ele>
        <time>2016-09-26T09:11:58Z</time>
      </trkpt>
      <trkpt lat="43.62748" lon="6.36348">
        <ele>644.7</ele>
        <time>2016-09-26T09:12:22Z</time>
      </trkpt>
      <trkpt lat="43.62742" lon="6.36338">
        <ele>643.74</ele>
        <time>2016-09-26T09:12:33Z</time>
      </trkpt>
      <trkpt lat="43.6273" lon="6.36331">
        <ele>642.78</ele>
        <time>2016-09-26T09:12:50Z</time>
      </trkpt>
      <trkpt lat="43.62727" lon="6.36331">
        <ele>642.3</ele>
        <time>2016-09-26T09:13:19Z</time>
      </trkpt>
      <trkpt lat="43.6272" lon="6.36332">
        <ele>642.3</ele>
        <time>2016-09-26T09:13:33Z</time>
      </trkpt>
      <trkpt lat="43.62709" lon="6.36332">
        <ele>642.3</ele>
        <time>2016-09-26T09:13:46Z</time>
      </trkpt>
      <trkpt lat="43.62695" lon="6.36339">
        <ele>641.34</ele>
        <time>2016-09-26T09:14:01Z</time>
      </trkpt>
      <trkpt lat="43.62681" lon="6.36351">
        <ele>640.38</ele>
        <time>2016-09-26T09:14:16Z</time>
      </trkpt>
      <trkpt lat="43.62664" lon="6.36364">
        <ele>639.41</ele>
        <time>2016-09-26T09:14:31Z</time>
      </trkpt>
      <trkpt lat="43.62661" lon="6.36366">
        <ele>638.93</ele>
        <time>2016-09-26T09:14:33Z</time>
      </trkpt>
      <trkpt lat="43.62647" lon="6.36383">
        <ele>637.49</ele>
        <time>2016-09-26T09:14:48Z</time>
      </trkpt>
      <trkpt lat="43.62644" lon="6.36386">
        <ele>637.49</ele>
        <time>2016-09-26T09:14:51Z</time>
      </trkpt>
      <trkpt lat="43.6264" lon="6.36392">
        <ele>637.49</ele>
        <time>2016-09-26T09:14:56Z</time>
      </trkpt>
      <trkpt lat="43.62636" lon="6.36398">
        <ele>637.01</ele>
        <time>2016-09-26T09:15:01Z</time>
      </trkpt>
      <trkpt lat="43.62633" lon="6.364">
        <ele>636.53</ele>
        <time>2016-09-26T09:15:03Z</time>
      </trkpt>
      <trkpt lat="43.62625" lon="6.36406">
        <ele>636.05</ele>
        <time>2016-09-26T09:15:11Z</time>
      </trkpt>
      <trkpt lat="43.62618" lon="6.36414">
        <ele>635.09</ele>
        <time>2016-09-26T09:15:18Z</time>
      </trkpt>
      <trkpt lat="43.62605" lon="6.36431">
        <ele>634.13</ele>
        <time>2016-09-26T09:15:32Z</time>
      </trkpt>
      <trkpt lat="43.626" lon="6.36438">
        <ele>633.65</ele>
        <time>2016-09-26T09:15:38Z</time>
      </trkpt>
      <trkpt lat="43.62593" lon="6.36444">
        <ele>633.65</ele>
        <time>2016-09-26T09:15:44Z</time>
      </trkpt>
      <trkpt lat="43.62592" lon="6.36446">
        <ele>633.17</ele>
        <time>2016-09-26T09:15:46Z</time>
      </trkpt>
      <trkpt lat="43.62587" lon="6.36448">
        <ele>632.68</ele>
        <time>2016-09-26T09:15:50Z</time>
      </trkpt>
      <trkpt lat="43.6257" lon="6.36453">
        <ele>631.72</ele>
        <time>2016-09-26T09:16:05Z</time>
      </trkpt>
      <trkpt lat="43.62557" lon="6.36449">
        <ele>631.24</ele>
        <time>2016-09-26T09:16:17Z</time>
      </trkpt>
      <trkpt lat="43.62549" lon="6.36446">
        <ele>630.28</ele>
        <time>2016-09-26T09:16:25Z</time>
      </trkpt>
      <trkpt lat="43.62546" lon="6.36445">
        <ele>630.76</ele>
        <time>2016-09-26T09:16:27Z</time>
      </trkpt>
      <trkpt lat="43.62537" lon="6.36441">
        <ele>629.8</ele>
        <time>2016-09-26T09:16:36Z</time>
      </trkpt>
      <trkpt lat="43.62516" lon="6.36432">
        <ele>628.84</ele>
        <time>2016-09-26T09:16:52Z</time>
      </trkpt>
      <trkpt lat="43.62496" lon="6.36426">
        <ele>627.88</ele>
        <time>2016-09-26T09:17:09Z</time>
      </trkpt>
      <trkpt lat="43.62474" lon="6.36418">
        <ele>626.92</ele>
        <time>2016-09-26T09:17:27Z</time>
      </trkpt>
      <trkpt lat="43.62456" lon="6.36412">
        <ele>626.92</ele>
        <time>2016-09-26T09:17:43Z</time>
      </trkpt>
      <trkpt lat="43.62436" lon="6.36405">
        <ele>624.51</ele>
        <time>2016-09-26T09:17:59Z</time>
      </trkpt>
      <trkpt lat="43.62415" lon="6.36394">
        <ele>623.07</ele>
        <time>2016-09-26T09:18:17Z</time>
      </trkpt>
      <trkpt lat="43.62398" lon="6.36387">
        <ele>622.11</ele>
        <time>2016-09-26T09:18:33Z</time>
      </trkpt>
      <trkpt lat="43.62392" lon="6.36385">
        <ele>622.11</ele>
        <time>2016-09-26T09:18:38Z</time>
      </trkpt>
      <trkpt lat="43.6238" lon="6.36397">
        <ele>622.11</ele>
        <time>2016-09-26T09:18:52Z</time>
      </trkpt>
      <trkpt lat="43.6238" lon="6.36399">
        <ele>622.11</ele>
        <time>2016-09-26T09:19:14Z</time>
      </trkpt>
      <trkpt lat="43.62381" lon="6.36401">
        <ele>622.11</ele>
        <time>2016-09-26T09:19:38Z</time>
      </trkpt>
      <trkpt lat="43.62381" lon="6.36403">
        <ele>622.11</ele>
        <time>2016-09-26T09:20:09Z</time>
      </trkpt>
      <trkpt lat="43.62379" lon="6.36407">
        <ele>622.11</ele>
        <time>2016-09-26T09:20:20Z</time>
      </trkpt>
      <trkpt lat="43.62378" lon="6.36419">
        <ele>622.11</ele>
        <time>2016-09-26T09:20:35Z</time>
      </trkpt>
      <trkpt lat="43.62377" lon="6.36428">
        <ele>622.11</ele>
        <time>2016-09-26T09:20:51Z</time>
      </trkpt>
      <trkpt lat="43.62376" lon="6.36434">
        <ele>621.15</ele>
        <time>2016-09-26T09:21:06Z</time>
      </trkpt>
      <trkpt lat="43.62377" lon="6.36435">
        <ele>621.63</ele>
        <time>2016-09-26T09:21:30Z</time>
      </trkpt>
      <trkpt lat="43.62377" lon="6.36437">
        <ele>621.63</ele>
        <time>2016-09-26T09:21:56Z</time>
      </trkpt>
      <trkpt lat="43.62377" lon="6.36438">
        <ele>621.63</ele>
        <time>2016-09-26T09:22:22Z</time>
      </trkpt>
      <trkpt lat="43.62378" lon="6.36442">
        <ele>621.15</ele>
        <time>2016-09-26T09:22:38Z</time>
      </trkpt>
      <trkpt lat="43.62379" lon="6.36447">
        <ele>621.15</ele>
        <time>2016-09-26T09:22:58Z</time>
      </trkpt>
      <trkpt lat="43.62379" lon="6.36452">
        <ele>621.15</ele>
        <time>2016-09-26T09:23:13Z</time>
      </trkpt>
      <trkpt lat="43.62379" lon="6.36455">
        <ele>621.15</ele>
        <time>2016-09-26T09:23:29Z</time>
      </trkpt>
      <trkpt lat="43.62378" lon="6.36456">
        <ele>621.63</ele>
        <time>2016-09-26T09:23:45Z</time>
      </trkpt>
      <trkpt lat="43.62379" lon="6.36457">
        <ele>621.15</ele>
        <time>2016-09-26T09:24:09Z</time>
      </trkpt>
      <trkpt lat="43.62378" lon="6.36457">
        <ele>621.15</ele>
        <time>2016-09-26T09:24:30Z</time>
      </trkpt>
      <trkpt lat="43.62378" lon="6.36457">
        <ele>621.15</ele>
        <time>2016-09-26T09:24:51Z</time>
      </trkpt>
      <trkpt lat="43.62381" lon="6.36462">
        <ele>621.15</ele>
        <time>2016-09-26T09:25:06Z</time>
      </trkpt>
      <trkpt lat="43.62397" lon="6.36505">
        <ele>620.67</ele>
        <time>2016-09-26T09:25:36Z</time>
      </trkpt>
      <trkpt lat="43.62401" lon="6.36497">
        <ele>621.15</ele>
        <time>2016-09-26T09:25:53Z</time>
      </trkpt>
      <trkpt lat="43.62386" lon="6.36464">
        <ele>621.15</ele>
        <time>2016-09-26T09:26:13Z</time>
      </trkpt>
      <trkpt lat="43.6238" lon="6.36453">
        <ele>621.15</ele>
        <time>2016-09-26T09:26:38Z</time>
      </trkpt>
      <trkpt lat="43.62377" lon="6.3645">
        <ele>621.15</ele>
        <time>2016-09-26T09:27:13Z</time>
      </trkpt>
      <trkpt lat="43.62377" lon="6.36449">
        <ele>621.15</ele>
        <time>2016-09-26T09:27:43Z</time>
      </trkpt>
      <trkpt lat="43.62375" lon="6.36448">
        <ele>621.15</ele>
        <time>2016-09-26T09:28:13Z</time>
      </trkpt>
      <trkpt lat="43.62377" lon="6.36449">
        <ele>621.15</ele>
        <time>2016-09-26T09:28:43Z</time>
      </trkpt>
      <trkpt lat="43.62377" lon="6.36449">
        <ele>621.15</ele>
        <time>2016-09-26T09:29:12Z</time>
      </trkpt>
      <trkpt lat="43.62377" lon="6.36449">
        <ele>621.63</ele>
        <time>2016-09-26T09:29:32Z</time>
      </trkpt>
      <trkpt lat="43.62377" lon="6.36449">
        <ele>618.26</ele>
        <time>2016-09-26T09:29:34Z</time>
      </trkpt>
      <trkpt lat="43.62376" lon="6.36449">
        <ele>623.55</ele>
        <time>2016-09-26T09:29:35Z</time>
      </trkpt>
      <trkpt lat="43.62376" lon="6.3645">
        <ele>621.15</ele>
        <time>2016-09-26T09:29:56Z</time>
      </trkpt>
      <trkpt lat="43.62375" lon="6.3645">
        <ele>621.15</ele>
        <time>2016-09-26T09:30:21Z</time>
      </trkpt>
      <trkpt lat="43.62376" lon="6.36449">
        <ele>621.63</ele>
        <time>2016-09-26T09:30:47Z</time>
      </trkpt>
      <trkpt lat="43.62376" lon="6.36449">
        <ele>621.63</ele>
        <time>2016-09-26T09:31:10Z</time>
      </trkpt>
      <trkpt lat="43.62375" lon="6.36447">
        <ele>621.63</ele>
        <time>2016-09-26T09:31:16Z</time>
      </trkpt>
      <trkpt lat="43.62373" lon="6.36438">
        <ele>621.63</ele>
        <time>2016-09-26T09:31:37Z</time>
      </trkpt>
      <trkpt lat="43.62377" lon="6.36444">
        <ele>621.63</ele>
        <time>2016-09-26T09:32:08Z</time>
      </trkpt>
      <trkpt lat="43.62376" lon="6.36443">
        <ele>621.63</ele>
        <time>2016-09-26T09:32:37Z</time>
      </trkpt>
      <trkpt lat="43.62375" lon="6.36443">
        <ele>622.11</ele>
        <time>2016-09-26T09:33:04Z</time>
      </trkpt>
      <trkpt lat="43.62376" lon="6.36444">
        <ele>622.11</ele>
        <time>2016-09-26T09:33:32Z</time>
      </trkpt>
      <trkpt lat="43.62377" lon="6.36445">
        <ele>622.11</ele>
        <time>2016-09-26T09:33:59Z</time>
      </trkpt>
      <trkpt lat="43.62376" lon="6.36446">
        <ele>622.11</ele>
        <time>2016-09-26T09:34:25Z</time>
      </trkpt>
      <trkpt lat="43.62377" lon="6.36447">
        <ele>621.63</ele>
        <time>2016-09-26T09:34:50Z</time>
      </trkpt>
      <trkpt lat="43.62379" lon="6.36447">
        <ele>622.11</ele>
        <time>2016-09-26T09:35:04Z</time>
      </trkpt>
      <trkpt lat="43.62379" lon="6.36447">
        <ele>622.11</ele>
        <time>2016-09-26T09:35:28Z</time>
      </trkpt>
      <trkpt lat="43.6238" lon="6.36451">
        <ele>622.11</ele>
        <time>2016-09-26T09:35:55Z</time>
      </trkpt>
      <trkpt lat="43.62381" lon="6.36453">
        <ele>622.59</ele>
        <time>2016-09-26T09:36:20Z</time>
      </trkpt>
      <trkpt lat="43.62381" lon="6.36453">
        <ele>622.59</ele>
        <time>2016-09-26T09:36:45Z</time>
      </trkpt>
      <trkpt lat="43.6238" lon="6.36453">
        <ele>622.59</ele>
        <time>2016-09-26T09:37:12Z</time>
      </trkpt>
      <trkpt lat="43.6238" lon="6.36453">
        <ele>622.59</ele>
        <time>2016-09-26T09:37:39Z</time>
      </trkpt>
      <trkpt lat="43.6238" lon="6.36452">
        <ele>622.59</ele>
        <time>2016-09-26T09:38:05Z</time>
      </trkpt>
      <trkpt lat="43.62381" lon="6.36453">
        <ele>623.07</ele>
        <time>2016-09-26T09:38:34Z</time>
      </trkpt>
      <trkpt lat="43.62381" lon="6.36453">
        <ele>623.07</ele>
        <time>2016-09-26T09:38:59Z</time>
      </trkpt>
      <trkpt lat="43.6238" lon="6.36452">
        <ele>623.55</ele>
        <time>2016-09-26T09:39:34Z</time>
      </trkpt>
      <trkpt lat="43.62381" lon="6.36454">
        <ele>623.55</ele>
        <time>2016-09-26T09:39:59Z</time>
      </trkpt>
      <trkpt lat="43.62381" lon="6.36454">
        <ele>623.55</ele>
        <time>2016-09-26T09:40:21Z</time>
      </trkpt>
      <trkpt lat="43.62385" lon="6.36448">
        <ele>624.51</ele>
        <time>2016-09-26T09:40:45Z</time>
      </trkpt>
      <trkpt lat="43.6239" lon="6.3644">
        <ele>624.51</ele>
        <time>2016-09-26T09:40:58Z</time>
      </trkpt>
      <trkpt lat="43.6239" lon="6.36437">
        <ele>624.51</ele>
        <time>2016-09-26T09:41:16Z</time>
      </trkpt>
      <trkpt lat="43.6239" lon="6.36433">
        <ele>624.51</ele>
        <time>2016-09-26T09:41:36Z</time>
      </trkpt>
      <trkpt lat="43.62389" lon="6.36431">
        <ele>624.03</ele>
        <time>2016-09-26T09:42:08Z</time>
      </trkpt>
      <trkpt lat="43.62388" lon="6.3643">
        <ele>624.03</ele>
        <time>2016-09-26T09:42:47Z</time>
      </trkpt>
      <trkpt lat="43.62389" lon="6.36431">
        <ele>624.03</ele>
        <time>2016-09-26T09:43:04Z</time>
      </trkpt>
      <trkpt lat="43.62388" lon="6.3643">
        <ele>624.03</ele>
        <time>2016-09-26T09:43:18Z</time>
      </trkpt>
      <trkpt lat="43.62388" lon="6.36431">
        <ele>624.03</ele>
        <time>2016-09-26T09:43:51Z</time>
      </trkpt>
      <trkpt lat="43.62388" lon="6.3643">
        <ele>624.03</ele>
        <time>2016-09-26T09:44:24Z</time>
      </trkpt>
      <trkpt lat="43.62387" lon="6.3643">
        <ele>624.03</ele>
        <time>2016-09-26T09:44:53Z</time>
      </trkpt>
      <trkpt lat="43.62387" lon="6.36427">
        <ele>624.03</ele>
        <time>2016-09-26T09:45:05Z</time>
      </trkpt>
      <trkpt lat="43.62387" lon="6.36429">
        <ele>624.03</ele>
        <time>2016-09-26T09:45:23Z</time>
      </trkpt>
      <trkpt lat="43.62387" lon="6.36429">
        <ele>624.03</ele>
        <time>2016-09-26T09:45:40Z</time>
      </trkpt>
      <trkpt lat="43.62385" lon="6.36429">
        <ele>624.03</ele>
        <time>2016-09-26T09:45:52Z</time>
      </trkpt>
      <trkpt lat="43.62381" lon="6.36441">
        <ele>623.55</ele>
        <time>2016-09-26T09:46:06Z</time>
      </trkpt>
      <trkpt lat="43.62383" lon="6.36446">
        <ele>623.07</ele>
        <time>2016-09-26T09:46:30Z</time>
      </trkpt>
      <trkpt lat="43.62383" lon="6.36446">
        <ele>623.55</ele>
        <time>2016-09-26T09:47:04Z</time>
      </trkpt>
      <trkpt lat="43.62382" lon="6.36447">
        <ele>623.55</ele>
        <time>2016-09-26T09:47:30Z</time>
      </trkpt>
      <trkpt lat="43.62381" lon="6.36448">
        <ele>623.55</ele>
        <time>2016-09-26T09:48:02Z</time>
      </trkpt>
      <trkpt lat="43.62381" lon="6.36449">
        <ele>623.55</ele>
        <time>2016-09-26T09:48:29Z</time>
      </trkpt>
      <trkpt lat="43.62381" lon="6.36449">
        <ele>623.55</ele>
        <time>2016-09-26T09:48:59Z</time>
      </trkpt>
      <trkpt lat="43.62381" lon="6.36449">
        <ele>624.03</ele>
        <time>2016-09-26T09:49:18Z</time>
      </trkpt>
      <trkpt lat="43.62387" lon="6.36441">
        <ele>624.51</ele>
        <time>2016-09-26T09:49:37Z</time>
      </trkpt>
      <trkpt lat="43.62388" lon="6.36439">
        <ele>624.51</ele>
        <time>2016-09-26T09:49:51Z</time>
      </trkpt>
      <trkpt lat="43.62388" lon="6.36436">
        <ele>624.03</ele>
        <time>2016-09-26T09:50:14Z</time>
      </trkpt>
      <trkpt lat="43.62389" lon="6.36435">
        <ele>624.03</ele>
        <time>2016-09-26T09:50:44Z</time>
      </trkpt>
      <trkpt lat="43.62389" lon="6.36434">
        <ele>624.03</ele>
        <time>2016-09-26T09:51:11Z</time>
      </trkpt>
      <trkpt lat="43.62389" lon="6.36434">
        <ele>624.03</ele>
        <time>2016-09-26T09:51:45Z</time>
      </trkpt>
      <trkpt lat="43.62387" lon="6.36433">
        <ele>624.03</ele>
        <time>2016-09-26T09:52:08Z</time>
      </trkpt>
      <trkpt lat="43.62386" lon="6.36432">
        <ele>623.55</ele>
        <time>2016-09-26T09:52:22Z</time>
      </trkpt>
      <trkpt lat="43.62384" lon="6.36431">
        <ele>623.55</ele>
        <time>2016-09-26T09:52:39Z</time>
      </trkpt>
      <trkpt lat="43.62384" lon="6.36432">
        <ele>623.55</ele>
        <time>2016-09-26T09:52:58Z</time>
      </trkpt>
      <trkpt lat="43.62384" lon="6.36432">
        <ele>623.55</ele>
        <time>2016-09-26T09:53:21Z</time>
      </trkpt>
      <trkpt lat="43.62383" lon="6.36432">
        <ele>623.07</ele>
        <time>2016-09-26T09:53:42Z</time>
      </trkpt>
      <trkpt lat="43.62383" lon="6.36431">
        <ele>623.07</ele>
        <time>2016-09-26T09:54:04Z</time>
      </trkpt>
      <trkpt lat="43.62383" lon="6.36431">
        <ele>623.07</ele>
        <time>2016-09-26T09:54:28Z</time>
      </trkpt>
      <trkpt lat="43.62383" lon="6.36431">
        <ele>623.07</ele>
        <time>2016-09-26T09:54:50Z</time>
      </trkpt>
      <trkpt lat="43.62382" lon="6.36431">
        <ele>623.55</ele>
        <time>2016-09-26T09:55:10Z</time>
      </trkpt>
      <trkpt lat="43.62382" lon="6.36425">
        <ele>623.07</ele>
        <time>2016-09-26T09:55:26Z</time>
      </trkpt>
      <trkpt lat="43.62383" lon="6.36418">
        <ele>623.07</ele>
        <time>2016-09-26T09:55:39Z</time>
      </trkpt>
      <trkpt lat="43.62383" lon="6.36403">
        <ele>623.07</ele>
        <time>2016-09-26T09:55:53Z</time>
      </trkpt>
      <trkpt lat="43.62384" lon="6.36389">
        <ele>622.59</ele>
        <time>2016-09-26T09:56:09Z</time>
      </trkpt>
      <trkpt lat="43.62384" lon="6.36383">
        <ele>622.11</ele>
        <time>2016-09-26T09:56:26Z</time>
      </trkpt>
      <trkpt lat="43.62381" lon="6.36381">
        <ele>621.63</ele>
        <time>2016-09-26T09:56:30Z</time>
      </trkpt>
      <trkpt lat="43.62379" lon="6.36381">
        <ele>621.63</ele>
        <time>2016-09-26T09:56:32Z</time>
      </trkpt>
      <trkpt lat="43.62357" lon="6.36372">
        <ele>620.19</ele>
        <time>2016-09-26T09:56:49Z</time>
      </trkpt>
      <trkpt lat="43.62342" lon="6.36373">
        <ele>618.75</ele>
        <time>2016-09-26T09:57:03Z</time>
      </trkpt>
      <trkpt lat="43.62323" lon="6.36371">
        <ele>619.23</ele>
        <time>2016-09-26T09:57:19Z</time>
      </trkpt>
      <trkpt lat="43.62314" lon="6.36368">
        <ele>620.19</ele>
        <time>2016-09-26T09:57:29Z</time>
      </trkpt>
      <trkpt lat="43.62311" lon="6.36347">
        <ele>621.63</ele>
        <time>2016-09-26T09:57:43Z</time>
      </trkpt>
      <trkpt lat="43.62309" lon="6.36321">
        <ele>622.11</ele>
        <time>2016-09-26T09:57:58Z</time>
      </trkpt>
      <trkpt lat="43.62309" lon="6.36312">
        <ele>622.11</ele>
        <time>2016-09-26T09:58:03Z</time>
      </trkpt>
      <trkpt lat="43.62312" lon="6.36287">
        <ele>622.11</ele>
        <time>2016-09-26T09:58:18Z</time>
      </trkpt>
      <trkpt lat="43.62318" lon="6.36267">
        <ele>622.11</ele>
        <time>2016-09-26T09:58:31Z</time>
      </trkpt>
      <trkpt lat="43.62323" lon="6.36245">
        <ele>622.59</ele>
        <time>2016-09-26T09:58:46Z</time>
      </trkpt>
      <trkpt lat="43.62324" lon="6.36242">
        <ele>622.59</ele>
        <time>2016-09-26T09:58:48Z</time>
      </trkpt>
      <trkpt lat="43.62329" lon="6.36228">
        <ele>622.59</ele>
        <time>2016-09-26T09:58:57Z</time>
      </trkpt>
      <trkpt lat="43.62341" lon="6.3621">
        <ele>623.07</ele>
        <time>2016-09-26T09:59:11Z</time>
      </trkpt>
      <trkpt lat="43.62344" lon="6.36206">
        <ele>623.55</ele>
        <time>2016-09-26T09:59:14Z</time>
      </trkpt>
      <trkpt lat="43.62354" lon="6.36185">
        <ele>623.55</ele>
        <time>2016-09-26T09:59:29Z</time>
      </trkpt>
      <trkpt lat="43.62362" lon="6.36167">
        <ele>623.55</ele>
        <time>2016-09-26T09:59:43Z</time>
      </trkpt>
      <trkpt lat="43.62368" lon="6.3616">
        <ele>623.55</ele>
        <time>2016-09-26T09:59:49Z</time>
      </trkpt>
      <trkpt lat="43.62372" lon="6.36156">
        <ele>623.55</ele>
        <time>2016-09-26T09:59:53Z</time>
      </trkpt>
      <trkpt lat="43.62382" lon="6.36137">
        <ele>623.55</ele>
        <time>2016-09-26T10:00:07Z</time>
      </trkpt>
      <trkpt lat="43.62384" lon="6.36132">
        <ele>623.55</ele>
        <time>2016-09-26T10:00:10Z</time>
      </trkpt>
      <trkpt lat="43.62386" lon="6.36119">
        <ele>623.55</ele>
        <time>2016-09-26T10:00:18Z</time>
      </trkpt>
      <trkpt lat="43.62388" lon="6.36104">
        <ele>624.03</ele>
        <time>2016-09-26T10:00:27Z</time>
      </trkpt>
      <trkpt lat="43.6239" lon="6.36076">
        <ele>624.51</ele>
        <time>2016-09-26T10:00:43Z</time>
      </trkpt>
      <trkpt lat="43.62393" lon="6.36054">
        <ele>624.99</ele>
        <time>2016-09-26T10:00:58Z</time>
      </trkpt>
      <trkpt lat="43.62399" lon="6.36043">
        <ele>624.99</ele>
        <time>2016-09-26T10:01:08Z</time>
      </trkpt>
      <trkpt lat="43.62399" lon="6.36022">
        <ele>625.47</ele>
        <time>2016-09-26T10:01:23Z</time>
      </trkpt>
      <trkpt lat="43.62397" lon="6.36019">
        <ele>625.47</ele>
        <time>2016-09-26T10:01:26Z</time>
      </trkpt>
      <trkpt lat="43.62392" lon="6.3601">
        <ele>625.96</ele>
        <time>2016-09-26T10:01:34Z</time>
      </trkpt>
      <trkpt lat="43.62389" lon="6.36008">
        <ele>625.96</ele>
        <time>2016-09-26T10:01:36Z</time>
      </trkpt>
      <trkpt lat="43.62378" lon="6.36">
        <ele>626.92</ele>
        <time>2016-09-26T10:01:50Z</time>
      </trkpt>
      <trkpt lat="43.62367" lon="6.35992">
        <ele>628.36</ele>
        <time>2016-09-26T10:02:07Z</time>
      </trkpt>
      <trkpt lat="43.62367" lon="6.35987">
        <ele>628.84</ele>
        <time>2016-09-26T10:02:11Z</time>
      </trkpt>
      <trkpt lat="43.62366" lon="6.35984">
        <ele>628.84</ele>
        <time>2016-09-26T10:02:13Z</time>
      </trkpt>
      <trkpt lat="43.62368" lon="6.35969">
        <ele>629.32</ele>
        <time>2016-09-26T10:02:25Z</time>
      </trkpt>
      <trkpt lat="43.62368" lon="6.35948">
        <ele>629.8</ele>
        <time>2016-09-26T10:02:40Z</time>
      </trkpt>
      <trkpt lat="43.62369" lon="6.35939">
        <ele>629.8</ele>
        <time>2016-09-26T10:02:46Z</time>
      </trkpt>
      <trkpt lat="43.62368" lon="6.35929">
        <ele>629.8</ele>
        <time>2016-09-26T10:02:53Z</time>
      </trkpt>
      <trkpt lat="43.62369" lon="6.35912">
        <ele>629.8</ele>
        <time>2016-09-26T10:03:06Z</time>
      </trkpt>
      <trkpt lat="43.6237" lon="6.35908">
        <ele>629.8</ele>
        <time>2016-09-26T10:03:10Z</time>
      </trkpt>
      <trkpt lat="43.6237" lon="6.35897">
        <ele>629.8</ele>
        <time>2016-09-26T10:03:17Z</time>
      </trkpt>
      <trkpt lat="43.6237" lon="6.35891">
        <ele>629.8</ele>
        <time>2016-09-26T10:03:20Z</time>
      </trkpt>
      <trkpt lat="43.62372" lon="6.35881">
        <ele>629.32</ele>
        <time>2016-09-26T10:03:27Z</time>
      </trkpt>
      <trkpt lat="43.62375" lon="6.35855">
        <ele>629.8</ele>
        <time>2016-09-26T10:03:44Z</time>
      </trkpt>
      <trkpt lat="43.6237" lon="6.35833">
        <ele>629.8</ele>
        <time>2016-09-26T10:03:58Z</time>
      </trkpt>
      <trkpt lat="43.62368" lon="6.35824">
        <ele>629.8</ele>
        <time>2016-09-26T10:04:05Z</time>
      </trkpt>
      <trkpt lat="43.62367" lon="6.35817">
        <ele>628.84</ele>
        <time>2016-09-26T10:04:09Z</time>
      </trkpt>
      <trkpt lat="43.62366" lon="6.35812">
        <ele>629.8</ele>
        <time>2016-09-26T10:04:13Z</time>
      </trkpt>
      <trkpt lat="43.62363" lon="6.35796">
        <ele>628.84</ele>
        <time>2016-09-26T10:04:21Z</time>
      </trkpt>
      <trkpt lat="43.62356" lon="6.35778">
        <ele>628.84</ele>
        <time>2016-09-26T10:04:33Z</time>
      </trkpt>
      <trkpt lat="43.62349" lon="6.3576">
        <ele>629.32</ele>
        <time>2016-09-26T10:04:45Z</time>
      </trkpt>
      <trkpt lat="43.62346" lon="6.35753">
        <ele>629.32</ele>
        <time>2016-09-26T10:04:50Z</time>
      </trkpt>
      <trkpt lat="43.62341" lon="6.35724">
        <ele>629.32</ele>
        <time>2016-09-26T10:05:09Z</time>
      </trkpt>
      <trkpt lat="43.62336" lon="6.35713">
        <ele>629.8</ele>
        <time>2016-09-26T10:05:18Z</time>
      </trkpt>
      <trkpt lat="43.62334" lon="6.35705">
        <ele>629.8</ele>
        <time>2016-09-26T10:05:23Z</time>
      </trkpt>
      <trkpt lat="43.62333" lon="6.35701">
        <ele>629.8</ele>
        <time>2016-09-26T10:05:26Z</time>
      </trkpt>
      <trkpt lat="43.62329" lon="6.35678">
        <ele>630.28</ele>
        <time>2016-09-26T10:05:40Z</time>
      </trkpt>
      <trkpt lat="43.62329" lon="6.35674">
        <ele>630.28</ele>
        <time>2016-09-26T10:05:42Z</time>
      </trkpt>
      <trkpt lat="43.62323" lon="6.35651">
        <ele>630.76</ele>
        <time>2016-09-26T10:05:56Z</time>
      </trkpt>
      <trkpt lat="43.6232" lon="6.35621">
        <ele>630.76</ele>
        <time>2016-09-26T10:06:13Z</time>
      </trkpt>
      <trkpt lat="43.62319" lon="6.35613">
        <ele>630.76</ele>
        <time>2016-09-26T10:06:18Z</time>
      </trkpt>
      <trkpt lat="43.62323" lon="6.35597">
        <ele>630.76</ele>
        <time>2016-09-26T10:06:30Z</time>
      </trkpt>
      <trkpt lat="43.62331" lon="6.35573">
        <ele>631.24</ele>
        <time>2016-09-26T10:06:46Z</time>
      </trkpt>
      <trkpt lat="43.62331" lon="6.3557">
        <ele>631.24</ele>
        <time>2016-09-26T10:06:48Z</time>
      </trkpt>
      <trkpt lat="43.62333" lon="6.3556">
        <ele>631.24</ele>
        <time>2016-09-26T10:06:54Z</time>
      </trkpt>
      <trkpt lat="43.62335" lon="6.35544">
        <ele>630.76</ele>
        <time>2016-09-26T10:07:03Z</time>
      </trkpt>
      <trkpt lat="43.62336" lon="6.3552">
        <ele>630.28</ele>
        <time>2016-09-26T10:07:17Z</time>
      </trkpt>
      <trkpt lat="43.62346" lon="6.35505">
        <ele>629.32</ele>
        <time>2016-09-26T10:07:29Z</time>
      </trkpt>
      <trkpt lat="43.62347" lon="6.35503">
        <ele>629.8</ele>
        <time>2016-09-26T10:07:31Z</time>
      </trkpt>
      <trkpt lat="43.62352" lon="6.35492">
        <ele>629.8</ele>
        <time>2016-09-26T10:07:43Z</time>
      </trkpt>
      <trkpt lat="43.62352" lon="6.35487">
        <ele>629.8</ele>
        <time>2016-09-26T10:07:59Z</time>
      </trkpt>
      <trkpt lat="43.62351" lon="6.35484">
        <ele>629.8</ele>
        <time>2016-09-26T10:08:06Z</time>
      </trkpt>
      <trkpt lat="43.62348" lon="6.3548">
        <ele>629.8</ele>
        <time>2016-09-26T10:08:09Z</time>
      </trkpt>
      <trkpt lat="43.62326" lon="6.35473">
        <ele>629.8</ele>
        <time>2016-09-26T10:08:25Z</time>
      </trkpt>
      <trkpt lat="43.62318" lon="6.35471">
        <ele>629.8</ele>
        <time>2016-09-26T10:08:34Z</time>
      </trkpt>
      <trkpt lat="43.62303" lon="6.35466">
        <ele>630.28</ele>
        <time>2016-09-26T10:08:47Z</time>
      </trkpt>
      <trkpt lat="43.62288" lon="6.35455">
        <ele>630.76</ele>
        <time>2016-09-26T10:08:59Z</time>
      </trkpt>
      <trkpt lat="43.62274" lon="6.35445">
        <ele>631.24</ele>
        <time>2016-09-26T10:09:12Z</time>
      </trkpt>
      <trkpt lat="43.6226" lon="6.35437">
        <ele>631.72</ele>
        <time>2016-09-26T10:09:28Z</time>
      </trkpt>
      <trkpt lat="43.62254" lon="6.35425">
        <ele>631.72</ele>
        <time>2016-09-26T10:09:43Z</time>
      </trkpt>
      <trkpt lat="43.62258" lon="6.35413">
        <ele>632.2</ele>
        <time>2016-09-26T10:09:54Z</time>
      </trkpt>
      <trkpt lat="43.62264" lon="6.35391">
        <ele>632.2</ele>
        <time>2016-09-26T10:10:09Z</time>
      </trkpt>
      <trkpt lat="43.62266" lon="6.35371">
        <ele>632.68</ele>
        <time>2016-09-26T10:10:22Z</time>
      </trkpt>
      <trkpt lat="43.62268" lon="6.3535">
        <ele>632.68</ele>
        <time>2016-09-26T10:10:37Z</time>
      </trkpt>
      <trkpt lat="43.62271" lon="6.35344">
        <ele>633.17</ele>
        <time>2016-09-26T10:10:41Z</time>
      </trkpt>
      <trkpt lat="43.6228" lon="6.3532">
        <ele>633.65</ele>
        <time>2016-09-26T10:10:59Z</time>
      </trkpt>
      <trkpt lat="43.62284" lon="6.35309">
        <ele>634.13</ele>
        <time>2016-09-26T10:11:12Z</time>
      </trkpt>
      <trkpt lat="43.62286" lon="6.35299">
        <ele>634.13</ele>
        <time>2016-09-26T10:11:22Z</time>
      </trkpt>
      <trkpt lat="43.62292" lon="6.35279">
        <ele>634.61</ele>
        <time>2016-09-26T10:11:36Z</time>
      </trkpt>
      <trkpt lat="43.62297" lon="6.35266">
        <ele>634.61</ele>
        <time>2016-09-26T10:11:46Z</time>
      </trkpt>
      <trkpt lat="43.62305" lon="6.35246">
        <ele>634.61</ele>
        <time>2016-09-26T10:12:00Z</time>
      </trkpt>
      <trkpt lat="43.62313" lon="6.35228">
        <ele>635.09</ele>
        <time>2016-09-26T10:12:14Z</time>
      </trkpt>
      <trkpt lat="43.62322" lon="6.35219">
        <ele>635.09</ele>
        <time>2016-09-26T10:12:24Z</time>
      </trkpt>
      <trkpt lat="43.62333" lon="6.35209">
        <ele>635.57</ele>
        <time>2016-09-26T10:12:38Z</time>
      </trkpt>
      <trkpt lat="43.62337" lon="6.35202">
        <ele>635.57</ele>
        <time>2016-09-26T10:12:44Z</time>
      </trkpt>
      <trkpt lat="43.6235" lon="6.35174">
        <ele>635.57</ele>
        <time>2016-09-26T10:13:03Z</time>
      </trkpt>
      <trkpt lat="43.6236" lon="6.35148">
        <ele>636.05</ele>
        <time>2016-09-26T10:13:20Z</time>
      </trkpt>
      <trkpt lat="43.62366" lon="6.35129">
        <ele>636.53</ele>
        <time>2016-09-26T10:13:34Z</time>
      </trkpt>
      <trkpt lat="43.62367" lon="6.35126">
        <ele>637.01</ele>
        <time>2016-09-26T10:13:36Z</time>
      </trkpt>
      <trkpt lat="43.62371" lon="6.35115">
        <ele>637.01</ele>
        <time>2016-09-26T10:13:43Z</time>
      </trkpt>
      <trkpt lat="43.62372" lon="6.35113">
        <ele>637.01</ele>
        <time>2016-09-26T10:13:45Z</time>
      </trkpt>
      <trkpt lat="43.6238" lon="6.35092">
        <ele>637.01</ele>
        <time>2016-09-26T10:14:00Z</time>
      </trkpt>
      <trkpt lat="43.62389" lon="6.35066">
        <ele>637.01</ele>
        <time>2016-09-26T10:14:18Z</time>
      </trkpt>
      <trkpt lat="43.62391" lon="6.35063">
        <ele>637.01</ele>
        <time>2016-09-26T10:14:21Z</time>
      </trkpt>
      <trkpt lat="43.62397" lon="6.35043">
        <ele>637.49</ele>
        <time>2016-09-26T10:14:35Z</time>
      </trkpt>
      <trkpt lat="43.62401" lon="6.35028">
        <ele>637.97</ele>
        <time>2016-09-26T10:14:45Z</time>
      </trkpt>
      <trkpt lat="43.62404" lon="6.35002">
        <ele>637.97</ele>
        <time>2016-09-26T10:15:00Z</time>
      </trkpt>
      <trkpt lat="43.62403" lon="6.34985">
        <ele>638.93</ele>
        <time>2016-09-26T10:15:13Z</time>
      </trkpt>
      <trkpt lat="43.62405" lon="6.3497">
        <ele>638.45</ele>
        <time>2016-09-26T10:15:22Z</time>
      </trkpt>
      <trkpt lat="43.62406" lon="6.34952">
        <ele>638.45</ele>
        <time>2016-09-26T10:15:34Z</time>
      </trkpt>
      <trkpt lat="43.6241" lon="6.34936">
        <ele>638.45</ele>
        <time>2016-09-26T10:15:46Z</time>
      </trkpt>
      <trkpt lat="43.62411" lon="6.34924">
        <ele>638.93</ele>
        <time>2016-09-26T10:15:54Z</time>
      </trkpt>
      <trkpt lat="43.62414" lon="6.349">
        <ele>638.93</ele>
        <time>2016-09-26T10:16:08Z</time>
      </trkpt>
      <trkpt lat="43.62416" lon="6.34876">
        <ele>639.41</ele>
        <time>2016-09-26T10:16:23Z</time>
      </trkpt>
      <trkpt lat="43.62419" lon="6.34855">
        <ele>639.89</ele>
        <time>2016-09-26T10:16:37Z</time>
      </trkpt>
      <trkpt lat="43.62422" lon="6.3483">
        <ele>640.38</ele>
        <time>2016-09-26T10:16:52Z</time>
      </trkpt>
      <trkpt lat="43.62427" lon="6.34812">
        <ele>640.38</ele>
        <time>2016-09-26T10:17:05Z</time>
      </trkpt>
      <trkpt lat="43.6243" lon="6.34787">
        <ele>640.38</ele>
        <time>2016-09-26T10:17:20Z</time>
      </trkpt>
      <trkpt lat="43.62432" lon="6.34767">
        <ele>640.86</ele>
        <time>2016-09-26T10:17:33Z</time>
      </trkpt>
      <trkpt lat="43.62433" lon="6.34739">
        <ele>641.82</ele>
        <time>2016-09-26T10:17:50Z</time>
      </trkpt>
      <trkpt lat="43.62436" lon="6.34719">
        <ele>642.3</ele>
        <time>2016-09-26T10:18:04Z</time>
      </trkpt>
      <trkpt lat="43.62441" lon="6.34711">
        <ele>642.3</ele>
        <time>2016-09-26T10:18:17Z</time>
      </trkpt>
      <trkpt lat="43.62445" lon="6.34711">
        <ele>642.3</ele>
        <time>2016-09-26T10:18:22Z</time>
      </trkpt>
      <trkpt lat="43.62458" lon="6.34713">
        <ele>641.82</ele>
        <time>2016-09-26T10:18:33Z</time>
      </trkpt>
      <trkpt lat="43.62464" lon="6.34711">
        <ele>641.82</ele>
        <time>2016-09-26T10:18:38Z</time>
      </trkpt>
      <trkpt lat="43.6247" lon="6.34696">
        <ele>641.82</ele>
        <time>2016-09-26T10:18:48Z</time>
      </trkpt>
      <trkpt lat="43.6247" lon="6.34679">
        <ele>641.34</ele>
        <time>2016-09-26T10:18:58Z</time>
      </trkpt>
      <trkpt lat="43.62474" lon="6.34656">
        <ele>641.82</ele>
        <time>2016-09-26T10:19:15Z</time>
      </trkpt>
      <trkpt lat="43.62473" lon="6.34645">
        <ele>642.3</ele>
        <time>2016-09-26T10:19:22Z</time>
      </trkpt>
      <trkpt lat="43.62472" lon="6.34635">
        <ele>642.3</ele>
        <time>2016-09-26T10:19:28Z</time>
      </trkpt>
      <trkpt lat="43.62473" lon="6.34603">
        <ele>644.22</ele>
        <time>2016-09-26T10:19:46Z</time>
      </trkpt>
      <trkpt lat="43.62469" lon="6.34579">
        <ele>644.7</ele>
        <time>2016-09-26T10:20:02Z</time>
      </trkpt>
      <trkpt lat="43.62468" lon="6.34552">
        <ele>645.18</ele>
        <time>2016-09-26T10:20:18Z</time>
      </trkpt>
      <trkpt lat="43.62468" lon="6.34518">
        <ele>646.62</ele>
        <time>2016-09-26T10:20:37Z</time>
      </trkpt>
      <trkpt lat="43.62469" lon="6.34489">
        <ele>647.1</ele>
        <time>2016-09-26T10:20:54Z</time>
      </trkpt>
      <trkpt lat="43.62469" lon="6.34483">
        <ele>647.1</ele>
        <time>2016-09-26T10:20:58Z</time>
      </trkpt>
      <trkpt lat="43.62474" lon="6.34454">
        <ele>647.59</ele>
        <time>2016-09-26T10:21:15Z</time>
      </trkpt>
      <trkpt lat="43.6248" lon="6.34428">
        <ele>648.07</ele>
        <time>2016-09-26T10:21:32Z</time>
      </trkpt>
      <trkpt lat="43.62491" lon="6.344">
        <ele>648.07</ele>
        <time>2016-09-26T10:21:51Z</time>
      </trkpt>
      <trkpt lat="43.62494" lon="6.34392">
        <ele>648.07</ele>
        <time>2016-09-26T10:21:57Z</time>
      </trkpt>
      <trkpt lat="43.62497" lon="6.34382">
        <ele>648.07</ele>
        <time>2016-09-26T10:22:03Z</time>
      </trkpt>
      <trkpt lat="43.62498" lon="6.34368">
        <ele>648.07</ele>
        <time>2016-09-26T10:22:10Z</time>
      </trkpt>
      <trkpt lat="43.62497" lon="6.34345">
        <ele>648.55</ele>
        <time>2016-09-26T10:22:25Z</time>
      </trkpt>
      <trkpt lat="43.62484" lon="6.34329">
        <ele>649.03</ele>
        <time>2016-09-26T10:22:41Z</time>
      </trkpt>
      <trkpt lat="43.62467" lon="6.34316">
        <ele>649.51</ele>
        <time>2016-09-26T10:22:58Z</time>
      </trkpt>
      <trkpt lat="43.6245" lon="6.34305">
        <ele>649.99</ele>
        <time>2016-09-26T10:23:13Z</time>
      </trkpt>
      <trkpt lat="43.62433" lon="6.34293">
        <ele>650.95</ele>
        <time>2016-09-26T10:23:30Z</time>
      </trkpt>
      <trkpt lat="43.62418" lon="6.3428">
        <ele>650.95</ele>
        <time>2016-09-26T10:23:46Z</time>
      </trkpt>
      <trkpt lat="43.62406" lon="6.3427">
        <ele>650.95</ele>
        <time>2016-09-26T10:23:59Z</time>
      </trkpt>
      <trkpt lat="43.62402" lon="6.34268">
        <ele>651.43</ele>
        <time>2016-09-26T10:24:03Z</time>
      </trkpt>
      <trkpt lat="43.62387" lon="6.34256">
        <ele>651.91</ele>
        <time>2016-09-26T10:24:19Z</time>
      </trkpt>
      <trkpt lat="43.6237" lon="6.34243">
        <ele>652.39</ele>
        <time>2016-09-26T10:24:35Z</time>
      </trkpt>
      <trkpt lat="43.62359" lon="6.34224">
        <ele>653.83</ele>
        <time>2016-09-26T10:24:52Z</time>
      </trkpt>
      <trkpt lat="43.62368" lon="6.34214">
        <ele>653.35</ele>
        <time>2016-09-26T10:25:08Z</time>
      </trkpt>
      <trkpt lat="43.62375" lon="6.34206">
        <ele>653.35</ele>
        <time>2016-09-26T10:25:20Z</time>
      </trkpt>
      <trkpt lat="43.62378" lon="6.34201">
        <ele>653.35</ele>
        <time>2016-09-26T10:25:24Z</time>
      </trkpt>
      <trkpt lat="43.62388" lon="6.34188">
        <ele>653.83</ele>
        <time>2016-09-26T10:25:37Z</time>
      </trkpt>
      <trkpt lat="43.62391" lon="6.3417">
        <ele>655.28</ele>
        <time>2016-09-26T10:25:50Z</time>
      </trkpt>
      <trkpt lat="43.62385" lon="6.34161">
        <ele>654.8</ele>
        <time>2016-09-26T10:26:04Z</time>
      </trkpt>
      <trkpt lat="43.62384" lon="6.3416">
        <ele>654.8</ele>
        <time>2016-09-26T10:26:26Z</time>
      </trkpt>
      <trkpt lat="43.62382" lon="6.34158">
        <ele>654.31</ele>
        <time>2016-09-26T10:26:55Z</time>
      </trkpt>
      <trkpt lat="43.62378" lon="6.34147">
        <ele>655.28</ele>
        <time>2016-09-26T10:27:07Z</time>
      </trkpt>
      <trkpt lat="43.62377" lon="6.34143">
        <ele>655.76</ele>
        <time>2016-09-26T10:27:19Z</time>
      </trkpt>
      <trkpt lat="43.62374" lon="6.34138">
        <ele>656.24</ele>
        <time>2016-09-26T10:27:29Z</time>
      </trkpt>
      <trkpt lat="43.62372" lon="6.34131">
        <ele>656.72</ele>
        <time>2016-09-26T10:27:43Z</time>
      </trkpt>
      <trkpt lat="43.62366" lon="6.34116">
        <ele>657.68</ele>
        <time>2016-09-26T10:27:56Z</time>
      </trkpt>
      <trkpt lat="43.62359" lon="6.34101">
        <ele>658.64</ele>
        <time>2016-09-26T10:28:09Z</time>
      </trkpt>
      <trkpt lat="43.62347" lon="6.34085">
        <ele>660.08</ele>
        <time>2016-09-26T10:28:23Z</time>
      </trkpt>
      <trkpt lat="43.62339" lon="6.34072">
        <ele>661.04</ele>
        <time>2016-09-26T10:28:36Z</time>
      </trkpt>
      <trkpt lat="43.62327" lon="6.34057">
        <ele>661.52</ele>
        <time>2016-09-26T10:28:50Z</time>
      </trkpt>
      <trkpt lat="43.62323" lon="6.34042">
        <ele>662.01</ele>
        <time>2016-09-26T10:29:01Z</time>
      </trkpt>
      <trkpt lat="43.62321" lon="6.34036">
        <ele>662.01</ele>
        <time>2016-09-26T10:29:05Z</time>
      </trkpt>
      <trkpt lat="43.62321" lon="6.3402">
        <ele>662.49</ele>
        <time>2016-09-26T10:29:15Z</time>
      </trkpt>
      <trkpt lat="43.6232" lon="6.34003">
        <ele>663.45</ele>
        <time>2016-09-26T10:29:27Z</time>
      </trkpt>
      <trkpt lat="43.62323" lon="6.33979">
        <ele>664.41</ele>
        <time>2016-09-26T10:29:42Z</time>
      </trkpt>
      <trkpt lat="43.62325" lon="6.33968">
        <ele>664.89</ele>
        <time>2016-09-26T10:29:49Z</time>
      </trkpt>
      <trkpt lat="43.62326" lon="6.33965">
        <ele>665.85</ele>
        <time>2016-09-26T10:29:51Z</time>
      </trkpt>
      <trkpt lat="43.62329" lon="6.33953">
        <ele>665.37</ele>
        <time>2016-09-26T10:29:59Z</time>
      </trkpt>
      <trkpt lat="43.6233" lon="6.3395">
        <ele>665.37</ele>
        <time>2016-09-26T10:30:01Z</time>
      </trkpt>
      <trkpt lat="43.6233" lon="6.33926">
        <ele>666.33</ele>
        <time>2016-09-26T10:30:15Z</time>
      </trkpt>
      <trkpt lat="43.62326" lon="6.33902">
        <ele>667.29</ele>
        <time>2016-09-26T10:30:30Z</time>
      </trkpt>
      <trkpt lat="43.62323" lon="6.33889">
        <ele>667.29</ele>
        <time>2016-09-26T10:30:38Z</time>
      </trkpt>
      <trkpt lat="43.62322" lon="6.33872">
        <ele>668.25</ele>
        <time>2016-09-26T10:30:49Z</time>
      </trkpt>
      <trkpt lat="43.62315" lon="6.33848">
        <ele>669.7</ele>
        <time>2016-09-26T10:31:05Z</time>
      </trkpt>
      <trkpt lat="43.62311" lon="6.3383">
        <ele>670.66</ele>
        <time>2016-09-26T10:31:17Z</time>
      </trkpt>
      <trkpt lat="43.6231" lon="6.33828">
        <ele>670.66</ele>
        <time>2016-09-26T10:31:18Z</time>
      </trkpt>
      <trkpt lat="43.62303" lon="6.33804">
        <ele>671.14</ele>
        <time>2016-09-26T10:31:33Z</time>
      </trkpt>
      <trkpt lat="43.62294" lon="6.3379">
        <ele>671.14</ele>
        <time>2016-09-26T10:31:45Z</time>
      </trkpt>
      <trkpt lat="43.6229" lon="6.33789">
        <ele>671.62</ele>
        <time>2016-09-26T10:31:48Z</time>
      </trkpt>
      <trkpt lat="43.62285" lon="6.33788">
        <ele>671.62</ele>
        <time>2016-09-26T10:31:53Z</time>
      </trkpt>
      <trkpt lat="43.62279" lon="6.33785">
        <ele>671.62</ele>
        <time>2016-09-26T10:31:57Z</time>
      </trkpt>
      <trkpt lat="43.62266" lon="6.33777">
        <ele>672.1</ele>
        <time>2016-09-26T10:32:09Z</time>
      </trkpt>
      <trkpt lat="43.62257" lon="6.33769">
        <ele>672.1</ele>
        <time>2016-09-26T10:32:17Z</time>
      </trkpt>
      <trkpt lat="43.62234" lon="6.3376">
        <ele>672.58</ele>
        <time>2016-09-26T10:32:33Z</time>
      </trkpt>
      <trkpt lat="43.6222" lon="6.33757">
        <ele>672.58</ele>
        <time>2016-09-26T10:32:45Z</time>
      </trkpt>
      <trkpt lat="43.62214" lon="6.33753">
        <ele>673.06</ele>
        <time>2016-09-26T10:32:53Z</time>
      </trkpt>
      <trkpt lat="43.62201" lon="6.33739">
        <ele>673.06</ele>
        <time>2016-09-26T10:33:10Z</time>
      </trkpt>
      <trkpt lat="43.62199" lon="6.33735">
        <ele>673.06</ele>
        <time>2016-09-26T10:33:24Z</time>
      </trkpt>
      <trkpt lat="43.622" lon="6.33733">
        <ele>673.54</ele>
        <time>2016-09-26T10:33:35Z</time>
      </trkpt>
      <trkpt lat="43.62194" lon="6.33725">
        <ele>673.54</ele>
        <time>2016-09-26T10:33:42Z</time>
      </trkpt>
      <trkpt lat="43.62189" lon="6.33708">
        <ele>673.54</ele>
        <time>2016-09-26T10:33:56Z</time>
      </trkpt>
      <trkpt lat="43.62186" lon="6.33704">
        <ele>674.02</ele>
        <time>2016-09-26T10:33:59Z</time>
      </trkpt>
      <trkpt lat="43.62172" lon="6.33694">
        <ele>674.02</ele>
        <time>2016-09-26T10:34:11Z</time>
      </trkpt>
      <trkpt lat="43.62151" lon="6.3369">
        <ele>674.98</ele>
        <time>2016-09-26T10:34:27Z</time>
      </trkpt>
      <trkpt lat="43.6215" lon="6.33689">
        <ele>674.98</ele>
        <time>2016-09-26T10:34:28Z</time>
      </trkpt>
      <trkpt lat="43.62134" lon="6.33687">
        <ele>674.98</ele>
        <time>2016-09-26T10:34:41Z</time>
      </trkpt>
      <trkpt lat="43.62126" lon="6.33685">
        <ele>675.46</ele>
        <time>2016-09-26T10:34:55Z</time>
      </trkpt>
      <trkpt lat="43.62126" lon="6.33686">
        <ele>675.94</ele>
        <time>2016-09-26T10:35:14Z</time>
      </trkpt>
      <trkpt lat="43.62126" lon="6.33686">
        <ele>672.1</ele>
        <time>2016-09-26T10:35:15Z</time>
      </trkpt>
      <trkpt lat="43.62126" lon="6.33686">
        <ele>678.35</ele>
        <time>2016-09-26T10:35:16Z</time>
      </trkpt>
      <trkpt lat="43.62126" lon="6.33686">
        <ele>674.02</ele>
        <time>2016-09-26T10:35:18Z</time>
      </trkpt>
      <trkpt lat="43.62126" lon="6.33686">
        <ele>676.91</ele>
        <time>2016-09-26T10:35:19Z</time>
      </trkpt>
      <trkpt lat="43.62126" lon="6.33686">
        <ele>673.54</ele>
        <time>2016-09-26T10:35:30Z</time>
      </trkpt>
      <trkpt lat="43.62126" lon="6.33686">
        <ele>677.39</ele>
        <time>2016-09-26T10:35:31Z</time>
      </trkpt>
      <trkpt lat="43.62126" lon="6.33686">
        <ele>673.54</ele>
        <time>2016-09-26T10:35:34Z</time>
      </trkpt>
      <trkpt lat="43.62127" lon="6.33686">
        <ele>677.39</ele>
        <time>2016-09-26T10:35:35Z</time>
      </trkpt>
      <trkpt lat="43.62127" lon="6.33686">
        <ele>674.02</ele>
        <time>2016-09-26T10:35:36Z</time>
      </trkpt>
      <trkpt lat="43.62127" lon="6.33686">
        <ele>677.87</ele>
        <time>2016-09-26T10:35:37Z</time>
      </trkpt>
      <trkpt lat="43.62127" lon="6.33686">
        <ele>673.54</ele>
        <time>2016-09-26T10:35:40Z</time>
      </trkpt>
      <trkpt lat="43.62127" lon="6.33686">
        <ele>677.39</ele>
        <time>2016-09-26T10:35:41Z</time>
      </trkpt>
      <trkpt lat="43.62128" lon="6.33686">
        <ele>672.58</ele>
        <time>2016-09-26T10:36:05Z</time>
      </trkpt>
      <trkpt lat="43.62128" lon="6.33686">
        <ele>677.87</ele>
        <time>2016-09-26T10:36:06Z</time>
      </trkpt>
      <trkpt lat="43.62128" lon="6.33686">
        <ele>673.06</ele>
        <time>2016-09-26T10:36:09Z</time>
      </trkpt>
      <trkpt lat="43.62128" lon="6.33686">
        <ele>677.39</ele>
        <time>2016-09-26T10:36:10Z</time>
      </trkpt>
      <trkpt lat="43.62128" lon="6.33686">
        <ele>672.58</ele>
        <time>2016-09-26T10:36:20Z</time>
      </trkpt>
      <trkpt lat="43.62128" lon="6.33686">
        <ele>679.31</ele>
        <time>2016-09-26T10:36:21Z</time>
      </trkpt>
      <trkpt lat="43.62128" lon="6.33686">
        <ele>674.98</ele>
        <time>2016-09-26T10:36:22Z</time>
      </trkpt>
      <trkpt lat="43.62128" lon="6.33686">
        <ele>678.35</ele>
        <time>2016-09-26T10:36:25Z</time>
      </trkpt>
      <trkpt lat="43.62128" lon="6.33686">
        <ele>673.54</ele>
        <time>2016-09-26T10:36:26Z</time>
      </trkpt>
      <trkpt lat="43.62128" lon="6.33686">
        <ele>677.87</ele>
        <time>2016-09-26T10:36:28Z</time>
      </trkpt>
      <trkpt lat="43.62128" lon="6.33686">
        <ele>674.02</ele>
        <time>2016-09-26T10:36:29Z</time>
      </trkpt>
      <trkpt lat="43.62127" lon="6.33686">
        <ele>677.39</ele>
        <time>2016-09-26T10:36:36Z</time>
      </trkpt>
      <trkpt lat="43.62127" lon="6.33686">
        <ele>673.06</ele>
        <time>2016-09-26T10:36:37Z</time>
      </trkpt>
      <trkpt lat="43.62127" lon="6.33686">
        <ele>677.39</ele>
        <time>2016-09-26T10:36:38Z</time>
      </trkpt>
      <trkpt lat="43.62127" lon="6.33687">
        <ele>675.46</ele>
        <time>2016-09-26T10:36:54Z</time>
      </trkpt>
      <trkpt lat="43.62127" lon="6.33687">
        <ele>675.94</ele>
        <time>2016-09-26T10:37:22Z</time>
      </trkpt>
      <trkpt lat="43.62127" lon="6.33686">
        <ele>675.46</ele>
        <time>2016-09-26T10:37:53Z</time>
      </trkpt>
      <trkpt lat="43.62125" lon="6.33686">
        <ele>675.46</ele>
        <time>2016-09-26T10:38:32Z</time>
      </trkpt>
      <trkpt lat="43.62125" lon="6.33685">
        <ele>675.46</ele>
        <time>2016-09-26T10:39:05Z</time>
      </trkpt>
      <trkpt lat="43.62124" lon="6.33685">
        <ele>675.46</ele>
        <time>2016-09-26T10:39:24Z</time>
      </trkpt>
      <trkpt lat="43.62124" lon="6.33684">
        <ele>675.46</ele>
        <time>2016-09-26T10:39:32Z</time>
      </trkpt>
      <trkpt lat="43.62111" lon="6.3367">
        <ele>675.94</ele>
        <time>2016-09-26T10:39:48Z</time>
      </trkpt>
      <trkpt lat="43.62098" lon="6.33658">
        <ele>676.42</ele>
        <time>2016-09-26T10:40:03Z</time>
      </trkpt>
      <trkpt lat="43.62093" lon="6.33649">
        <ele>676.42</ele>
        <time>2016-09-26T10:40:10Z</time>
      </trkpt>
      <trkpt lat="43.6208" lon="6.33633">
        <ele>676.91</ele>
        <time>2016-09-26T10:40:26Z</time>
      </trkpt>
      <trkpt lat="43.62071" lon="6.33619">
        <ele>677.39</ele>
        <time>2016-09-26T10:40:40Z</time>
      </trkpt>
      <trkpt lat="43.62058" lon="6.33602">
        <ele>677.87</ele>
        <time>2016-09-26T10:40:54Z</time>
      </trkpt>
      <trkpt lat="43.62045" lon="6.33586">
        <ele>678.35</ele>
        <time>2016-09-26T10:41:09Z</time>
      </trkpt>
      <trkpt lat="43.62037" lon="6.33565">
        <ele>679.31</ele>
        <time>2016-09-26T10:41:25Z</time>
      </trkpt>
      <trkpt lat="43.62031" lon="6.33554">
        <ele>679.79</ele>
        <time>2016-09-26T10:41:35Z</time>
      </trkpt>
      <trkpt lat="43.6204" lon="6.33535">
        <ele>680.75</ele>
        <time>2016-09-26T10:41:51Z</time>
      </trkpt>
      <trkpt lat="43.62045" lon="6.33528">
        <ele>680.75</ele>
        <time>2016-09-26T10:41:57Z</time>
      </trkpt>
      <trkpt lat="43.62048" lon="6.33522">
        <ele>680.75</ele>
        <time>2016-09-26T10:42:01Z</time>
      </trkpt>
      <trkpt lat="43.62059" lon="6.33503">
        <ele>681.23</ele>
        <time>2016-09-26T10:42:16Z</time>
      </trkpt>
      <trkpt lat="43.62062" lon="6.335">
        <ele>680.75</ele>
        <time>2016-09-26T10:42:19Z</time>
      </trkpt>
      <trkpt lat="43.62067" lon="6.33488">
        <ele>681.23</ele>
        <time>2016-09-26T10:42:28Z</time>
      </trkpt>
      <trkpt lat="43.62068" lon="6.33485">
        <ele>681.23</ele>
        <time>2016-09-26T10:42:30Z</time>
      </trkpt>
      <trkpt lat="43.6207" lon="6.33483">
        <ele>681.23</ele>
        <time>2016-09-26T10:42:32Z</time>
      </trkpt>
      <trkpt lat="43.62073" lon="6.33478">
        <ele>680.75</ele>
        <time>2016-09-26T10:42:36Z</time>
      </trkpt>
      <trkpt lat="43.62087" lon="6.33456">
        <ele>681.23</ele>
        <time>2016-09-26T10:42:53Z</time>
      </trkpt>
      <trkpt lat="43.62093" lon="6.33445">
        <ele>681.23</ele>
        <time>2016-09-26T10:43:01Z</time>
      </trkpt>
      <trkpt lat="43.62104" lon="6.33427">
        <ele>681.71</ele>
        <time>2016-09-26T10:43:15Z</time>
      </trkpt>
      <trkpt lat="43.62109" lon="6.33419">
        <ele>681.23</ele>
        <time>2016-09-26T10:43:22Z</time>
      </trkpt>
      <trkpt lat="43.62117" lon="6.33406">
        <ele>681.23</ele>
        <time>2016-09-26T10:43:33Z</time>
      </trkpt>
      <trkpt lat="43.62126" lon="6.33386">
        <ele>681.23</ele>
        <time>2016-09-26T10:43:48Z</time>
      </trkpt>
      <trkpt lat="43.62135" lon="6.33371">
        <ele>681.23</ele>
        <time>2016-09-26T10:44:01Z</time>
      </trkpt>
      <trkpt lat="43.62145" lon="6.33353">
        <ele>681.23</ele>
        <time>2016-09-26T10:44:14Z</time>
      </trkpt>
      <trkpt lat="43.62146" lon="6.33351">
        <ele>681.23</ele>
        <time>2016-09-26T10:44:15Z</time>
      </trkpt>
      <trkpt lat="43.62147" lon="6.33349">
        <ele>680.75</ele>
        <time>2016-09-26T10:44:17Z</time>
      </trkpt>
      <trkpt lat="43.62155" lon="6.33334">
        <ele>680.75</ele>
        <time>2016-09-26T10:44:29Z</time>
      </trkpt>
      <trkpt lat="43.62159" lon="6.33329">
        <ele>680.75</ele>
        <time>2016-09-26T10:44:34Z</time>
      </trkpt>
      <trkpt lat="43.62171" lon="6.33309">
        <ele>680.75</ele>
        <time>2016-09-26T10:44:49Z</time>
      </trkpt>
      <trkpt lat="43.62175" lon="6.33302">
        <ele>680.75</ele>
        <time>2016-09-26T10:44:54Z</time>
      </trkpt>
      <trkpt lat="43.62185" lon="6.33283">
        <ele>680.27</ele>
        <time>2016-09-26T10:45:10Z</time>
      </trkpt>
      <trkpt lat="43.62192" lon="6.33272">
        <ele>680.27</ele>
        <time>2016-09-26T10:45:19Z</time>
      </trkpt>
      <trkpt lat="43.62203" lon="6.33249">
        <ele>679.79</ele>
        <time>2016-09-26T10:45:36Z</time>
      </trkpt>
      <trkpt lat="43.62212" lon="6.33235">
        <ele>679.79</ele>
        <time>2016-09-26T10:45:47Z</time>
      </trkpt>
      <trkpt lat="43.62215" lon="6.33226">
        <ele>680.75</ele>
        <time>2016-09-26T10:45:53Z</time>
      </trkpt>
      <trkpt lat="43.62222" lon="6.33217">
        <ele>679.79</ele>
        <time>2016-09-26T10:46:01Z</time>
      </trkpt>
      <trkpt lat="43.6223" lon="6.33208">
        <ele>680.27</ele>
        <time>2016-09-26T10:46:11Z</time>
      </trkpt>
      <trkpt lat="43.62239" lon="6.33189">
        <ele>680.27</ele>
        <time>2016-09-26T10:46:26Z</time>
      </trkpt>
      <trkpt lat="43.6225" lon="6.33172">
        <ele>680.27</ele>
        <time>2016-09-26T10:46:40Z</time>
      </trkpt>
      <trkpt lat="43.62253" lon="6.33161">
        <ele>679.31</ele>
        <time>2016-09-26T10:46:48Z</time>
      </trkpt>
      <trkpt lat="43.62259" lon="6.33153">
        <ele>679.31</ele>
        <time>2016-09-26T10:46:55Z</time>
      </trkpt>
      <trkpt lat="43.62264" lon="6.33145">
        <ele>679.31</ele>
        <time>2016-09-26T10:47:01Z</time>
      </trkpt>
      <trkpt lat="43.62266" lon="6.3314">
        <ele>679.31</ele>
        <time>2016-09-26T10:47:05Z</time>
      </trkpt>
      <trkpt lat="43.62268" lon="6.33137">
        <ele>679.31</ele>
        <time>2016-09-26T10:47:07Z</time>
      </trkpt>
      <trkpt lat="43.6227" lon="6.33133">
        <ele>679.31</ele>
        <time>2016-09-26T10:47:11Z</time>
      </trkpt>
      <trkpt lat="43.62279" lon="6.33114">
        <ele>678.83</ele>
        <time>2016-09-26T10:47:25Z</time>
      </trkpt>
      <trkpt lat="43.62286" lon="6.33109">
        <ele>678.83</ele>
        <time>2016-09-26T10:47:30Z</time>
      </trkpt>
      <trkpt lat="43.62291" lon="6.33104">
        <ele>678.83</ele>
        <time>2016-09-26T10:47:35Z</time>
      </trkpt>
      <trkpt lat="43.62298" lon="6.33091">
        <ele>678.83</ele>
        <time>2016-09-26T10:47:45Z</time>
      </trkpt>
      <trkpt lat="43.6231" lon="6.33069">
        <ele>678.83</ele>
        <time>2016-09-26T10:48:01Z</time>
      </trkpt>
      <trkpt lat="43.62317" lon="6.33059">
        <ele>679.31</ele>
        <time>2016-09-26T10:48:09Z</time>
      </trkpt>
      <trkpt lat="43.62323" lon="6.33053">
        <ele>678.83</ele>
        <time>2016-09-26T10:48:14Z</time>
      </trkpt>
      <trkpt lat="43.6233" lon="6.33044">
        <ele>678.83</ele>
        <time>2016-09-26T10:48:21Z</time>
      </trkpt>
      <trkpt lat="43.62331" lon="6.33041">
        <ele>678.83</ele>
        <time>2016-09-26T10:48:23Z</time>
      </trkpt>
      <trkpt lat="43.62335" lon="6.33036">
        <ele>679.31</ele>
        <time>2016-09-26T10:48:28Z</time>
      </trkpt>
      <trkpt lat="43.6234" lon="6.33029">
        <ele>679.31</ele>
        <time>2016-09-26T10:48:33Z</time>
      </trkpt>
      <trkpt lat="43.62347" lon="6.33016">
        <ele>679.79</ele>
        <time>2016-09-26T10:48:44Z</time>
      </trkpt>
      <trkpt lat="43.62348" lon="6.33013">
        <ele>679.79</ele>
        <time>2016-09-26T10:48:46Z</time>
      </trkpt>
      <trkpt lat="43.62355" lon="6.33">
        <ele>679.79</ele>
        <time>2016-09-26T10:48:57Z</time>
      </trkpt>
      <trkpt lat="43.62368" lon="6.32985">
        <ele>679.31</ele>
        <time>2016-09-26T10:49:10Z</time>
      </trkpt>
      <trkpt lat="43.6237" lon="6.32982">
        <ele>679.79</ele>
        <time>2016-09-26T10:49:14Z</time>
      </trkpt>
      <trkpt lat="43.62375" lon="6.32981">
        <ele>680.27</ele>
        <time>2016-09-26T10:49:19Z</time>
      </trkpt>
      <trkpt lat="43.62378" lon="6.32982">
        <ele>680.27</ele>
        <time>2016-09-26T10:49:23Z</time>
      </trkpt>
      <trkpt lat="43.62385" lon="6.32989">
        <ele>680.27</ele>
        <time>2016-09-26T10:49:31Z</time>
      </trkpt>
      <trkpt lat="43.6239" lon="6.32998">
        <ele>680.27</ele>
        <time>2016-09-26T10:49:39Z</time>
      </trkpt>
      <trkpt lat="43.62393" lon="6.32999">
        <ele>679.79</ele>
        <time>2016-09-26T10:49:42Z</time>
      </trkpt>
      <trkpt lat="43.62394" lon="6.33005">
        <ele>679.31</ele>
        <time>2016-09-26T10:49:51Z</time>
      </trkpt>
      <trkpt lat="43.62393" lon="6.33015">
        <ele>678.35</ele>
        <time>2016-09-26T10:49:57Z</time>
      </trkpt>
      <trkpt lat="43.62395" lon="6.33035">
        <ele>678.35</ele>
        <time>2016-09-26T10:50:10Z</time>
      </trkpt>
      <trkpt lat="43.62394" lon="6.3305">
        <ele>677.87</ele>
        <time>2016-09-26T10:50:25Z</time>
      </trkpt>
      <trkpt lat="43.62394" lon="6.33052">
        <ele>676.91</ele>
        <time>2016-09-26T10:50:46Z</time>
      </trkpt>
      <trkpt lat="43.62393" lon="6.33053">
        <ele>676.42</ele>
        <time>2016-09-26T10:51:03Z</time>
      </trkpt>
      <trkpt lat="43.62391" lon="6.33053">
        <ele>677.39</ele>
        <time>2016-09-26T10:51:19Z</time>
      </trkpt>
      <trkpt lat="43.6239" lon="6.33052">
        <ele>677.87</ele>
        <time>2016-09-26T10:51:34Z</time>
      </trkpt>
      <trkpt lat="43.62395" lon="6.33048">
        <ele>678.35</ele>
        <time>2016-09-26T10:51:48Z</time>
      </trkpt>
      <trkpt lat="43.62395" lon="6.33048">
        <ele>678.35</ele>
        <time>2016-09-26T10:52:02Z</time>
      </trkpt>
      <trkpt lat="43.62401" lon="6.33043">
        <ele>678.83</ele>
        <time>2016-09-26T10:52:12Z</time>
      </trkpt>
      <trkpt lat="43.62403" lon="6.33044">
        <ele>678.83</ele>
        <time>2016-09-26T10:52:25Z</time>
      </trkpt>
      <trkpt lat="43.624" lon="6.33045">
        <ele>679.31</ele>
        <time>2016-09-26T10:52:42Z</time>
      </trkpt>
      <trkpt lat="43.62398" lon="6.33046">
        <ele>678.35</ele>
        <time>2016-09-26T10:52:59Z</time>
      </trkpt>
      <trkpt lat="43.624" lon="6.33046">
        <ele>678.35</ele>
        <time>2016-09-26T10:53:17Z</time>
      </trkpt>
      <trkpt lat="43.62406" lon="6.33042">
        <ele>678.83</ele>
        <time>2016-09-26T10:53:24Z</time>
      </trkpt>
      <trkpt lat="43.62415" lon="6.33038">
        <ele>679.79</ele>
        <time>2016-09-26T10:53:36Z</time>
      </trkpt>
      <trkpt lat="43.62418" lon="6.33038">
        <ele>679.79</ele>
        <time>2016-09-26T10:53:40Z</time>
      </trkpt>
      <trkpt lat="43.62425" lon="6.33034">
        <ele>679.79</ele>
        <time>2016-09-26T10:53:46Z</time>
      </trkpt>
      <trkpt lat="43.62429" lon="6.33031">
        <ele>679.79</ele>
        <time>2016-09-26T10:53:50Z</time>
      </trkpt>
      <trkpt lat="43.62442" lon="6.33021">
        <ele>681.23</ele>
        <time>2016-09-26T10:54:06Z</time>
      </trkpt>
      <trkpt lat="43.62441" lon="6.3302">
        <ele>680.75</ele>
        <time>2016-09-26T10:54:26Z</time>
      </trkpt>
      <trkpt lat="43.62441" lon="6.3302">
        <ele>680.75</ele>
        <time>2016-09-26T10:54:44Z</time>
      </trkpt>
      <trkpt lat="43.62441" lon="6.3302">
        <ele>680.27</ele>
        <time>2016-09-26T10:55:12Z</time>
      </trkpt>
      <trkpt lat="43.62441" lon="6.3302">
        <ele>680.27</ele>
        <time>2016-09-26T10:55:47Z</time>
      </trkpt>
      <trkpt lat="43.62441" lon="6.33019">
        <ele>680.27</ele>
        <time>2016-09-26T10:56:17Z</time>
      </trkpt>
      <trkpt lat="43.62441" lon="6.33019">
        <ele>680.27</ele>
        <time>2016-09-26T10:56:56Z</time>
      </trkpt>
      <trkpt lat="43.62441" lon="6.33019">
        <ele>680.75</ele>
        <time>2016-09-26T10:57:22Z</time>
      </trkpt>
      <trkpt lat="43.6244" lon="6.33018">
        <ele>680.27</ele>
        <time>2016-09-26T10:57:58Z</time>
      </trkpt>
      <trkpt lat="43.62441" lon="6.33018">
        <ele>680.27</ele>
        <time>2016-09-26T10:58:33Z</time>
      </trkpt>
      <trkpt lat="43.6244" lon="6.33018">
        <ele>679.79</ele>
        <time>2016-09-26T10:59:02Z</time>
      </trkpt>
      <trkpt lat="43.62441" lon="6.33019">
        <ele>680.27</ele>
        <time>2016-09-26T10:59:21Z</time>
      </trkpt>
      <trkpt lat="43.62441" lon="6.3302">
        <ele>679.79</ele>
        <time>2016-09-26T10:59:55Z</time>
      </trkpt>
      <trkpt lat="43.62441" lon="6.33019">
        <ele>679.79</ele>
        <time>2016-09-26T11:00:28Z</time>
      </trkpt>
      <trkpt lat="43.6244" lon="6.3302">
        <ele>679.79</ele>
        <time>2016-09-26T11:01:03Z</time>
      </trkpt>
      <trkpt lat="43.62441" lon="6.3302">
        <ele>679.79</ele>
        <time>2016-09-26T11:01:33Z</time>
      </trkpt>
      <trkpt lat="43.62441" lon="6.3302">
        <ele>679.79</ele>
        <time>2016-09-26T11:02:10Z</time>
      </trkpt>
      <trkpt lat="43.6244" lon="6.33019">
        <ele>679.79</ele>
        <time>2016-09-26T11:02:43Z</time>
      </trkpt>
      <trkpt lat="43.6244" lon="6.3302">
        <ele>679.79</ele>
        <time>2016-09-26T11:03:19Z</time>
      </trkpt>
      <trkpt lat="43.62439" lon="6.33019">
        <ele>679.79</ele>
        <time>2016-09-26T11:04:08Z</time>
      </trkpt>
      <trkpt lat="43.62438" lon="6.33019">
        <ele>679.31</ele>
        <time>2016-09-26T11:04:50Z</time>
      </trkpt>
      <trkpt lat="43.62438" lon="6.33019">
        <ele>679.31</ele>
        <time>2016-09-26T11:05:14Z</time>
      </trkpt>
      <trkpt lat="43.62438" lon="6.33018">
        <ele>679.31</ele>
        <time>2016-09-26T11:05:53Z</time>
      </trkpt>
      <trkpt lat="43.62438" lon="6.33018">
        <ele>679.31</ele>
        <time>2016-09-26T11:06:20Z</time>
      </trkpt>
      <trkpt lat="43.62439" lon="6.33018">
        <ele>679.31</ele>
        <time>2016-09-26T11:06:54Z</time>
      </trkpt>
      <trkpt lat="43.62439" lon="6.33018">
        <ele>679.31</ele>
        <time>2016-09-26T11:07:31Z</time>
      </trkpt>
      <trkpt lat="43.6244" lon="6.33018">
        <ele>679.31</ele>
        <time>2016-09-26T11:08:09Z</time>
      </trkpt>
      <trkpt lat="43.62441" lon="6.33017">
        <ele>678.83</ele>
        <time>2016-09-26T11:08:48Z</time>
      </trkpt>
      <trkpt lat="43.62441" lon="6.33017">
        <ele>678.83</ele>
        <time>2016-09-26T11:09:19Z</time>
      </trkpt>
      <trkpt lat="43.6244" lon="6.33017">
        <ele>679.31</ele>
        <time>2016-09-26T11:09:48Z</time>
      </trkpt>
      <trkpt lat="43.6244" lon="6.33018">
        <ele>678.83</ele>
        <time>2016-09-26T11:10:21Z</time>
      </trkpt>
      <trkpt lat="43.6244" lon="6.33019">
        <ele>676.42</ele>
        <time>2016-09-26T11:10:49Z</time>
      </trkpt>
      <trkpt lat="43.6244" lon="6.33019">
        <ele>681.71</ele>
        <time>2016-09-26T11:10:50Z</time>
      </trkpt>
      <trkpt lat="43.6244" lon="6.33019">
        <ele>677.87</ele>
        <time>2016-09-26T11:10:51Z</time>
      </trkpt>
      <trkpt lat="43.62441" lon="6.33019">
        <ele>679.31</ele>
        <time>2016-09-26T11:11:12Z</time>
      </trkpt>
      <trkpt lat="43.6244" lon="6.3302">
        <ele>679.31</ele>
        <time>2016-09-26T11:11:51Z</time>
      </trkpt>
      <trkpt lat="43.6244" lon="6.3302">
        <ele>678.83</ele>
        <time>2016-09-26T11:12:25Z</time>
      </trkpt>
      <trkpt lat="43.62441" lon="6.33021">
        <ele>678.83</ele>
        <time>2016-09-26T11:12:51Z</time>
      </trkpt>
      <trkpt lat="43.62441" lon="6.33021">
        <ele>678.83</ele>
        <time>2016-09-26T11:13:14Z</time>
      </trkpt>
      <trkpt lat="43.62441" lon="6.33021">
        <ele>679.31</ele>
        <time>2016-09-26T11:13:46Z</time>
      </trkpt>
      <trkpt lat="43.62441" lon="6.33022">
        <ele>678.83</ele>
        <time>2016-09-26T11:14:18Z</time>
      </trkpt>
      <trkpt lat="43.6244" lon="6.33022">
        <ele>678.83</ele>
        <time>2016-09-26T11:14:51Z</time>
      </trkpt>
      <trkpt lat="43.6244" lon="6.33022">
        <ele>678.83</ele>
        <time>2016-09-26T11:15:10Z</time>
      </trkpt>
      <trkpt lat="43.6244" lon="6.33022">
        <ele>678.83</ele>
        <time>2016-09-26T11:15:27Z</time>
      </trkpt>
      <trkpt lat="43.62439" lon="6.33022">
        <ele>678.83</ele>
        <time>2016-09-26T11:16:02Z</time>
      </trkpt>
      <trkpt lat="43.6244" lon="6.33022">
        <ele>678.83</ele>
        <time>2016-09-26T11:16:35Z</time>
      </trkpt>
      <trkpt lat="43.62439" lon="6.33021">
        <ele>678.83</ele>
        <time>2016-09-26T11:17:07Z</time>
      </trkpt>
      <trkpt lat="43.62439" lon="6.33022">
        <ele>678.83</ele>
        <time>2016-09-26T11:17:40Z</time>
      </trkpt>
      <trkpt lat="43.62439" lon="6.33022">
        <ele>678.83</ele>
        <time>2016-09-26T11:18:16Z</time>
      </trkpt>
      <trkpt lat="43.62439" lon="6.33021">
        <ele>679.31</ele>
        <time>2016-09-26T11:18:52Z</time>
      </trkpt>
      <trkpt lat="43.62439" lon="6.33021">
        <ele>679.31</ele>
        <time>2016-09-26T11:19:26Z</time>
      </trkpt>
      <trkpt lat="43.62439" lon="6.33021">
        <ele>679.31</ele>
        <time>2016-09-26T11:19:59Z</time>
      </trkpt>
      <trkpt lat="43.62438" lon="6.33022">
        <ele>679.79</ele>
        <time>2016-09-26T11:20:29Z</time>
      </trkpt>
      <trkpt lat="43.62439" lon="6.33022">
        <ele>679.79</ele>
        <time>2016-09-26T11:20:52Z</time>
      </trkpt>
      <trkpt lat="43.62439" lon="6.33023">
        <ele>679.79</ele>
        <time>2016-09-26T11:21:23Z</time>
      </trkpt>
      <trkpt lat="43.62439" lon="6.33023">
        <ele>680.27</ele>
        <time>2016-09-26T11:21:42Z</time>
      </trkpt>
      <trkpt lat="43.6244" lon="6.33023">
        <ele>675.94</ele>
        <time>2016-09-26T11:21:57Z</time>
      </trkpt>
      <trkpt lat="43.6244" lon="6.33023">
        <ele>683.63</ele>
        <time>2016-09-26T11:21:58Z</time>
      </trkpt>
      <trkpt lat="43.6244" lon="6.33023">
        <ele>680.27</ele>
        <time>2016-09-26T11:21:59Z</time>
      </trkpt>
      <trkpt lat="43.6244" lon="6.33022">
        <ele>683.63</ele>
        <time>2016-09-26T11:22:17Z</time>
      </trkpt>
      <trkpt lat="43.6244" lon="6.33022">
        <ele>677.39</ele>
        <time>2016-09-26T11:22:18Z</time>
      </trkpt>
      <trkpt lat="43.6244" lon="6.33022">
        <ele>683.63</ele>
        <time>2016-09-26T11:22:20Z</time>
      </trkpt>
      <trkpt lat="43.6244" lon="6.33022">
        <ele>680.27</ele>
        <time>2016-09-26T11:22:21Z</time>
      </trkpt>
      <trkpt lat="43.6244" lon="6.33022">
        <ele>679.31</ele>
        <time>2016-09-26T11:22:48Z</time>
      </trkpt>
      <trkpt lat="43.6244" lon="6.33021">
        <ele>679.31</ele>
        <time>2016-09-26T11:23:06Z</time>
      </trkpt>
      <trkpt lat="43.62441" lon="6.3302">
        <ele>678.83</ele>
        <time>2016-09-26T11:23:35Z</time>
      </trkpt>
      <trkpt lat="43.6244" lon="6.3302">
        <ele>679.79</ele>
        <time>2016-09-26T11:24:04Z</time>
      </trkpt>
      <trkpt lat="43.6244" lon="6.33019">
        <ele>679.79</ele>
        <time>2016-09-26T11:24:22Z</time>
      </trkpt>
      <trkpt lat="43.6244" lon="6.33018">
        <ele>679.79</ele>
        <time>2016-09-26T11:24:52Z</time>
      </trkpt>
      <trkpt lat="43.62441" lon="6.33017">
        <ele>679.79</ele>
        <time>2016-09-26T11:25:06Z</time>
      </trkpt>
      <trkpt lat="43.62441" lon="6.33018">
        <ele>679.31</ele>
        <time>2016-09-26T11:25:32Z</time>
      </trkpt>
      <trkpt lat="43.62441" lon="6.33018">
        <ele>679.31</ele>
        <time>2016-09-26T11:25:43Z</time>
      </trkpt>
      <trkpt lat="43.6244" lon="6.33018">
        <ele>679.31</ele>
        <time>2016-09-26T11:26:17Z</time>
      </trkpt>
      <trkpt lat="43.6244" lon="6.33018">
        <ele>679.31</ele>
        <time>2016-09-26T11:26:56Z</time>
      </trkpt>
      <trkpt lat="43.6244" lon="6.33018">
        <ele>679.31</ele>
        <time>2016-09-26T11:27:27Z</time>
      </trkpt>
      <trkpt lat="43.6244" lon="6.33017">
        <ele>679.31</ele>
        <time>2016-09-26T11:27:58Z</time>
      </trkpt>
      <trkpt lat="43.62439" lon="6.33017">
        <ele>679.79</ele>
        <time>2016-09-26T11:28:31Z</time>
      </trkpt>
      <trkpt lat="43.62438" lon="6.33016">
        <ele>679.79</ele>
        <time>2016-09-26T11:29:12Z</time>
      </trkpt>
      <trkpt lat="43.62438" lon="6.33016">
        <ele>679.79</ele>
        <time>2016-09-26T11:29:49Z</time>
      </trkpt>
      <trkpt lat="43.62438" lon="6.33015">
        <ele>679.79</ele>
        <time>2016-09-26T11:30:23Z</time>
      </trkpt>
      <trkpt lat="43.62437" lon="6.33015">
        <ele>679.79</ele>
        <time>2016-09-26T11:30:59Z</time>
      </trkpt>
      <trkpt lat="43.62437" lon="6.33015">
        <ele>679.31</ele>
        <time>2016-09-26T11:31:41Z</time>
      </trkpt>
      <trkpt lat="43.62438" lon="6.33016">
        <ele>679.31</ele>
        <time>2016-09-26T11:32:13Z</time>
      </trkpt>
      <trkpt lat="43.62437" lon="6.33016">
        <ele>679.79</ele>
        <time>2016-09-26T11:32:49Z</time>
      </trkpt>
      <trkpt lat="43.62437" lon="6.33017">
        <ele>679.79</ele>
        <time>2016-09-26T11:33:27Z</time>
      </trkpt>
      <trkpt lat="43.62436" lon="6.33017">
        <ele>680.27</ele>
        <time>2016-09-26T11:34:04Z</time>
      </trkpt>
      <trkpt lat="43.62436" lon="6.33017">
        <ele>679.79</ele>
        <time>2016-09-26T11:34:38Z</time>
      </trkpt>
      <trkpt lat="43.62436" lon="6.33016">
        <ele>680.27</ele>
        <time>2016-09-26T11:35:09Z</time>
      </trkpt>
      <trkpt lat="43.62436" lon="6.33015">
        <ele>680.27</ele>
        <time>2016-09-26T11:35:37Z</time>
      </trkpt>
      <trkpt lat="43.62436" lon="6.33015">
        <ele>680.27</ele>
        <time>2016-09-26T11:36:16Z</time>
      </trkpt>
      <trkpt lat="43.62435" lon="6.33015">
        <ele>679.79</ele>
        <time>2016-09-26T11:36:48Z</time>
      </trkpt>
      <trkpt lat="43.62435" lon="6.33015">
        <ele>679.79</ele>
        <time>2016-09-26T11:37:20Z</time>
      </trkpt>
      <trkpt lat="43.62435" lon="6.33015">
        <ele>679.79</ele>
        <time>2016-09-26T11:37:52Z</time>
      </trkpt>
      <trkpt lat="43.62436" lon="6.33017">
        <ele>679.79</ele>
        <time>2016-09-26T11:38:14Z</time>
      </trkpt>
      <trkpt lat="43.62435" lon="6.33019">
        <ele>679.79</ele>
        <time>2016-09-26T11:38:20Z</time>
      </trkpt>
      <trkpt lat="43.62429" lon="6.33022">
        <ele>679.31</ele>
        <time>2016-09-26T11:38:29Z</time>
      </trkpt>
      <trkpt lat="43.62421" lon="6.33027">
        <ele>678.83</ele>
        <time>2016-09-26T11:38:44Z</time>
      </trkpt>
      <trkpt lat="43.62416" lon="6.33029">
        <ele>678.83</ele>
        <time>2016-09-26T11:39:03Z</time>
      </trkpt>
      <trkpt lat="43.62406" lon="6.33031">
        <ele>678.83</ele>
        <time>2016-09-26T11:39:16Z</time>
      </trkpt>
      <trkpt lat="43.62403" lon="6.33033">
        <ele>677.87</ele>
        <time>2016-09-26T11:39:29Z</time>
      </trkpt>
      <trkpt lat="43.62403" lon="6.33034">
        <ele>677.87</ele>
        <time>2016-09-26T11:39:49Z</time>
      </trkpt>
      <trkpt lat="43.62402" lon="6.33036">
        <ele>678.35</ele>
        <time>2016-09-26T11:40:10Z</time>
      </trkpt>
      <trkpt lat="43.624" lon="6.33034">
        <ele>677.87</ele>
        <time>2016-09-26T11:40:25Z</time>
      </trkpt>
      <trkpt lat="43.62401" lon="6.33024">
        <ele>677.87</ele>
        <time>2016-09-26T11:40:41Z</time>
      </trkpt>
      <trkpt lat="43.624" lon="6.33013">
        <ele>677.87</ele>
        <time>2016-09-26T11:40:57Z</time>
      </trkpt>
      <trkpt lat="43.62402" lon="6.33004">
        <ele>679.31</ele>
        <time>2016-09-26T11:41:11Z</time>
      </trkpt>
      <trkpt lat="43.62402" lon="6.33">
        <ele>679.31</ele>
        <time>2016-09-26T11:41:13Z</time>
      </trkpt>
      <trkpt lat="43.62395" lon="6.32982">
        <ele>679.79</ele>
        <time>2016-09-26T11:41:27Z</time>
      </trkpt>
      <trkpt lat="43.6238" lon="6.32972">
        <ele>680.27</ele>
        <time>2016-09-26T11:41:40Z</time>
      </trkpt>
      <trkpt lat="43.62378" lon="6.32971">
        <ele>680.27</ele>
        <time>2016-09-26T11:41:42Z</time>
      </trkpt>
      <trkpt lat="43.62368" lon="6.32974">
        <ele>679.79</ele>
        <time>2016-09-26T11:41:48Z</time>
      </trkpt>
      <trkpt lat="43.62361" lon="6.32978">
        <ele>679.79</ele>
        <time>2016-09-26T11:41:52Z</time>
      </trkpt>
      <trkpt lat="43.62355" lon="6.32984">
        <ele>679.31</ele>
        <time>2016-09-26T11:41:57Z</time>
      </trkpt>
      <trkpt lat="43.62351" lon="6.32992">
        <ele>679.31</ele>
        <time>2016-09-26T11:42:02Z</time>
      </trkpt>
      <trkpt lat="43.6234" lon="6.33012">
        <ele>679.31</ele>
        <time>2016-09-26T11:42:14Z</time>
      </trkpt>
      <trkpt lat="43.62325" lon="6.33033">
        <ele>679.31</ele>
        <time>2016-09-26T11:42:28Z</time>
      </trkpt>
      <trkpt lat="43.62315" lon="6.33054">
        <ele>678.83</ele>
        <time>2016-09-26T11:42:41Z</time>
      </trkpt>
      <trkpt lat="43.623" lon="6.33079">
        <ele>679.31</ele>
        <time>2016-09-26T11:42:58Z</time>
      </trkpt>
      <trkpt lat="43.62288" lon="6.33097">
        <ele>679.31</ele>
        <time>2016-09-26T11:43:14Z</time>
      </trkpt>
      <trkpt lat="43.62277" lon="6.33115">
        <ele>679.31</ele>
        <time>2016-09-26T11:43:29Z</time>
      </trkpt>
      <trkpt lat="43.62266" lon="6.33136">
        <ele>679.31</ele>
        <time>2016-09-26T11:43:44Z</time>
      </trkpt>
      <trkpt lat="43.62254" lon="6.33155">
        <ele>679.79</ele>
        <time>2016-09-26T11:44:00Z</time>
      </trkpt>
      <trkpt lat="43.62251" lon="6.33162">
        <ele>679.79</ele>
        <time>2016-09-26T11:44:05Z</time>
      </trkpt>
      <trkpt lat="43.62237" lon="6.33183">
        <ele>679.79</ele>
        <time>2016-09-26T11:44:22Z</time>
      </trkpt>
      <trkpt lat="43.62226" lon="6.33199">
        <ele>680.27</ele>
        <time>2016-09-26T11:44:37Z</time>
      </trkpt>
      <trkpt lat="43.62221" lon="6.33206">
        <ele>680.27</ele>
        <time>2016-09-26T11:44:42Z</time>
      </trkpt>
      <trkpt lat="43.62212" lon="6.33219">
        <ele>680.27</ele>
        <time>2016-09-26T11:44:52Z</time>
      </trkpt>
      <trkpt lat="43.62202" lon="6.3324">
        <ele>680.27</ele>
        <time>2016-09-26T11:45:07Z</time>
      </trkpt>
      <trkpt lat="43.62192" lon="6.33259">
        <ele>680.27</ele>
        <time>2016-09-26T11:45:22Z</time>
      </trkpt>
      <trkpt lat="43.6218" lon="6.33279">
        <ele>681.23</ele>
        <time>2016-09-26T11:45:37Z</time>
      </trkpt>
      <trkpt lat="43.62171" lon="6.33295">
        <ele>681.23</ele>
        <time>2016-09-26T11:45:49Z</time>
      </trkpt>
      <trkpt lat="43.6216" lon="6.33313">
        <ele>681.23</ele>
        <time>2016-09-26T11:46:02Z</time>
      </trkpt>
      <trkpt lat="43.62157" lon="6.33315">
        <ele>681.23</ele>
        <time>2016-09-26T11:46:05Z</time>
      </trkpt>
      <trkpt lat="43.62151" lon="6.33328">
        <ele>681.23</ele>
        <time>2016-09-26T11:46:13Z</time>
      </trkpt>
      <trkpt lat="43.6214" lon="6.33347">
        <ele>681.71</ele>
        <time>2016-09-26T11:46:28Z</time>
      </trkpt>
      <trkpt lat="43.6213" lon="6.33367">
        <ele>681.71</ele>
        <time>2016-09-26T11:46:44Z</time>
      </trkpt>
      <trkpt lat="43.62118" lon="6.33385">
        <ele>681.71</ele>
        <time>2016-09-26T11:46:59Z</time>
      </trkpt>
      <trkpt lat="43.6211" lon="6.334">
        <ele>681.71</ele>
        <time>2016-09-26T11:47:09Z</time>
      </trkpt>
      <trkpt lat="43.62102" lon="6.33408">
        <ele>682.19</ele>
        <time>2016-09-26T11:47:17Z</time>
      </trkpt>
      <trkpt lat="43.6209" lon="6.33429">
        <ele>682.19</ele>
        <time>2016-09-26T11:47:32Z</time>
      </trkpt>
      <trkpt lat="43.62088" lon="6.33433">
        <ele>682.19</ele>
        <time>2016-09-26T11:47:35Z</time>
      </trkpt>
      <trkpt lat="43.62076" lon="6.33455">
        <ele>681.71</ele>
        <time>2016-09-26T11:47:50Z</time>
      </trkpt>
      <trkpt lat="43.62066" lon="6.33472">
        <ele>681.71</ele>
        <time>2016-09-26T11:48:03Z</time>
      </trkpt>
      <trkpt lat="43.62055" lon="6.33491">
        <ele>681.71</ele>
        <time>2016-09-26T11:48:17Z</time>
      </trkpt>
      <trkpt lat="43.62046" lon="6.33507">
        <ele>681.71</ele>
        <time>2016-09-26T11:48:30Z</time>
      </trkpt>
      <trkpt lat="43.62036" lon="6.33524">
        <ele>681.23</ele>
        <time>2016-09-26T11:48:43Z</time>
      </trkpt>
      <trkpt lat="43.6203" lon="6.33535">
        <ele>681.23</ele>
        <time>2016-09-26T11:48:51Z</time>
      </trkpt>
      <trkpt lat="43.62016" lon="6.33555">
        <ele>680.75</ele>
        <time>2016-09-26T11:49:07Z</time>
      </trkpt>
      <trkpt lat="43.62006" lon="6.33578">
        <ele>679.79</ele>
        <time>2016-09-26T11:49:23Z</time>
      </trkpt>
      <trkpt lat="43.62003" lon="6.33582">
        <ele>679.79</ele>
        <time>2016-09-26T11:49:27Z</time>
      </trkpt>
      <trkpt lat="43.61999" lon="6.33588">
        <ele>679.31</ele>
        <time>2016-09-26T11:49:32Z</time>
      </trkpt>
      <trkpt lat="43.61997" lon="6.33592">
        <ele>679.31</ele>
        <time>2016-09-26T11:49:35Z</time>
      </trkpt>
      <trkpt lat="43.61985" lon="6.33616">
        <ele>680.27</ele>
        <time>2016-09-26T11:49:52Z</time>
      </trkpt>
      <trkpt lat="43.61975" lon="6.33629">
        <ele>681.23</ele>
        <time>2016-09-26T11:50:04Z</time>
      </trkpt>
      <trkpt lat="43.61966" lon="6.3365">
        <ele>681.23</ele>
        <time>2016-09-26T11:50:19Z</time>
      </trkpt>
      <trkpt lat="43.61956" lon="6.3367">
        <ele>681.71</ele>
        <time>2016-09-26T11:50:33Z</time>
      </trkpt>
      <trkpt lat="43.61942" lon="6.33691">
        <ele>681.71</ele>
        <time>2016-09-26T11:50:49Z</time>
      </trkpt>
      <trkpt lat="43.61932" lon="6.33709">
        <ele>682.19</ele>
        <time>2016-09-26T11:51:02Z</time>
      </trkpt>
      <trkpt lat="43.6192" lon="6.3373">
        <ele>682.19</ele>
        <time>2016-09-26T11:51:18Z</time>
      </trkpt>
      <trkpt lat="43.6191" lon="6.33749">
        <ele>682.19</ele>
        <time>2016-09-26T11:51:33Z</time>
      </trkpt>
      <trkpt lat="43.61898" lon="6.33767">
        <ele>682.19</ele>
        <time>2016-09-26T11:51:46Z</time>
      </trkpt>
      <trkpt lat="43.61887" lon="6.33783">
        <ele>681.23</ele>
        <time>2016-09-26T11:51:59Z</time>
      </trkpt>
      <trkpt lat="43.61874" lon="6.33803">
        <ele>681.23</ele>
        <time>2016-09-26T11:52:15Z</time>
      </trkpt>
      <trkpt lat="43.61859" lon="6.33819">
        <ele>681.23</ele>
        <time>2016-09-26T11:52:31Z</time>
      </trkpt>
      <trkpt lat="43.61844" lon="6.33834">
        <ele>681.23</ele>
        <time>2016-09-26T11:52:45Z</time>
      </trkpt>
      <trkpt lat="43.61835" lon="6.33848">
        <ele>681.71</ele>
        <time>2016-09-26T11:52:56Z</time>
      </trkpt>
      <trkpt lat="43.61831" lon="6.33854">
        <ele>681.23</ele>
        <time>2016-09-26T11:53:02Z</time>
      </trkpt>
      <trkpt lat="43.61816" lon="6.3388">
        <ele>681.23</ele>
        <time>2016-09-26T11:53:19Z</time>
      </trkpt>
      <trkpt lat="43.61804" lon="6.33896">
        <ele>680.75</ele>
        <time>2016-09-26T11:53:32Z</time>
      </trkpt>
      <trkpt lat="43.61801" lon="6.33901">
        <ele>680.75</ele>
        <time>2016-09-26T11:53:36Z</time>
      </trkpt>
      <trkpt lat="43.61796" lon="6.3391">
        <ele>681.23</ele>
        <time>2016-09-26T11:53:43Z</time>
      </trkpt>
      <trkpt lat="43.61793" lon="6.33917">
        <ele>681.23</ele>
        <time>2016-09-26T11:53:47Z</time>
      </trkpt>
      <trkpt lat="43.61781" lon="6.33937">
        <ele>680.75</ele>
        <time>2016-09-26T11:54:02Z</time>
      </trkpt>
      <trkpt lat="43.6177" lon="6.33954">
        <ele>680.27</ele>
        <time>2016-09-26T11:54:15Z</time>
      </trkpt>
      <trkpt lat="43.61768" lon="6.33958">
        <ele>680.27</ele>
        <time>2016-09-26T11:54:18Z</time>
      </trkpt>
      <trkpt lat="43.61757" lon="6.33972">
        <ele>680.27</ele>
        <time>2016-09-26T11:54:29Z</time>
      </trkpt>
      <trkpt lat="43.61742" lon="6.33988">
        <ele>680.27</ele>
        <time>2016-09-26T11:54:44Z</time>
      </trkpt>
      <trkpt lat="43.6174" lon="6.3399">
        <ele>679.79</ele>
        <time>2016-09-26T11:54:47Z</time>
      </trkpt>
      <trkpt lat="43.61732" lon="6.34004">
        <ele>679.79</ele>
        <time>2016-09-26T11:55:01Z</time>
      </trkpt>
      <trkpt lat="43.6173" lon="6.34009">
        <ele>679.79</ele>
        <time>2016-09-26T11:55:06Z</time>
      </trkpt>
      <trkpt lat="43.61729" lon="6.34011">
        <ele>679.79</ele>
        <time>2016-09-26T11:55:08Z</time>
      </trkpt>
      <trkpt lat="43.61717" lon="6.34029">
        <ele>679.79</ele>
        <time>2016-09-26T11:55:22Z</time>
      </trkpt>
      <trkpt lat="43.61711" lon="6.34035">
        <ele>679.31</ele>
        <time>2016-09-26T11:55:29Z</time>
      </trkpt>
      <trkpt lat="43.61699" lon="6.34053">
        <ele>679.31</ele>
        <time>2016-09-26T11:55:43Z</time>
      </trkpt>
      <trkpt lat="43.61686" lon="6.34066">
        <ele>679.31</ele>
        <time>2016-09-26T11:55:56Z</time>
      </trkpt>
      <trkpt lat="43.61675" lon="6.34069">
        <ele>679.79</ele>
        <time>2016-09-26T11:56:06Z</time>
      </trkpt>
      <trkpt lat="43.61667" lon="6.34074">
        <ele>680.27</ele>
        <time>2016-09-26T11:56:16Z</time>
      </trkpt>
      <trkpt lat="43.6166" lon="6.34074">
        <ele>680.75</ele>
        <time>2016-09-26T11:56:24Z</time>
      </trkpt>
      <trkpt lat="43.61655" lon="6.34074">
        <ele>681.23</ele>
        <time>2016-09-26T11:56:28Z</time>
      </trkpt>
      <trkpt lat="43.61636" lon="6.34084">
        <ele>681.71</ele>
        <time>2016-09-26T11:56:44Z</time>
      </trkpt>
      <trkpt lat="43.61624" lon="6.34088">
        <ele>682.19</ele>
        <time>2016-09-26T11:56:54Z</time>
      </trkpt>
      <trkpt lat="43.61609" lon="6.34103">
        <ele>682.67</ele>
        <time>2016-09-26T11:57:10Z</time>
      </trkpt>
      <trkpt lat="43.61596" lon="6.34107">
        <ele>684.12</ele>
        <time>2016-09-26T11:57:25Z</time>
      </trkpt>
      <trkpt lat="43.61572" lon="6.34117">
        <ele>685.08</ele>
        <time>2016-09-26T11:57:41Z</time>
      </trkpt>
      <trkpt lat="43.61554" lon="6.34127">
        <ele>685.56</ele>
        <time>2016-09-26T11:57:56Z</time>
      </trkpt>
      <trkpt lat="43.61542" lon="6.34135">
        <ele>686.04</ele>
        <time>2016-09-26T11:58:10Z</time>
      </trkpt>
      <trkpt lat="43.61527" lon="6.3414">
        <ele>686.52</ele>
        <time>2016-09-26T11:58:24Z</time>
      </trkpt>
      <trkpt lat="43.61521" lon="6.34139">
        <ele>686.52</ele>
        <time>2016-09-26T11:58:29Z</time>
      </trkpt>
      <trkpt lat="43.61511" lon="6.34127">
        <ele>687</ele>
        <time>2016-09-26T11:58:43Z</time>
      </trkpt>
      <trkpt lat="43.61497" lon="6.34123">
        <ele>686.52</ele>
        <time>2016-09-26T11:58:58Z</time>
      </trkpt>
      <trkpt lat="43.61492" lon="6.3412">
        <ele>686.04</ele>
        <time>2016-09-26T11:59:01Z</time>
      </trkpt>
      <trkpt lat="43.61488" lon="6.34117">
        <ele>686.04</ele>
        <time>2016-09-26T11:59:04Z</time>
      </trkpt>
      <trkpt lat="43.61484" lon="6.3411">
        <ele>686.04</ele>
        <time>2016-09-26T11:59:10Z</time>
      </trkpt>
      <trkpt lat="43.61482" lon="6.34107">
        <ele>686.04</ele>
        <time>2016-09-26T11:59:12Z</time>
      </trkpt>
      <trkpt lat="43.61476" lon="6.34098">
        <ele>685.56</ele>
        <time>2016-09-26T11:59:19Z</time>
      </trkpt>
      <trkpt lat="43.6147" lon="6.34094">
        <ele>686.04</ele>
        <time>2016-09-26T11:59:24Z</time>
      </trkpt>
      <trkpt lat="43.61465" lon="6.34088">
        <ele>686.04</ele>
        <time>2016-09-26T11:59:31Z</time>
      </trkpt>
      <trkpt lat="43.61463" lon="6.34084">
        <ele>686.04</ele>
        <time>2016-09-26T11:59:35Z</time>
      </trkpt>
      <trkpt lat="43.61451" lon="6.34069">
        <ele>685.56</ele>
        <time>2016-09-26T11:59:50Z</time>
      </trkpt>
      <trkpt lat="43.61439" lon="6.34055">
        <ele>685.08</ele>
        <time>2016-09-26T12:00:03Z</time>
      </trkpt>
      <trkpt lat="43.61429" lon="6.34045">
        <ele>684.6</ele>
        <time>2016-09-26T12:00:13Z</time>
      </trkpt>
      <trkpt lat="43.61399" lon="6.34037">
        <ele>683.15</ele>
        <time>2016-09-26T12:00:30Z</time>
      </trkpt>
      <trkpt lat="43.61383" lon="6.3405">
        <ele>684.12</ele>
        <time>2016-09-26T12:00:45Z</time>
      </trkpt>
      <trkpt lat="43.61374" lon="6.34056">
        <ele>684.6</ele>
        <time>2016-09-26T12:00:56Z</time>
      </trkpt>
      <trkpt lat="43.61372" lon="6.34056">
        <ele>684.12</ele>
        <time>2016-09-26T12:00:58Z</time>
      </trkpt>
      <trkpt lat="43.61362" lon="6.34057">
        <ele>684.6</ele>
        <time>2016-09-26T12:01:07Z</time>
      </trkpt>
      <trkpt lat="43.61359" lon="6.34058">
        <ele>684.12</ele>
        <time>2016-09-26T12:01:09Z</time>
      </trkpt>
      <trkpt lat="43.61346" lon="6.34062">
        <ele>684.6</ele>
        <time>2016-09-26T12:01:17Z</time>
      </trkpt>
      <trkpt lat="43.61341" lon="6.34066">
        <ele>684.6</ele>
        <time>2016-09-26T12:01:21Z</time>
      </trkpt>
      <trkpt lat="43.61347" lon="6.34079">
        <ele>684.6</ele>
        <time>2016-09-26T12:01:38Z</time>
      </trkpt>
      <trkpt lat="43.61347" lon="6.34081">
        <ele>684.6</ele>
        <time>2016-09-26T12:02:04Z</time>
      </trkpt>
      <trkpt lat="43.61347" lon="6.34082">
        <ele>684.6</ele>
        <time>2016-09-26T12:02:32Z</time>
      </trkpt>
      <trkpt lat="43.61348" lon="6.34083">
        <ele>685.08</ele>
        <time>2016-09-26T12:02:59Z</time>
      </trkpt>
      <trkpt lat="43.61348" lon="6.34082">
        <ele>684.6</ele>
        <time>2016-09-26T12:03:24Z</time>
      </trkpt>
      <trkpt lat="43.61357" lon="6.34089">
        <ele>684.12</ele>
        <time>2016-09-26T12:03:38Z</time>
      </trkpt>
      <trkpt lat="43.61361" lon="6.34092">
        <ele>684.12</ele>
        <time>2016-09-26T12:03:42Z</time>
      </trkpt>
      <trkpt lat="43.61368" lon="6.34099">
        <ele>683.63</ele>
        <time>2016-09-26T12:03:50Z</time>
      </trkpt>
      <trkpt lat="43.61371" lon="6.34104">
        <ele>683.15</ele>
        <time>2016-09-26T12:03:54Z</time>
      </trkpt>
      <trkpt lat="43.61382" lon="6.3412">
        <ele>681.71</ele>
        <time>2016-09-26T12:04:08Z</time>
      </trkpt>
      <trkpt lat="43.61384" lon="6.34124">
        <ele>681.23</ele>
        <time>2016-09-26T12:04:11Z</time>
      </trkpt>
      <trkpt lat="43.6139" lon="6.34137">
        <ele>680.27</ele>
        <time>2016-09-26T12:04:20Z</time>
      </trkpt>
      <trkpt lat="43.61392" lon="6.3414">
        <ele>680.27</ele>
        <time>2016-09-26T12:04:22Z</time>
      </trkpt>
      <trkpt lat="43.61398" lon="6.34161">
        <ele>677.87</ele>
        <time>2016-09-26T12:04:37Z</time>
      </trkpt>
      <trkpt lat="43.61399" lon="6.34165">
        <ele>677.39</ele>
        <time>2016-09-26T12:04:40Z</time>
      </trkpt>
      <trkpt lat="43.614" lon="6.34168">
        <ele>677.39</ele>
        <time>2016-09-26T12:04:42Z</time>
      </trkpt>
      <trkpt lat="43.61401" lon="6.34177">
        <ele>676.91</ele>
        <time>2016-09-26T12:04:48Z</time>
      </trkpt>
      <trkpt lat="43.61408" lon="6.34199">
        <ele>675.94</ele>
        <time>2016-09-26T12:05:01Z</time>
      </trkpt>
      <trkpt lat="43.61411" lon="6.34214">
        <ele>675.46</ele>
        <time>2016-09-26T12:05:11Z</time>
      </trkpt>
      <trkpt lat="43.61417" lon="6.34227">
        <ele>674.98</ele>
        <time>2016-09-26T12:05:25Z</time>
      </trkpt>
      <trkpt lat="43.61422" lon="6.34243">
        <ele>673.06</ele>
        <time>2016-09-26T12:05:38Z</time>
      </trkpt>
      <trkpt lat="43.61422" lon="6.34245">
        <ele>672.58</ele>
        <time>2016-09-26T12:05:39Z</time>
      </trkpt>
      <trkpt lat="43.61426" lon="6.34266">
        <ele>670.18</ele>
        <time>2016-09-26T12:05:54Z</time>
      </trkpt>
      <trkpt lat="43.61427" lon="6.34273">
        <ele>669.22</ele>
        <time>2016-09-26T12:06:00Z</time>
      </trkpt>
      <trkpt lat="43.6143" lon="6.34284">
        <ele>668.25</ele>
        <time>2016-09-26T12:06:09Z</time>
      </trkpt>
      <trkpt lat="43.61433" lon="6.34306">
        <ele>666.81</ele>
        <time>2016-09-26T12:06:24Z</time>
      </trkpt>
      <trkpt lat="43.61433" lon="6.3431">
        <ele>666.33</ele>
        <time>2016-09-26T12:06:27Z</time>
      </trkpt>
      <trkpt lat="43.61432" lon="6.34313">
        <ele>666.33</ele>
        <time>2016-09-26T12:06:29Z</time>
      </trkpt>
      <trkpt lat="43.6143" lon="6.34314">
        <ele>666.33</ele>
        <time>2016-09-26T12:06:31Z</time>
      </trkpt>
      <trkpt lat="43.61425" lon="6.34325">
        <ele>665.85</ele>
        <time>2016-09-26T12:06:39Z</time>
      </trkpt>
      <trkpt lat="43.61422" lon="6.34332">
        <ele>664.89</ele>
        <time>2016-09-26T12:06:44Z</time>
      </trkpt>
      <trkpt lat="43.6142" lon="6.34338">
        <ele>664.89</ele>
        <time>2016-09-26T12:06:48Z</time>
      </trkpt>
      <trkpt lat="43.61409" lon="6.34357">
        <ele>663.45</ele>
        <time>2016-09-26T12:07:03Z</time>
      </trkpt>
      <trkpt lat="43.61407" lon="6.3436">
        <ele>662.97</ele>
        <time>2016-09-26T12:07:05Z</time>
      </trkpt>
      <trkpt lat="43.61394" lon="6.34379">
        <ele>661.04</ele>
        <time>2016-09-26T12:07:22Z</time>
      </trkpt>
      <trkpt lat="43.6139" lon="6.34395">
        <ele>659.6</ele>
        <time>2016-09-26T12:07:32Z</time>
      </trkpt>
      <trkpt lat="43.61393" lon="6.34416">
        <ele>658.64</ele>
        <time>2016-09-26T12:07:42Z</time>
      </trkpt>
      <trkpt lat="43.6139" lon="6.34428">
        <ele>657.68</ele>
        <time>2016-09-26T12:07:49Z</time>
      </trkpt>
      <trkpt lat="43.61388" lon="6.34437">
        <ele>657.68</ele>
        <time>2016-09-26T12:07:55Z</time>
      </trkpt>
      <trkpt lat="43.61388" lon="6.34461">
        <ele>656.72</ele>
        <time>2016-09-26T12:08:09Z</time>
      </trkpt>
      <trkpt lat="43.61388" lon="6.34471">
        <ele>655.76</ele>
        <time>2016-09-26T12:08:16Z</time>
      </trkpt>
      <trkpt lat="43.61389" lon="6.34498">
        <ele>654.8</ele>
        <time>2016-09-26T12:08:32Z</time>
      </trkpt>
      <trkpt lat="43.61387" lon="6.34524">
        <ele>654.31</ele>
        <time>2016-09-26T12:08:47Z</time>
      </trkpt>
      <trkpt lat="43.61385" lon="6.34554">
        <ele>653.35</ele>
        <time>2016-09-26T12:09:04Z</time>
      </trkpt>
      <trkpt lat="43.61384" lon="6.34572">
        <ele>652.87</ele>
        <time>2016-09-26T12:09:14Z</time>
      </trkpt>
      <trkpt lat="43.61381" lon="6.34597">
        <ele>651.91</ele>
        <time>2016-09-26T12:09:29Z</time>
      </trkpt>
      <trkpt lat="43.61381" lon="6.34626">
        <ele>651.43</ele>
        <time>2016-09-26T12:09:46Z</time>
      </trkpt>
      <trkpt lat="43.61381" lon="6.3465">
        <ele>650.47</ele>
        <time>2016-09-26T12:10:00Z</time>
      </trkpt>
      <trkpt lat="43.6138" lon="6.3468">
        <ele>649.99</ele>
        <time>2016-09-26T12:10:17Z</time>
      </trkpt>
      <trkpt lat="43.61377" lon="6.34707">
        <ele>649.51</ele>
        <time>2016-09-26T12:10:32Z</time>
      </trkpt>
      <trkpt lat="43.61376" lon="6.34732">
        <ele>649.03</ele>
        <time>2016-09-26T12:10:47Z</time>
      </trkpt>
      <trkpt lat="43.61375" lon="6.34758">
        <ele>648.55</ele>
        <time>2016-09-26T12:11:02Z</time>
      </trkpt>
      <trkpt lat="43.61373" lon="6.34789">
        <ele>648.55</ele>
        <time>2016-09-26T12:11:19Z</time>
      </trkpt>
      <trkpt lat="43.61373" lon="6.34806">
        <ele>648.07</ele>
        <time>2016-09-26T12:11:29Z</time>
      </trkpt>
      <trkpt lat="43.61371" lon="6.34837">
        <ele>647.59</ele>
        <time>2016-09-26T12:11:46Z</time>
      </trkpt>
      <trkpt lat="43.61369" lon="6.34862">
        <ele>647.59</ele>
        <time>2016-09-26T12:12:01Z</time>
      </trkpt>
      <trkpt lat="43.61367" lon="6.34888">
        <ele>647.59</ele>
        <time>2016-09-26T12:12:16Z</time>
      </trkpt>
      <trkpt lat="43.61371" lon="6.34911">
        <ele>647.1</ele>
        <time>2016-09-26T12:12:30Z</time>
      </trkpt>
      <trkpt lat="43.61375" lon="6.34926">
        <ele>646.14</ele>
        <time>2016-09-26T12:12:39Z</time>
      </trkpt>
      <trkpt lat="43.61383" lon="6.34952">
        <ele>645.66</ele>
        <time>2016-09-26T12:12:54Z</time>
      </trkpt>
      <trkpt lat="43.61386" lon="6.34959">
        <ele>645.66</ele>
        <time>2016-09-26T12:12:59Z</time>
      </trkpt>
      <trkpt lat="43.61391" lon="6.34974">
        <ele>646.14</ele>
        <time>2016-09-26T12:13:08Z</time>
      </trkpt>
      <trkpt lat="43.61392" lon="6.34979">
        <ele>646.14</ele>
        <time>2016-09-26T12:13:12Z</time>
      </trkpt>
      <trkpt lat="43.61395" lon="6.35001">
        <ele>646.14</ele>
        <time>2016-09-26T12:13:25Z</time>
      </trkpt>
      <trkpt lat="43.61398" lon="6.35009">
        <ele>646.14</ele>
        <time>2016-09-26T12:13:30Z</time>
      </trkpt>
      <trkpt lat="43.61401" lon="6.35022">
        <ele>646.62</ele>
        <time>2016-09-26T12:13:38Z</time>
      </trkpt>
      <trkpt lat="43.61415" lon="6.35045">
        <ele>645.66</ele>
        <time>2016-09-26T12:13:54Z</time>
      </trkpt>
      <trkpt lat="43.61427" lon="6.35063">
        <ele>645.18</ele>
        <time>2016-09-26T12:14:09Z</time>
      </trkpt>
      <trkpt lat="43.6143" lon="6.35071">
        <ele>645.18</ele>
        <time>2016-09-26T12:14:15Z</time>
      </trkpt>
      <trkpt lat="43.61434" lon="6.35077">
        <ele>645.18</ele>
        <time>2016-09-26T12:14:27Z</time>
      </trkpt>
      <trkpt lat="43.61435" lon="6.35077">
        <ele>645.18</ele>
        <time>2016-09-26T12:14:52Z</time>
      </trkpt>
      <trkpt lat="43.61435" lon="6.35076">
        <ele>645.18</ele>
        <time>2016-09-26T12:15:19Z</time>
      </trkpt>
      <trkpt lat="43.61435" lon="6.35077">
        <ele>645.18</ele>
        <time>2016-09-26T12:15:50Z</time>
      </trkpt>
      <trkpt lat="43.61436" lon="6.35077">
        <ele>645.18</ele>
        <time>2016-09-26T12:16:15Z</time>
      </trkpt>
      <trkpt lat="43.61435" lon="6.35078">
        <ele>645.18</ele>
        <time>2016-09-26T12:16:30Z</time>
      </trkpt>
      <trkpt lat="43.61434" lon="6.35087">
        <ele>644.7</ele>
        <time>2016-09-26T12:16:42Z</time>
      </trkpt>
      <trkpt lat="43.61423" lon="6.35113">
        <ele>644.7</ele>
        <time>2016-09-26T12:17:00Z</time>
      </trkpt>
      <trkpt lat="43.61414" lon="6.35137">
        <ele>645.18</ele>
        <time>2016-09-26T12:17:15Z</time>
      </trkpt>
      <trkpt lat="43.61407" lon="6.3516">
        <ele>645.18</ele>
        <time>2016-09-26T12:17:30Z</time>
      </trkpt>
      <trkpt lat="43.61398" lon="6.35181">
        <ele>645.18</ele>
        <time>2016-09-26T12:17:44Z</time>
      </trkpt>
      <trkpt lat="43.61387" lon="6.35196">
        <ele>645.18</ele>
        <time>2016-09-26T12:17:55Z</time>
      </trkpt>
      <trkpt lat="43.61371" lon="6.35222">
        <ele>645.18</ele>
        <time>2016-09-26T12:18:10Z</time>
      </trkpt>
      <trkpt lat="43.61366" lon="6.35231">
        <ele>644.7</ele>
        <time>2016-09-26T12:18:16Z</time>
      </trkpt>
      <trkpt lat="43.61366" lon="6.35235">
        <ele>644.7</ele>
        <time>2016-09-26T12:18:18Z</time>
      </trkpt>
      <trkpt lat="43.6137" lon="6.35244">
        <ele>643.26</ele>
        <time>2016-09-26T12:18:23Z</time>
      </trkpt>
      <trkpt lat="43.61375" lon="6.35251">
        <ele>642.78</ele>
        <time>2016-09-26T12:18:29Z</time>
      </trkpt>
      <trkpt lat="43.61386" lon="6.3527">
        <ele>641.82</ele>
        <time>2016-09-26T12:18:42Z</time>
      </trkpt>
      <trkpt lat="43.61395" lon="6.35284">
        <ele>641.34</ele>
        <time>2016-09-26T12:18:52Z</time>
      </trkpt>
      <trkpt lat="43.61396" lon="6.35302">
        <ele>641.34</ele>
        <time>2016-09-26T12:19:05Z</time>
      </trkpt>
      <trkpt lat="43.61395" lon="6.35305">
        <ele>641.34</ele>
        <time>2016-09-26T12:19:08Z</time>
      </trkpt>
      <trkpt lat="43.61394" lon="6.35312">
        <ele>641.82</ele>
        <time>2016-09-26T12:19:13Z</time>
      </trkpt>
      <trkpt lat="43.61395" lon="6.35315">
        <ele>641.82</ele>
        <time>2016-09-26T12:19:15Z</time>
      </trkpt>
      <trkpt lat="43.61399" lon="6.35321">
        <ele>642.3</ele>
        <time>2016-09-26T12:19:21Z</time>
      </trkpt>
      <trkpt lat="43.61395" lon="6.35339">
        <ele>642.3</ele>
        <time>2016-09-26T12:19:33Z</time>
      </trkpt>
      <trkpt lat="43.61394" lon="6.35343">
        <ele>641.82</ele>
        <time>2016-09-26T12:19:36Z</time>
      </trkpt>
      <trkpt lat="43.61388" lon="6.35353">
        <ele>641.82</ele>
        <time>2016-09-26T12:19:46Z</time>
      </trkpt>
      <trkpt lat="43.61384" lon="6.35366">
        <ele>642.3</ele>
        <time>2016-09-26T12:19:55Z</time>
      </trkpt>
      <trkpt lat="43.61384" lon="6.35376">
        <ele>642.3</ele>
        <time>2016-09-26T12:20:03Z</time>
      </trkpt>
      <trkpt lat="43.61384" lon="6.35389">
        <ele>642.78</ele>
        <time>2016-09-26T12:20:10Z</time>
      </trkpt>
      <trkpt lat="43.61386" lon="6.35395">
        <ele>643.26</ele>
        <time>2016-09-26T12:20:15Z</time>
      </trkpt>
      <trkpt lat="43.61385" lon="6.35417">
        <ele>643.26</ele>
        <time>2016-09-26T12:20:30Z</time>
      </trkpt>
      <trkpt lat="43.61381" lon="6.35428">
        <ele>643.26</ele>
        <time>2016-09-26T12:20:41Z</time>
      </trkpt>
      <trkpt lat="43.61377" lon="6.35429">
        <ele>643.74</ele>
        <time>2016-09-26T12:20:45Z</time>
      </trkpt>
      <trkpt lat="43.61365" lon="6.35422">
        <ele>643.26</ele>
        <time>2016-09-26T12:20:55Z</time>
      </trkpt>
      <trkpt lat="43.6136" lon="6.35424">
        <ele>643.74</ele>
        <time>2016-09-26T12:20:59Z</time>
      </trkpt>
      <trkpt lat="43.61354" lon="6.35428">
        <ele>643.26</ele>
        <time>2016-09-26T12:21:04Z</time>
      </trkpt>
      <trkpt lat="43.61347" lon="6.35439">
        <ele>643.74</ele>
        <time>2016-09-26T12:21:12Z</time>
      </trkpt>
      <trkpt lat="43.61345" lon="6.35442">
        <ele>643.26</ele>
        <time>2016-09-26T12:21:15Z</time>
      </trkpt>
      <trkpt lat="43.61341" lon="6.35442">
        <ele>643.26</ele>
        <time>2016-09-26T12:21:19Z</time>
      </trkpt>
      <trkpt lat="43.61338" lon="6.35441">
        <ele>643.26</ele>
        <time>2016-09-26T12:21:22Z</time>
      </trkpt>
      <trkpt lat="43.61331" lon="6.35439">
        <ele>643.26</ele>
        <time>2016-09-26T12:21:28Z</time>
      </trkpt>
      <trkpt lat="43.61321" lon="6.35442">
        <ele>643.26</ele>
        <time>2016-09-26T12:21:37Z</time>
      </trkpt>
      <trkpt lat="43.61306" lon="6.35447">
        <ele>642.78</ele>
        <time>2016-09-26T12:21:50Z</time>
      </trkpt>
      <trkpt lat="43.61303" lon="6.35461">
        <ele>642.78</ele>
        <time>2016-09-26T12:21:58Z</time>
      </trkpt>
      <trkpt lat="43.61295" lon="6.35479">
        <ele>643.26</ele>
        <time>2016-09-26T12:22:13Z</time>
      </trkpt>
      <trkpt lat="43.61295" lon="6.3548">
        <ele>644.22</ele>
        <time>2016-09-26T12:22:14Z</time>
      </trkpt>
      <trkpt lat="43.61288" lon="6.35483">
        <ele>642.78</ele>
        <time>2016-09-26T12:22:19Z</time>
      </trkpt>
      <trkpt lat="43.61279" lon="6.3549">
        <ele>643.26</ele>
        <time>2016-09-26T12:22:29Z</time>
      </trkpt>
      <trkpt lat="43.61274" lon="6.35498">
        <ele>643.74</ele>
        <time>2016-09-26T12:22:40Z</time>
      </trkpt>
      <trkpt lat="43.61272" lon="6.35499">
        <ele>643.74</ele>
        <time>2016-09-26T12:22:42Z</time>
      </trkpt>
      <trkpt lat="43.61267" lon="6.35508">
        <ele>644.22</ele>
        <time>2016-09-26T12:22:56Z</time>
      </trkpt>
      <trkpt lat="43.61262" lon="6.35508">
        <ele>644.22</ele>
        <time>2016-09-26T12:23:01Z</time>
      </trkpt>
      <trkpt lat="43.61249" lon="6.3551">
        <ele>643.26</ele>
        <time>2016-09-26T12:23:16Z</time>
      </trkpt>
      <trkpt lat="43.61247" lon="6.35509">
        <ele>647.1</ele>
        <time>2016-09-26T12:23:17Z</time>
      </trkpt>
      <trkpt lat="43.61246" lon="6.35509">
        <ele>643.26</ele>
        <time>2016-09-26T12:23:18Z</time>
      </trkpt>
      <trkpt lat="43.61245" lon="6.35509">
        <ele>641.34</ele>
        <time>2016-09-26T12:23:19Z</time>
      </trkpt>
      <trkpt lat="43.61243" lon="6.3551">
        <ele>644.7</ele>
        <time>2016-09-26T12:23:21Z</time>
      </trkpt>
      <trkpt lat="43.61239" lon="6.3551">
        <ele>644.22</ele>
        <time>2016-09-26T12:23:25Z</time>
      </trkpt>
      <trkpt lat="43.61238" lon="6.35515">
        <ele>644.7</ele>
        <time>2016-09-26T12:23:28Z</time>
      </trkpt>
      <trkpt lat="43.61247" lon="6.3554">
        <ele>644.22</ele>
        <time>2016-09-26T12:23:44Z</time>
      </trkpt>
      <trkpt lat="43.6125" lon="6.35546">
        <ele>644.7</ele>
        <time>2016-09-26T12:23:49Z</time>
      </trkpt>
      <trkpt lat="43.61255" lon="6.35556">
        <ele>644.7</ele>
        <time>2016-09-26T12:24:01Z</time>
      </trkpt>
      <trkpt lat="43.61262" lon="6.35564">
        <ele>644.22</ele>
        <time>2016-09-26T12:24:11Z</time>
      </trkpt>
      <trkpt lat="43.61267" lon="6.35574">
        <ele>644.22</ele>
        <time>2016-09-26T12:24:27Z</time>
      </trkpt>
      <trkpt lat="43.61268" lon="6.35579">
        <ele>644.22</ele>
        <time>2016-09-26T12:24:30Z</time>
      </trkpt>
      <trkpt lat="43.61269" lon="6.35583">
        <ele>644.7</ele>
        <time>2016-09-26T12:24:33Z</time>
      </trkpt>
      <trkpt lat="43.61281" lon="6.35603">
        <ele>644.22</ele>
        <time>2016-09-26T12:24:50Z</time>
      </trkpt>
      <trkpt lat="43.61291" lon="6.35614">
        <ele>644.22</ele>
        <time>2016-09-26T12:25:00Z</time>
      </trkpt>
      <trkpt lat="43.61296" lon="6.35618">
        <ele>644.22</ele>
        <time>2016-09-26T12:25:04Z</time>
      </trkpt>
      <trkpt lat="43.61303" lon="6.35623">
        <ele>643.74</ele>
        <time>2016-09-26T12:25:11Z</time>
      </trkpt>
      <trkpt lat="43.61319" lon="6.35635">
        <ele>643.74</ele>
        <time>2016-09-26T12:25:25Z</time>
      </trkpt>
      <trkpt lat="43.61331" lon="6.35647">
        <ele>643.26</ele>
        <time>2016-09-26T12:25:37Z</time>
      </trkpt>
      <trkpt lat="43.61333" lon="6.35655">
        <ele>642.78</ele>
        <time>2016-09-26T12:25:42Z</time>
      </trkpt>
      <trkpt lat="43.61338" lon="6.35683">
        <ele>642.3</ele>
        <time>2016-09-26T12:25:58Z</time>
      </trkpt>
      <trkpt lat="43.61343" lon="6.35699">
        <ele>642.3</ele>
        <time>2016-09-26T12:26:09Z</time>
      </trkpt>
      <trkpt lat="43.61349" lon="6.35723">
        <ele>641.82</ele>
        <time>2016-09-26T12:26:23Z</time>
      </trkpt>
      <trkpt lat="43.61352" lon="6.35729">
        <ele>641.34</ele>
        <time>2016-09-26T12:26:28Z</time>
      </trkpt>
      <trkpt lat="43.61354" lon="6.35731">
        <ele>641.34</ele>
        <time>2016-09-26T12:26:30Z</time>
      </trkpt>
      <trkpt lat="43.6136" lon="6.35743">
        <ele>641.34</ele>
        <time>2016-09-26T12:26:37Z</time>
      </trkpt>
      <trkpt lat="43.61361" lon="6.35748">
        <ele>641.34</ele>
        <time>2016-09-26T12:26:39Z</time>
      </trkpt>
      <trkpt lat="43.61363" lon="6.35753">
        <ele>641.34</ele>
        <time>2016-09-26T12:26:42Z</time>
      </trkpt>
      <trkpt lat="43.61366" lon="6.35761">
        <ele>641.34</ele>
        <time>2016-09-26T12:26:48Z</time>
      </trkpt>
      <trkpt lat="43.61368" lon="6.35764">
        <ele>641.34</ele>
        <time>2016-09-26T12:26:50Z</time>
      </trkpt>
      <trkpt lat="43.61372" lon="6.35781">
        <ele>640.86</ele>
        <time>2016-09-26T12:26:59Z</time>
      </trkpt>
      <trkpt lat="43.61373" lon="6.35791">
        <ele>640.86</ele>
        <time>2016-09-26T12:27:04Z</time>
      </trkpt>
      <trkpt lat="43.61378" lon="6.35824">
        <ele>640.38</ele>
        <time>2016-09-26T12:27:20Z</time>
      </trkpt>
      <trkpt lat="43.61378" lon="6.35837">
        <ele>640.38</ele>
        <time>2016-09-26T12:27:27Z</time>
      </trkpt>
      <trkpt lat="43.61374" lon="6.35863">
        <ele>639.89</ele>
        <time>2016-09-26T12:27:41Z</time>
      </trkpt>
      <trkpt lat="43.61373" lon="6.35864">
        <ele>639.89</ele>
        <time>2016-09-26T12:27:42Z</time>
      </trkpt>
      <trkpt lat="43.61366" lon="6.35886">
        <ele>638.93</ele>
        <time>2016-09-26T12:27:56Z</time>
      </trkpt>
      <trkpt lat="43.61356" lon="6.35902">
        <ele>638.45</ele>
        <time>2016-09-26T12:28:06Z</time>
      </trkpt>
      <trkpt lat="43.61354" lon="6.35909">
        <ele>638.45</ele>
        <time>2016-09-26T12:28:11Z</time>
      </trkpt>
      <trkpt lat="43.61347" lon="6.35931">
        <ele>637.97</ele>
        <time>2016-09-26T12:28:23Z</time>
      </trkpt>
      <trkpt lat="43.6134" lon="6.35957">
        <ele>637.97</ele>
        <time>2016-09-26T12:28:39Z</time>
      </trkpt>
      <trkpt lat="43.61332" lon="6.35984">
        <ele>637.49</ele>
        <time>2016-09-26T12:28:54Z</time>
      </trkpt>
      <trkpt lat="43.61325" lon="6.36002">
        <ele>637.01</ele>
        <time>2016-09-26T12:29:05Z</time>
      </trkpt>
      <trkpt lat="43.6132" lon="6.36027">
        <ele>636.05</ele>
        <time>2016-09-26T12:29:20Z</time>
      </trkpt>
      <trkpt lat="43.61321" lon="6.36043">
        <ele>636.05</ele>
        <time>2016-09-26T12:29:28Z</time>
      </trkpt>
      <trkpt lat="43.61335" lon="6.36066">
        <ele>635.09</ele>
        <time>2016-09-26T12:29:44Z</time>
      </trkpt>
      <trkpt lat="43.61338" lon="6.36069">
        <ele>635.57</ele>
        <time>2016-09-26T12:29:47Z</time>
      </trkpt>
      <trkpt lat="43.61342" lon="6.36077">
        <ele>635.09</ele>
        <time>2016-09-26T12:29:52Z</time>
      </trkpt>
      <trkpt lat="43.61343" lon="6.36084">
        <ele>635.09</ele>
        <time>2016-09-26T12:29:56Z</time>
      </trkpt>
      <trkpt lat="43.61353" lon="6.36102">
        <ele>634.13</ele>
        <time>2016-09-26T12:30:09Z</time>
      </trkpt>
      <trkpt lat="43.61354" lon="6.36105">
        <ele>634.13</ele>
        <time>2016-09-26T12:30:11Z</time>
      </trkpt>
      <trkpt lat="43.61359" lon="6.36111">
        <ele>634.13</ele>
        <time>2016-09-26T12:30:16Z</time>
      </trkpt>
      <trkpt lat="43.61363" lon="6.36118">
        <ele>634.13</ele>
        <time>2016-09-26T12:30:21Z</time>
      </trkpt>
      <trkpt lat="43.61372" lon="6.36132">
        <ele>633.65</ele>
        <time>2016-09-26T12:30:30Z</time>
      </trkpt>
      <trkpt lat="43.61374" lon="6.36139">
        <ele>633.17</ele>
        <time>2016-09-26T12:30:35Z</time>
      </trkpt>
      <trkpt lat="43.61382" lon="6.36162">
        <ele>633.17</ele>
        <time>2016-09-26T12:30:49Z</time>
      </trkpt>
      <trkpt lat="43.61382" lon="6.36168">
        <ele>632.68</ele>
        <time>2016-09-26T12:30:53Z</time>
      </trkpt>
      <trkpt lat="43.61385" lon="6.3618">
        <ele>632.68</ele>
        <time>2016-09-26T12:31:00Z</time>
      </trkpt>
      <trkpt lat="43.61393" lon="6.36208">
        <ele>632.68</ele>
        <time>2016-09-26T12:31:17Z</time>
      </trkpt>
      <trkpt lat="43.61394" lon="6.3621">
        <ele>632.68</ele>
        <time>2016-09-26T12:31:18Z</time>
      </trkpt>
      <trkpt lat="43.61396" lon="6.36213">
        <ele>632.68</ele>
        <time>2016-09-26T12:31:21Z</time>
      </trkpt>
      <trkpt lat="43.61402" lon="6.36231">
        <ele>633.17</ele>
        <time>2016-09-26T12:31:33Z</time>
      </trkpt>
      <trkpt lat="43.61406" lon="6.36244">
        <ele>633.17</ele>
        <time>2016-09-26T12:31:40Z</time>
      </trkpt>
      <trkpt lat="43.61414" lon="6.36264">
        <ele>633.17</ele>
        <time>2016-09-26T12:31:55Z</time>
      </trkpt>
      <trkpt lat="43.61415" lon="6.36269">
        <ele>633.17</ele>
        <time>2016-09-26T12:31:59Z</time>
      </trkpt>
      <trkpt lat="43.61418" lon="6.36277">
        <ele>633.17</ele>
        <time>2016-09-26T12:32:04Z</time>
      </trkpt>
      <trkpt lat="43.61422" lon="6.36296">
        <ele>633.17</ele>
        <time>2016-09-26T12:32:18Z</time>
      </trkpt>
      <trkpt lat="43.61426" lon="6.36315">
        <ele>633.17</ele>
        <time>2016-09-26T12:32:31Z</time>
      </trkpt>
      <trkpt lat="43.61429" lon="6.36324">
        <ele>633.17</ele>
        <time>2016-09-26T12:32:37Z</time>
      </trkpt>
      <trkpt lat="43.61439" lon="6.36341">
        <ele>633.17</ele>
        <time>2016-09-26T12:32:53Z</time>
      </trkpt>
      <trkpt lat="43.61447" lon="6.36349">
        <ele>633.17</ele>
        <time>2016-09-26T12:33:06Z</time>
      </trkpt>
      <trkpt lat="43.61449" lon="6.3635">
        <ele>633.17</ele>
        <time>2016-09-26T12:33:18Z</time>
      </trkpt>
      <trkpt lat="43.61449" lon="6.36349">
        <ele>633.17</ele>
        <time>2016-09-26T12:33:43Z</time>
      </trkpt>
      <trkpt lat="43.61449" lon="6.36348">
        <ele>633.17</ele>
        <time>2016-09-26T12:34:09Z</time>
      </trkpt>
      <trkpt lat="43.61449" lon="6.36349">
        <ele>632.68</ele>
        <time>2016-09-26T12:34:34Z</time>
      </trkpt>
      <trkpt lat="43.61451" lon="6.36347">
        <ele>631.24</ele>
        <time>2016-09-26T12:34:53Z</time>
      </trkpt>
      <trkpt lat="43.61451" lon="6.36347">
        <ele>637.49</ele>
        <time>2016-09-26T12:34:54Z</time>
      </trkpt>
      <trkpt lat="43.61451" lon="6.36347">
        <ele>630.76</ele>
        <time>2016-09-26T12:34:55Z</time>
      </trkpt>
      <trkpt lat="43.61451" lon="6.36347">
        <ele>635.57</ele>
        <time>2016-09-26T12:34:56Z</time>
      </trkpt>
      <trkpt lat="43.61451" lon="6.36347">
        <ele>630.76</ele>
        <time>2016-09-26T12:34:58Z</time>
      </trkpt>
      <trkpt lat="43.61451" lon="6.36347">
        <ele>635.09</ele>
        <time>2016-09-26T12:34:59Z</time>
      </trkpt>
      <trkpt lat="43.61461" lon="6.36351">
        <ele>633.17</ele>
        <time>2016-09-26T12:35:12Z</time>
      </trkpt>
      <trkpt lat="43.61475" lon="6.36359">
        <ele>633.65</ele>
        <time>2016-09-26T12:35:27Z</time>
      </trkpt>
      <trkpt lat="43.61476" lon="6.36359">
        <ele>633.65</ele>
        <time>2016-09-26T12:35:28Z</time>
      </trkpt>
      <trkpt lat="43.61479" lon="6.36361">
        <ele>633.65</ele>
        <time>2016-09-26T12:35:31Z</time>
      </trkpt>
      <trkpt lat="43.61483" lon="6.36359">
        <ele>634.13</ele>
        <time>2016-09-26T12:35:38Z</time>
      </trkpt>
      <trkpt lat="43.61486" lon="6.36359">
        <ele>633.65</ele>
        <time>2016-09-26T12:35:40Z</time>
      </trkpt>
      <trkpt lat="43.61495" lon="6.36368">
        <ele>634.13</ele>
        <time>2016-09-26T12:35:48Z</time>
      </trkpt>
      <trkpt lat="43.61499" lon="6.36377">
        <ele>634.61</ele>
        <time>2016-09-26T12:35:53Z</time>
      </trkpt>
      <trkpt lat="43.61502" lon="6.36385">
        <ele>634.61</ele>
        <time>2016-09-26T12:35:57Z</time>
      </trkpt>
      <trkpt lat="43.61508" lon="6.36394">
        <ele>634.61</ele>
        <time>2016-09-26T12:36:02Z</time>
      </trkpt>
      <trkpt lat="43.61511" lon="6.36397">
        <ele>634.61</ele>
        <time>2016-09-26T12:36:05Z</time>
      </trkpt>
      <trkpt lat="43.61514" lon="6.36404">
        <ele>634.61</ele>
        <time>2016-09-26T12:36:09Z</time>
      </trkpt>
      <trkpt lat="43.61527" lon="6.36413">
        <ele>635.09</ele>
        <time>2016-09-26T12:36:22Z</time>
      </trkpt>
      <trkpt lat="43.6153" lon="6.36415">
        <ele>635.09</ele>
        <time>2016-09-26T12:36:25Z</time>
      </trkpt>
      <trkpt lat="43.6155" lon="6.36423">
        <ele>635.09</ele>
        <time>2016-09-26T12:36:39Z</time>
      </trkpt>
      <trkpt lat="43.61567" lon="6.36429">
        <ele>635.09</ele>
        <time>2016-09-26T12:36:54Z</time>
      </trkpt>
      <trkpt lat="43.61573" lon="6.36431">
        <ele>634.61</ele>
        <time>2016-09-26T12:37:00Z</time>
      </trkpt>
      <trkpt lat="43.6158" lon="6.36437">
        <ele>635.09</ele>
        <time>2016-09-26T12:37:06Z</time>
      </trkpt>
      <trkpt lat="43.61593" lon="6.36453">
        <ele>635.09</ele>
        <time>2016-09-26T12:37:20Z</time>
      </trkpt>
      <trkpt lat="43.61595" lon="6.36455">
        <ele>634.61</ele>
        <time>2016-09-26T12:37:22Z</time>
      </trkpt>
      <trkpt lat="43.61598" lon="6.36459">
        <ele>634.61</ele>
        <time>2016-09-26T12:37:26Z</time>
      </trkpt>
      <trkpt lat="43.61612" lon="6.36481">
        <ele>635.09</ele>
        <time>2016-09-26T12:37:43Z</time>
      </trkpt>
      <trkpt lat="43.61623" lon="6.36499">
        <ele>635.09</ele>
        <time>2016-09-26T12:37:56Z</time>
      </trkpt>
      <trkpt lat="43.61627" lon="6.36504">
        <ele>635.09</ele>
        <time>2016-09-26T12:38:00Z</time>
      </trkpt>
      <trkpt lat="43.61629" lon="6.36508">
        <ele>635.09</ele>
        <time>2016-09-26T12:38:03Z</time>
      </trkpt>
      <trkpt lat="43.61637" lon="6.36519">
        <ele>635.09</ele>
        <time>2016-09-26T12:38:12Z</time>
      </trkpt>
      <trkpt lat="43.61647" lon="6.36528">
        <ele>635.09</ele>
        <time>2016-09-26T12:38:21Z</time>
      </trkpt>
      <trkpt lat="43.61658" lon="6.36537">
        <ele>635.09</ele>
        <time>2016-09-26T12:38:31Z</time>
      </trkpt>
      <trkpt lat="43.61668" lon="6.36556">
        <ele>635.09</ele>
        <time>2016-09-26T12:38:45Z</time>
      </trkpt>
      <trkpt lat="43.61674" lon="6.36564">
        <ele>635.09</ele>
        <time>2016-09-26T12:38:51Z</time>
      </trkpt>
      <trkpt lat="43.61685" lon="6.36572">
        <ele>635.09</ele>
        <time>2016-09-26T12:39:01Z</time>
      </trkpt>
      <trkpt lat="43.61691" lon="6.36576">
        <ele>635.57</ele>
        <time>2016-09-26T12:39:06Z</time>
      </trkpt>
      <trkpt lat="43.61694" lon="6.36579">
        <ele>635.57</ele>
        <time>2016-09-26T12:39:09Z</time>
      </trkpt>
      <trkpt lat="43.61706" lon="6.36601">
        <ele>635.57</ele>
        <time>2016-09-26T12:39:25Z</time>
      </trkpt>
      <trkpt lat="43.61708" lon="6.36603">
        <ele>635.57</ele>
        <time>2016-09-26T12:39:27Z</time>
      </trkpt>
      <trkpt lat="43.61715" lon="6.36612">
        <ele>635.57</ele>
        <time>2016-09-26T12:39:34Z</time>
      </trkpt>
      <trkpt lat="43.61722" lon="6.36624">
        <ele>635.57</ele>
        <time>2016-09-26T12:39:43Z</time>
      </trkpt>
      <trkpt lat="43.61736" lon="6.36639">
        <ele>635.57</ele>
        <time>2016-09-26T12:39:56Z</time>
      </trkpt>
      <trkpt lat="43.61752" lon="6.36651">
        <ele>635.09</ele>
        <time>2016-09-26T12:40:12Z</time>
      </trkpt>
      <trkpt lat="43.61759" lon="6.36658">
        <ele>635.57</ele>
        <time>2016-09-26T12:40:19Z</time>
      </trkpt>
      <trkpt lat="43.61773" lon="6.36671">
        <ele>635.09</ele>
        <time>2016-09-26T12:40:31Z</time>
      </trkpt>
      <trkpt lat="43.61774" lon="6.36673">
        <ele>635.09</ele>
        <time>2016-09-26T12:40:33Z</time>
      </trkpt>
      <trkpt lat="43.61787" lon="6.36689">
        <ele>635.09</ele>
        <time>2016-09-26T12:40:45Z</time>
      </trkpt>
      <trkpt lat="43.61793" lon="6.36694">
        <ele>635.57</ele>
        <time>2016-09-26T12:40:52Z</time>
      </trkpt>
      <trkpt lat="43.61802" lon="6.36715">
        <ele>634.61</ele>
        <time>2016-09-26T12:41:06Z</time>
      </trkpt>
      <trkpt lat="43.61804" lon="6.36731">
        <ele>634.61</ele>
        <time>2016-09-26T12:41:20Z</time>
      </trkpt>
      <trkpt lat="43.61802" lon="6.36731">
        <ele>634.61</ele>
        <time>2016-09-26T12:41:36Z</time>
      </trkpt>
      <trkpt lat="43.61798" lon="6.3673">
        <ele>634.61</ele>
        <time>2016-09-26T12:41:52Z</time>
      </trkpt>
      <trkpt lat="43.61798" lon="6.36731">
        <ele>634.61</ele>
        <time>2016-09-26T12:42:14Z</time>
      </trkpt>
      <trkpt lat="43.61798" lon="6.36731">
        <ele>634.13</ele>
        <time>2016-09-26T12:42:44Z</time>
      </trkpt>
      <trkpt lat="43.61798" lon="6.36732">
        <ele>634.61</ele>
        <time>2016-09-26T12:43:11Z</time>
      </trkpt>
      <trkpt lat="43.61798" lon="6.36733">
        <ele>634.13</ele>
        <time>2016-09-26T12:43:48Z</time>
      </trkpt>
      <trkpt lat="43.61795" lon="6.36734">
        <ele>634.13</ele>
        <time>2016-09-26T12:44:25Z</time>
      </trkpt>
      <trkpt lat="43.61791" lon="6.36737">
        <ele>634.13</ele>
        <time>2016-09-26T12:44:30Z</time>
      </trkpt>
      <trkpt lat="43.61785" lon="6.3674">
        <ele>634.13</ele>
        <time>2016-09-26T12:44:36Z</time>
      </trkpt>
      <trkpt lat="43.61777" lon="6.36746">
        <ele>634.13</ele>
        <time>2016-09-26T12:44:44Z</time>
      </trkpt>
      <trkpt lat="43.61764" lon="6.36748">
        <ele>634.13</ele>
        <time>2016-09-26T12:44:57Z</time>
      </trkpt>
      <trkpt lat="43.61762" lon="6.36749">
        <ele>634.13</ele>
        <time>2016-09-26T12:44:59Z</time>
      </trkpt>
      <trkpt lat="43.61758" lon="6.36748">
        <ele>634.13</ele>
        <time>2016-09-26T12:45:03Z</time>
      </trkpt>
      <trkpt lat="43.61745" lon="6.36747">
        <ele>634.13</ele>
        <time>2016-09-26T12:45:16Z</time>
      </trkpt>
      <trkpt lat="43.61737" lon="6.36746">
        <ele>634.61</ele>
        <time>2016-09-26T12:45:23Z</time>
      </trkpt>
      <trkpt lat="43.6173" lon="6.36747">
        <ele>634.13</ele>
        <time>2016-09-26T12:45:32Z</time>
      </trkpt>
      <trkpt lat="43.61719" lon="6.36748">
        <ele>633.65</ele>
        <time>2016-09-26T12:45:40Z</time>
      </trkpt>
      <trkpt lat="43.61706" lon="6.36748">
        <ele>633.65</ele>
        <time>2016-09-26T12:45:54Z</time>
      </trkpt>
      <trkpt lat="43.61697" lon="6.36747">
        <ele>633.65</ele>
        <time>2016-09-26T12:46:05Z</time>
      </trkpt>
      <trkpt lat="43.6168" lon="6.36749">
        <ele>633.65</ele>
        <time>2016-09-26T12:46:20Z</time>
      </trkpt>
      <trkpt lat="43.61673" lon="6.3675">
        <ele>633.65</ele>
        <time>2016-09-26T12:46:26Z</time>
      </trkpt>
      <trkpt lat="43.61667" lon="6.3675">
        <ele>633.65</ele>
        <time>2016-09-26T12:46:30Z</time>
      </trkpt>
      <trkpt lat="43.61664" lon="6.36751">
        <ele>633.65</ele>
        <time>2016-09-26T12:46:33Z</time>
      </trkpt>
      <trkpt lat="43.61651" lon="6.3675">
        <ele>633.17</ele>
        <time>2016-09-26T12:46:44Z</time>
      </trkpt>
      <trkpt lat="43.61634" lon="6.36749">
        <ele>633.17</ele>
        <time>2016-09-26T12:46:59Z</time>
      </trkpt>
      <trkpt lat="43.6162" lon="6.36753">
        <ele>632.68</ele>
        <time>2016-09-26T12:47:12Z</time>
      </trkpt>
      <trkpt lat="43.61611" lon="6.36755">
        <ele>632.2</ele>
        <time>2016-09-26T12:47:20Z</time>
      </trkpt>
      <trkpt lat="43.61608" lon="6.36755">
        <ele>632.2</ele>
        <time>2016-09-26T12:47:22Z</time>
      </trkpt>
      <trkpt lat="43.61587" lon="6.36753">
        <ele>632.2</ele>
        <time>2016-09-26T12:47:38Z</time>
      </trkpt>
      <trkpt lat="43.61578" lon="6.36751">
        <ele>631.72</ele>
        <time>2016-09-26T12:47:46Z</time>
      </trkpt>
      <trkpt lat="43.61562" lon="6.3675">
        <ele>631.24</ele>
        <time>2016-09-26T12:48:02Z</time>
      </trkpt>
      <trkpt lat="43.61555" lon="6.36746">
        <ele>630.76</ele>
        <time>2016-09-26T12:48:09Z</time>
      </trkpt>
      <trkpt lat="43.61537" lon="6.36732">
        <ele>629.8</ele>
        <time>2016-09-26T12:48:26Z</time>
      </trkpt>
      <trkpt lat="43.61525" lon="6.36727">
        <ele>629.32</ele>
        <time>2016-09-26T12:48:39Z</time>
      </trkpt>
      <trkpt lat="43.61523" lon="6.36726">
        <ele>629.32</ele>
        <time>2016-09-26T12:48:47Z</time>
      </trkpt>
      <trkpt lat="43.61515" lon="6.36724">
        <ele>628.84</ele>
        <time>2016-09-26T12:48:56Z</time>
      </trkpt>
      <trkpt lat="43.61508" lon="6.36725">
        <ele>628.36</ele>
        <time>2016-09-26T12:49:01Z</time>
      </trkpt>
      <trkpt lat="43.61495" lon="6.36722">
        <ele>627.88</ele>
        <time>2016-09-26T12:49:15Z</time>
      </trkpt>
      <trkpt lat="43.61489" lon="6.36719">
        <ele>627.4</ele>
        <time>2016-09-26T12:49:20Z</time>
      </trkpt>
      <trkpt lat="43.61477" lon="6.36711">
        <ele>626.44</ele>
        <time>2016-09-26T12:49:35Z</time>
      </trkpt>
      <trkpt lat="43.61476" lon="6.3671">
        <ele>625.96</ele>
        <time>2016-09-26T12:49:36Z</time>
      </trkpt>
      <trkpt lat="43.61462" lon="6.36701">
        <ele>624.51</ele>
        <time>2016-09-26T12:49:50Z</time>
      </trkpt>
      <trkpt lat="43.61449" lon="6.36695">
        <ele>622.59</ele>
        <time>2016-09-26T12:50:05Z</time>
      </trkpt>
      <trkpt lat="43.61447" lon="6.36697">
        <ele>622.11</ele>
        <time>2016-09-26T12:50:07Z</time>
      </trkpt>
      <trkpt lat="43.61441" lon="6.36699">
        <ele>621.63</ele>
        <time>2016-09-26T12:50:11Z</time>
      </trkpt>
      <trkpt lat="43.61428" lon="6.36711">
        <ele>619.23</ele>
        <time>2016-09-26T12:50:27Z</time>
      </trkpt>
      <trkpt lat="43.61423" lon="6.36708">
        <ele>617.78</ele>
        <time>2016-09-26T12:50:35Z</time>
      </trkpt>
      <trkpt lat="43.61419" lon="6.36698">
        <ele>616.34</ele>
        <time>2016-09-26T12:50:44Z</time>
      </trkpt>
      <trkpt lat="43.61409" lon="6.36681">
        <ele>614.9</ele>
        <time>2016-09-26T12:50:58Z</time>
      </trkpt>
      <trkpt lat="43.61405" lon="6.36679">
        <ele>615.38</ele>
        <time>2016-09-26T12:51:02Z</time>
      </trkpt>
      <trkpt lat="43.6139" lon="6.36685">
        <ele>615.38</ele>
        <time>2016-09-26T12:51:13Z</time>
      </trkpt>
      <trkpt lat="43.6138" lon="6.36678">
        <ele>615.38</ele>
        <time>2016-09-26T12:51:22Z</time>
      </trkpt>
      <trkpt lat="43.61365" lon="6.36669">
        <ele>612.98</ele>
        <time>2016-09-26T12:51:34Z</time>
      </trkpt>
      <trkpt lat="43.61353" lon="6.36655">
        <ele>610.57</ele>
        <time>2016-09-26T12:51:47Z</time>
      </trkpt>
      <trkpt lat="43.61342" lon="6.36641">
        <ele>607.21</ele>
        <time>2016-09-26T12:52:01Z</time>
      </trkpt>
      <trkpt lat="43.61341" lon="6.36641">
        <ele>606.73</ele>
        <time>2016-09-26T12:52:02Z</time>
      </trkpt>
      <trkpt lat="43.61326" lon="6.3663">
        <ele>604.81</ele>
        <time>2016-09-26T12:52:18Z</time>
      </trkpt>
      <trkpt lat="43.61314" lon="6.36632">
        <ele>602.88</ele>
        <time>2016-09-26T12:52:31Z</time>
      </trkpt>
      <trkpt lat="43.61306" lon="6.36635">
        <ele>601.92</ele>
        <time>2016-09-26T12:52:39Z</time>
      </trkpt>
      <trkpt lat="43.61301" lon="6.36654">
        <ele>600</ele>
        <time>2016-09-26T12:52:55Z</time>
      </trkpt>
      <trkpt lat="43.61302" lon="6.36662">
        <ele>599.04</ele>
        <time>2016-09-26T12:53:02Z</time>
      </trkpt>
      <trkpt lat="43.61302" lon="6.3667">
        <ele>598.56</ele>
        <time>2016-09-26T12:53:07Z</time>
      </trkpt>
      <trkpt lat="43.61303" lon="6.36675">
        <ele>598.56</ele>
        <time>2016-09-26T12:53:10Z</time>
      </trkpt>
      <trkpt lat="43.613" lon="6.36688">
        <ele>598.08</ele>
        <time>2016-09-26T12:53:18Z</time>
      </trkpt>
      <trkpt lat="43.61294" lon="6.36695">
        <ele>597.12</ele>
        <time>2016-09-26T12:53:27Z</time>
      </trkpt>
      <trkpt lat="43.61285" lon="6.36689">
        <ele>595.19</ele>
        <time>2016-09-26T12:53:40Z</time>
      </trkpt>
      <trkpt lat="43.61273" lon="6.36689">
        <ele>593.27</ele>
        <time>2016-09-26T12:53:53Z</time>
      </trkpt>
      <trkpt lat="43.61263" lon="6.36701">
        <ele>592.79</ele>
        <time>2016-09-26T12:54:06Z</time>
      </trkpt>
      <trkpt lat="43.6126" lon="6.36704">
        <ele>592.31</ele>
        <time>2016-09-26T12:54:11Z</time>
      </trkpt>
      <trkpt lat="43.61253" lon="6.3671">
        <ele>590.87</ele>
        <time>2016-09-26T12:54:22Z</time>
      </trkpt>
      <trkpt lat="43.61248" lon="6.36713">
        <ele>590.39</ele>
        <time>2016-09-26T12:54:28Z</time>
      </trkpt>
      <trkpt lat="43.61238" lon="6.36715">
        <ele>589.43</ele>
        <time>2016-09-26T12:54:39Z</time>
      </trkpt>
      <trkpt lat="43.61232" lon="6.36717">
        <ele>588.46</ele>
        <time>2016-09-26T12:54:45Z</time>
      </trkpt>
      <trkpt lat="43.61219" lon="6.3672">
        <ele>587.5</ele>
        <time>2016-09-26T12:54:56Z</time>
      </trkpt>
      <trkpt lat="43.61207" lon="6.36724">
        <ele>586.54</ele>
        <time>2016-09-26T12:55:07Z</time>
      </trkpt>
      <trkpt lat="43.6119" lon="6.36735">
        <ele>585.1</ele>
        <time>2016-09-26T12:55:22Z</time>
      </trkpt>
      <trkpt lat="43.61176" lon="6.36751">
        <ele>584.14</ele>
        <time>2016-09-26T12:55:37Z</time>
      </trkpt>
      <trkpt lat="43.61172" lon="6.36756">
        <ele>583.66</ele>
        <time>2016-09-26T12:55:42Z</time>
      </trkpt>
      <trkpt lat="43.61163" lon="6.36779">
        <ele>582.7</ele>
        <time>2016-09-26T12:55:58Z</time>
      </trkpt>
      <trkpt lat="43.61161" lon="6.36787">
        <ele>582.22</ele>
        <time>2016-09-26T12:56:03Z</time>
      </trkpt>
      <trkpt lat="43.61158" lon="6.36793">
        <ele>582.22</ele>
        <time>2016-09-26T12:56:07Z</time>
      </trkpt>
      <trkpt lat="43.61154" lon="6.3682">
        <ele>581.25</ele>
        <time>2016-09-26T12:56:24Z</time>
      </trkpt>
      <trkpt lat="43.61153" lon="6.36843">
        <ele>579.33</ele>
        <time>2016-09-26T12:56:38Z</time>
      </trkpt>
      <trkpt lat="43.61153" lon="6.36852">
        <ele>578.85</ele>
        <time>2016-09-26T12:56:43Z</time>
      </trkpt>
      <trkpt lat="43.61149" lon="6.36874">
        <ele>578.85</ele>
        <time>2016-09-26T12:56:59Z</time>
      </trkpt>
      <trkpt lat="43.61149" lon="6.36878">
        <ele>578.37</ele>
        <time>2016-09-26T12:57:01Z</time>
      </trkpt>
      <trkpt lat="43.61148" lon="6.36881">
        <ele>578.37</ele>
        <time>2016-09-26T12:57:03Z</time>
      </trkpt>
      <trkpt lat="43.61146" lon="6.36889">
        <ele>577.89</ele>
        <time>2016-09-26T12:57:08Z</time>
      </trkpt>
      <trkpt lat="43.61149" lon="6.36911">
        <ele>577.89</ele>
        <time>2016-09-26T12:57:22Z</time>
      </trkpt>
      <trkpt lat="43.61148" lon="6.36912">
        <ele>577.89</ele>
        <time>2016-09-26T12:57:23Z</time>
      </trkpt>
      <trkpt lat="43.61145" lon="6.36918">
        <ele>577.89</ele>
        <time>2016-09-26T12:57:28Z</time>
      </trkpt>
      <trkpt lat="43.61135" lon="6.36933">
        <ele>577.41</ele>
        <time>2016-09-26T12:57:41Z</time>
      </trkpt>
      <trkpt lat="43.61128" lon="6.36943">
        <ele>576.45</ele>
        <time>2016-09-26T12:57:54Z</time>
      </trkpt>
      <trkpt lat="43.61121" lon="6.36954">
        <ele>575.49</ele>
        <time>2016-09-26T12:58:07Z</time>
      </trkpt>
      <trkpt lat="43.61114" lon="6.36964">
        <ele>574.53</ele>
        <time>2016-09-26T12:58:19Z</time>
      </trkpt>
      <trkpt lat="43.61105" lon="6.36973">
        <ele>574.04</ele>
        <time>2016-09-26T12:58:32Z</time>
      </trkpt>
      <trkpt lat="43.61092" lon="6.36987">
        <ele>573.56</ele>
        <time>2016-09-26T12:58:46Z</time>
      </trkpt>
      <trkpt lat="43.61087" lon="6.36989">
        <ele>574.53</ele>
        <time>2016-09-26T12:58:59Z</time>
      </trkpt>
      <trkpt lat="43.61084" lon="6.36995">
        <ele>574.53</ele>
        <time>2016-09-26T12:59:14Z</time>
      </trkpt>
      <trkpt lat="43.61083" lon="6.36995">
        <ele>574.53</ele>
        <time>2016-09-26T12:59:39Z</time>
      </trkpt>
      <trkpt lat="43.61081" lon="6.37">
        <ele>573.08</ele>
        <time>2016-09-26T13:00:03Z</time>
      </trkpt>
      <trkpt lat="43.61079" lon="6.37005">
        <ele>573.56</ele>
        <time>2016-09-26T13:00:19Z</time>
      </trkpt>
      <trkpt lat="43.61078" lon="6.37004">
        <ele>573.56</ele>
        <time>2016-09-26T13:00:45Z</time>
      </trkpt>
      <trkpt lat="43.61078" lon="6.37004">
        <ele>573.56</ele>
        <time>2016-09-26T13:01:16Z</time>
      </trkpt>
      <trkpt lat="43.61078" lon="6.37005">
        <ele>573.56</ele>
        <time>2016-09-26T13:01:43Z</time>
      </trkpt>
      <trkpt lat="43.61078" lon="6.37005">
        <ele>573.56</ele>
        <time>2016-09-26T13:02:05Z</time>
      </trkpt>
      <trkpt lat="43.61077" lon="6.37005">
        <ele>573.56</ele>
        <time>2016-09-26T13:02:37Z</time>
      </trkpt>
      <trkpt lat="43.61076" lon="6.37007">
        <ele>573.56</ele>
        <time>2016-09-26T13:03:04Z</time>
      </trkpt>
      <trkpt lat="43.61076" lon="6.37007">
        <ele>573.56</ele>
        <time>2016-09-26T13:03:34Z</time>
      </trkpt>
      <trkpt lat="43.61072" lon="6.37009">
        <ele>574.04</ele>
        <time>2016-09-26T13:03:55Z</time>
      </trkpt>
      <trkpt lat="43.61064" lon="6.37014">
        <ele>575.01</ele>
        <time>2016-09-26T13:04:05Z</time>
      </trkpt>
      <trkpt lat="43.61052" lon="6.37023">
        <ele>577.41</ele>
        <time>2016-09-26T13:04:21Z</time>
      </trkpt>
      <trkpt lat="43.61043" lon="6.3703">
        <ele>579.81</ele>
        <time>2016-09-26T13:04:36Z</time>
      </trkpt>
      <trkpt lat="43.61037" lon="6.37039">
        <ele>581.25</ele>
        <time>2016-09-26T13:04:50Z</time>
      </trkpt>
      <trkpt lat="43.61032" lon="6.37045">
        <ele>584.14</ele>
        <time>2016-09-26T13:05:04Z</time>
      </trkpt>
      <trkpt lat="43.61023" lon="6.37049">
        <ele>587.02</ele>
        <time>2016-09-26T13:05:18Z</time>
      </trkpt>
      <trkpt lat="43.61015" lon="6.37046">
        <ele>589.91</ele>
        <time>2016-09-26T13:05:31Z</time>
      </trkpt>
      <trkpt lat="43.61013" lon="6.37043">
        <ele>591.35</ele>
        <time>2016-09-26T13:05:46Z</time>
      </trkpt>
      <trkpt lat="43.61002" lon="6.37037">
        <ele>593.75</ele>
        <time>2016-09-26T13:06:02Z</time>
      </trkpt>
      <trkpt lat="43.60994" lon="6.37036">
        <ele>596.15</ele>
        <time>2016-09-26T13:06:15Z</time>
      </trkpt>
      <trkpt lat="43.60988" lon="6.37042">
        <ele>598.56</ele>
        <time>2016-09-26T13:06:28Z</time>
      </trkpt>
      <trkpt lat="43.60981" lon="6.37049">
        <ele>600.96</ele>
        <time>2016-09-26T13:06:42Z</time>
      </trkpt>
      <trkpt lat="43.60974" lon="6.37056">
        <ele>603.36</ele>
        <time>2016-09-26T13:06:56Z</time>
      </trkpt>
      <trkpt lat="43.60966" lon="6.37066">
        <ele>605.77</ele>
        <time>2016-09-26T13:07:10Z</time>
      </trkpt>
      <trkpt lat="43.60962" lon="6.37076">
        <ele>607.69</ele>
        <time>2016-09-26T13:07:23Z</time>
      </trkpt>
      <trkpt lat="43.60955" lon="6.37083">
        <ele>609.61</ele>
        <time>2016-09-26T13:07:36Z</time>
      </trkpt>
      <trkpt lat="43.60954" lon="6.37083">
        <ele>609.61</ele>
        <time>2016-09-26T13:07:37Z</time>
      </trkpt>
      <trkpt lat="43.60946" lon="6.37093">
        <ele>612.02</ele>
        <time>2016-09-26T13:07:52Z</time>
      </trkpt>
      <trkpt lat="43.6094" lon="6.371">
        <ele>614.42</ele>
        <time>2016-09-26T13:08:04Z</time>
      </trkpt>
      <trkpt lat="43.60931" lon="6.37105">
        <ele>616.34</ele>
        <time>2016-09-26T13:08:16Z</time>
      </trkpt>
      <trkpt lat="43.60928" lon="6.37111">
        <ele>617.3</ele>
        <time>2016-09-26T13:08:25Z</time>
      </trkpt>
      <trkpt lat="43.60922" lon="6.37121">
        <ele>618.75</ele>
        <time>2016-09-26T13:08:33Z</time>
      </trkpt>
      <trkpt lat="43.60913" lon="6.37129">
        <ele>619.71</ele>
        <time>2016-09-26T13:08:45Z</time>
      </trkpt>
      <trkpt lat="43.60912" lon="6.37131">
        <ele>620.19</ele>
        <time>2016-09-26T13:08:47Z</time>
      </trkpt>
      <trkpt lat="43.60903" lon="6.37144">
        <ele>621.63</ele>
        <time>2016-09-26T13:09:01Z</time>
      </trkpt>
      <trkpt lat="43.6089" lon="6.37149">
        <ele>623.55</ele>
        <time>2016-09-26T13:09:16Z</time>
      </trkpt>
      <trkpt lat="43.60886" lon="6.37151">
        <ele>623.55</ele>
        <time>2016-09-26T13:09:20Z</time>
      </trkpt>
      <trkpt lat="43.60883" lon="6.37156">
        <ele>624.03</ele>
        <time>2016-09-26T13:09:24Z</time>
      </trkpt>
      <trkpt lat="43.60876" lon="6.37162">
        <ele>624.99</ele>
        <time>2016-09-26T13:09:34Z</time>
      </trkpt>
      <trkpt lat="43.6087" lon="6.37166">
        <ele>625.47</ele>
        <time>2016-09-26T13:09:40Z</time>
      </trkpt>
      <trkpt lat="43.60863" lon="6.37175">
        <ele>625.96</ele>
        <time>2016-09-26T13:09:48Z</time>
      </trkpt>
      <trkpt lat="43.60854" lon="6.37189">
        <ele>626.44</ele>
        <time>2016-09-26T13:10:00Z</time>
      </trkpt>
      <trkpt lat="43.6085" lon="6.37193">
        <ele>626.44</ele>
        <time>2016-09-26T13:10:04Z</time>
      </trkpt>
      <trkpt lat="43.60838" lon="6.37209">
        <ele>627.4</ele>
        <time>2016-09-26T13:10:20Z</time>
      </trkpt>
      <trkpt lat="43.60834" lon="6.37216">
        <ele>627.4</ele>
        <time>2016-09-26T13:10:37Z</time>
      </trkpt>
      <trkpt lat="43.60833" lon="6.37219">
        <ele>627.4</ele>
        <time>2016-09-26T13:10:51Z</time>
      </trkpt>
      <trkpt lat="43.60834" lon="6.3722">
        <ele>627.4</ele>
        <time>2016-09-26T13:11:20Z</time>
      </trkpt>
      <trkpt lat="43.60834" lon="6.37219">
        <ele>627.4</ele>
        <time>2016-09-26T13:11:45Z</time>
      </trkpt>
      <trkpt lat="43.60834" lon="6.37219">
        <ele>627.4</ele>
        <time>2016-09-26T13:12:12Z</time>
      </trkpt>
      <trkpt lat="43.60835" lon="6.3722">
        <ele>627.88</ele>
        <time>2016-09-26T13:12:46Z</time>
      </trkpt>
      <trkpt lat="43.60835" lon="6.3722">
        <ele>627.4</ele>
        <time>2016-09-26T13:13:21Z</time>
      </trkpt>
      <trkpt lat="43.60835" lon="6.37221">
        <ele>627.4</ele>
        <time>2016-09-26T13:13:59Z</time>
      </trkpt>
      <trkpt lat="43.60833" lon="6.37223">
        <ele>626.92</ele>
        <time>2016-09-26T13:14:26Z</time>
      </trkpt>
      <trkpt lat="43.60829" lon="6.37227">
        <ele>626.92</ele>
        <time>2016-09-26T13:14:29Z</time>
      </trkpt>
      <trkpt lat="43.60812" lon="6.37248">
        <ele>627.88</ele>
        <time>2016-09-26T13:14:47Z</time>
      </trkpt>
      <trkpt lat="43.60808" lon="6.37253">
        <ele>627.88</ele>
        <time>2016-09-26T13:14:52Z</time>
      </trkpt>
      <trkpt lat="43.60803" lon="6.37272">
        <ele>627.88</ele>
        <time>2016-09-26T13:15:06Z</time>
      </trkpt>
      <trkpt lat="43.60802" lon="6.37274">
        <ele>627.88</ele>
        <time>2016-09-26T13:15:08Z</time>
      </trkpt>
      <trkpt lat="43.60801" lon="6.37276">
        <ele>627.88</ele>
        <time>2016-09-26T13:15:10Z</time>
      </trkpt>
      <trkpt lat="43.60789" lon="6.37292">
        <ele>627.4</ele>
        <time>2016-09-26T13:15:24Z</time>
      </trkpt>
      <trkpt lat="43.60779" lon="6.37309">
        <ele>626.92</ele>
        <time>2016-09-26T13:15:39Z</time>
      </trkpt>
      <trkpt lat="43.60778" lon="6.3731">
        <ele>626.92</ele>
        <time>2016-09-26T13:15:40Z</time>
      </trkpt>
      <trkpt lat="43.60763" lon="6.37334">
        <ele>626.44</ele>
        <time>2016-09-26T13:15:58Z</time>
      </trkpt>
      <trkpt lat="43.60751" lon="6.37348">
        <ele>626.44</ele>
        <time>2016-09-26T13:16:13Z</time>
      </trkpt>
      <trkpt lat="43.60736" lon="6.37364">
        <ele>626.44</ele>
        <time>2016-09-26T13:16:29Z</time>
      </trkpt>
      <trkpt lat="43.60722" lon="6.37383">
        <ele>625.47</ele>
        <time>2016-09-26T13:16:45Z</time>
      </trkpt>
      <trkpt lat="43.60714" lon="6.37405">
        <ele>624.51</ele>
        <time>2016-09-26T13:17:00Z</time>
      </trkpt>
      <trkpt lat="43.60711" lon="6.37413">
        <ele>624.51</ele>
        <time>2016-09-26T13:17:06Z</time>
      </trkpt>
      <trkpt lat="43.60704" lon="6.37437">
        <ele>624.51</ele>
        <time>2016-09-26T13:17:21Z</time>
      </trkpt>
      <trkpt lat="43.60699" lon="6.37459">
        <ele>624.51</ele>
        <time>2016-09-26T13:17:35Z</time>
      </trkpt>
      <trkpt lat="43.60698" lon="6.37465">
        <ele>624.99</ele>
        <time>2016-09-26T13:17:39Z</time>
      </trkpt>
      <trkpt lat="43.60695" lon="6.3749">
        <ele>625.47</ele>
        <time>2016-09-26T13:17:54Z</time>
      </trkpt>
      <trkpt lat="43.60693" lon="6.37492">
        <ele>625.47</ele>
        <time>2016-09-26T13:17:56Z</time>
      </trkpt>
      <trkpt lat="43.60692" lon="6.37504">
        <ele>625.47</ele>
        <time>2016-09-26T13:18:04Z</time>
      </trkpt>
      <trkpt lat="43.60689" lon="6.37524">
        <ele>625.96</ele>
        <time>2016-09-26T13:18:16Z</time>
      </trkpt>
      <trkpt lat="43.60689" lon="6.3753">
        <ele>626.92</ele>
        <time>2016-09-26T13:18:20Z</time>
      </trkpt>
      <trkpt lat="43.60691" lon="6.37554">
        <ele>625.47</ele>
        <time>2016-09-26T13:18:35Z</time>
      </trkpt>
      <trkpt lat="43.60691" lon="6.37559">
        <ele>625.47</ele>
        <time>2016-09-26T13:18:38Z</time>
      </trkpt>
      <trkpt lat="43.60691" lon="6.37577">
        <ele>624.99</ele>
        <time>2016-09-26T13:18:48Z</time>
      </trkpt>
      <trkpt lat="43.60695" lon="6.37602">
        <ele>624.51</ele>
        <time>2016-09-26T13:19:04Z</time>
      </trkpt>
      <trkpt lat="43.60697" lon="6.37624">
        <ele>623.55</ele>
        <time>2016-09-26T13:19:19Z</time>
      </trkpt>
      <trkpt lat="43.607" lon="6.37643">
        <ele>622.59</ele>
        <time>2016-09-26T13:19:31Z</time>
      </trkpt>
      <trkpt lat="43.60701" lon="6.37646">
        <ele>622.59</ele>
        <time>2016-09-26T13:19:33Z</time>
      </trkpt>
      <trkpt lat="43.60702" lon="6.37674">
        <ele>621.63</ele>
        <time>2016-09-26T13:19:50Z</time>
      </trkpt>
      <trkpt lat="43.60702" lon="6.37679">
        <ele>621.63</ele>
        <time>2016-09-26T13:19:53Z</time>
      </trkpt>
      <trkpt lat="43.60708" lon="6.37701">
        <ele>621.15</ele>
        <time>2016-09-26T13:20:08Z</time>
      </trkpt>
      <trkpt lat="43.60709" lon="6.37708">
        <ele>620.67</ele>
        <time>2016-09-26T13:20:12Z</time>
      </trkpt>
      <trkpt lat="43.6071" lon="6.37712">
        <ele>620.67</ele>
        <time>2016-09-26T13:20:15Z</time>
      </trkpt>
      <trkpt lat="43.60711" lon="6.37719">
        <ele>620.67</ele>
        <time>2016-09-26T13:20:19Z</time>
      </trkpt>
      <trkpt lat="43.60713" lon="6.37741">
        <ele>620.67</ele>
        <time>2016-09-26T13:20:32Z</time>
      </trkpt>
      <trkpt lat="43.60714" lon="6.37757">
        <ele>620.19</ele>
        <time>2016-09-26T13:20:41Z</time>
      </trkpt>
      <trkpt lat="43.60717" lon="6.37784">
        <ele>621.15</ele>
        <time>2016-09-26T13:20:58Z</time>
      </trkpt>
      <trkpt lat="43.60717" lon="6.37785">
        <ele>621.15</ele>
        <time>2016-09-26T13:20:59Z</time>
      </trkpt>
      <trkpt lat="43.6072" lon="6.3781">
        <ele>622.11</ele>
        <time>2016-09-26T13:21:15Z</time>
      </trkpt>
      <trkpt lat="43.60723" lon="6.37825">
        <ele>622.11</ele>
        <time>2016-09-26T13:21:25Z</time>
      </trkpt>
      <trkpt lat="43.60723" lon="6.37828">
        <ele>622.59</ele>
        <time>2016-09-26T13:21:27Z</time>
      </trkpt>
      <trkpt lat="43.60724" lon="6.37833">
        <ele>622.11</ele>
        <time>2016-09-26T13:21:30Z</time>
      </trkpt>
      <trkpt lat="43.60725" lon="6.37839">
        <ele>622.59</ele>
        <time>2016-09-26T13:21:34Z</time>
      </trkpt>
      <trkpt lat="43.60726" lon="6.37845">
        <ele>622.59</ele>
        <time>2016-09-26T13:21:38Z</time>
      </trkpt>
      <trkpt lat="43.60727" lon="6.37873">
        <ele>623.07</ele>
        <time>2016-09-26T13:21:55Z</time>
      </trkpt>
      <trkpt lat="43.60727" lon="6.37875">
        <ele>623.55</ele>
        <time>2016-09-26T13:21:57Z</time>
      </trkpt>
      <trkpt lat="43.60725" lon="6.37893">
        <ele>623.55</ele>
        <time>2016-09-26T13:22:09Z</time>
      </trkpt>
      <trkpt lat="43.60726" lon="6.37906">
        <ele>623.55</ele>
        <time>2016-09-26T13:22:17Z</time>
      </trkpt>
      <trkpt lat="43.60727" lon="6.37915">
        <ele>623.55</ele>
        <time>2016-09-26T13:22:23Z</time>
      </trkpt>
      <trkpt lat="43.60727" lon="6.37939">
        <ele>622.59</ele>
        <time>2016-09-26T13:22:39Z</time>
      </trkpt>
      <trkpt lat="43.60728" lon="6.37956">
        <ele>622.11</ele>
        <time>2016-09-26T13:22:52Z</time>
      </trkpt>
      <trkpt lat="43.60731" lon="6.37978">
        <ele>621.63</ele>
        <time>2016-09-26T13:23:09Z</time>
      </trkpt>
      <trkpt lat="43.60735" lon="6.37999">
        <ele>620.67</ele>
        <time>2016-09-26T13:23:24Z</time>
      </trkpt>
      <trkpt lat="43.60736" lon="6.38002">
        <ele>620.67</ele>
        <time>2016-09-26T13:23:27Z</time>
      </trkpt>
      <trkpt lat="43.60741" lon="6.38015">
        <ele>619.71</ele>
        <time>2016-09-26T13:23:37Z</time>
      </trkpt>
      <trkpt lat="43.6075" lon="6.38033">
        <ele>618.75</ele>
        <time>2016-09-26T13:23:51Z</time>
      </trkpt>
      <trkpt lat="43.60751" lon="6.38036">
        <ele>618.26</ele>
        <time>2016-09-26T13:23:54Z</time>
      </trkpt>
      <trkpt lat="43.60755" lon="6.38046">
        <ele>618.75</ele>
        <time>2016-09-26T13:24:00Z</time>
      </trkpt>
      <trkpt lat="43.60758" lon="6.38049">
        <ele>618.75</ele>
        <time>2016-09-26T13:24:03Z</time>
      </trkpt>
      <trkpt lat="43.60767" lon="6.38059">
        <ele>617.3</ele>
        <time>2016-09-26T13:24:14Z</time>
      </trkpt>
      <trkpt lat="43.60775" lon="6.38073">
        <ele>616.34</ele>
        <time>2016-09-26T13:24:27Z</time>
      </trkpt>
      <trkpt lat="43.60787" lon="6.38088">
        <ele>615.38</ele>
        <time>2016-09-26T13:24:43Z</time>
      </trkpt>
      <trkpt lat="43.60791" lon="6.38095">
        <ele>614.9</ele>
        <time>2016-09-26T13:24:49Z</time>
      </trkpt>
      <trkpt lat="43.60792" lon="6.381">
        <ele>614.42</ele>
        <time>2016-09-26T13:24:53Z</time>
      </trkpt>
      <trkpt lat="43.60795" lon="6.3812">
        <ele>612.98</ele>
        <time>2016-09-26T13:25:07Z</time>
      </trkpt>
      <trkpt lat="43.60796" lon="6.38139">
        <ele>612.02</ele>
        <time>2016-09-26T13:25:20Z</time>
      </trkpt>
      <trkpt lat="43.60796" lon="6.38141">
        <ele>612.02</ele>
        <time>2016-09-26T13:25:21Z</time>
      </trkpt>
      <trkpt lat="43.60794" lon="6.38155">
        <ele>611.06</ele>
        <time>2016-09-26T13:25:31Z</time>
      </trkpt>
      <trkpt lat="43.60794" lon="6.38158">
        <ele>611.06</ele>
        <time>2016-09-26T13:25:33Z</time>
      </trkpt>
      <trkpt lat="43.60793" lon="6.38178">
        <ele>609.61</ele>
        <time>2016-09-26T13:25:46Z</time>
      </trkpt>
      <trkpt lat="43.60792" lon="6.38198">
        <ele>609.13</ele>
        <time>2016-09-26T13:25:58Z</time>
      </trkpt>
      <trkpt lat="43.6078" lon="6.38212">
        <ele>608.17</ele>
        <time>2016-09-26T13:26:13Z</time>
      </trkpt>
      <trkpt lat="43.60778" lon="6.38212">
        <ele>607.21</ele>
        <time>2016-09-26T13:26:15Z</time>
      </trkpt>
      <trkpt lat="43.60759" lon="6.38209">
        <ele>607.21</ele>
        <time>2016-09-26T13:26:32Z</time>
      </trkpt>
      <trkpt lat="43.60744" lon="6.38199">
        <ele>606.73</ele>
        <time>2016-09-26T13:26:46Z</time>
      </trkpt>
      <trkpt lat="43.60744" lon="6.38192">
        <ele>607.21</ele>
        <time>2016-09-26T13:26:59Z</time>
      </trkpt>
      <trkpt lat="43.60743" lon="6.3819">
        <ele>607.21</ele>
        <time>2016-09-26T13:27:16Z</time>
      </trkpt>
      <trkpt lat="43.60741" lon="6.38183">
        <ele>607.21</ele>
        <time>2016-09-26T13:27:33Z</time>
      </trkpt>
      <trkpt lat="43.60741" lon="6.38183">
        <ele>607.69</ele>
        <time>2016-09-26T13:27:58Z</time>
      </trkpt>
      <trkpt lat="43.6074" lon="6.38183">
        <ele>607.21</ele>
        <time>2016-09-26T13:28:26Z</time>
      </trkpt>
      <trkpt lat="43.60738" lon="6.38182">
        <ele>607.21</ele>
        <time>2016-09-26T13:28:48Z</time>
      </trkpt>
      <trkpt lat="43.60739" lon="6.38178">
        <ele>608.17</ele>
        <time>2016-09-26T13:29:00Z</time>
      </trkpt>
      <trkpt lat="43.60738" lon="6.38178">
        <ele>608.65</ele>
        <time>2016-09-26T13:29:22Z</time>
      </trkpt>
      <trkpt lat="43.60738" lon="6.38183">
        <ele>607.69</ele>
        <time>2016-09-26T13:29:38Z</time>
      </trkpt>
      <trkpt lat="43.60741" lon="6.3819">
        <ele>606.73</ele>
        <time>2016-09-26T13:29:48Z</time>
      </trkpt>
      <trkpt lat="43.60736" lon="6.38195">
        <ele>606.73</ele>
        <time>2016-09-26T13:30:01Z</time>
      </trkpt>
      <trkpt lat="43.60736" lon="6.38195">
        <ele>606.73</ele>
        <time>2016-09-26T13:30:14Z</time>
      </trkpt>
      <trkpt lat="43.60742" lon="6.38192">
        <ele>607.21</ele>
        <time>2016-09-26T13:30:33Z</time>
      </trkpt>
      <trkpt lat="43.60744" lon="6.38192">
        <ele>607.21</ele>
        <time>2016-09-26T13:30:55Z</time>
      </trkpt>
      <trkpt lat="43.60745" lon="6.38191">
        <ele>607.21</ele>
        <time>2016-09-26T13:31:11Z</time>
      </trkpt>
      <trkpt lat="43.60746" lon="6.38192">
        <ele>607.21</ele>
        <time>2016-09-26T13:31:26Z</time>
      </trkpt>
      <trkpt lat="43.60746" lon="6.38192">
        <ele>606.73</ele>
        <time>2016-09-26T13:31:45Z</time>
      </trkpt>
      <trkpt lat="43.60745" lon="6.38192">
        <ele>607.21</ele>
        <time>2016-09-26T13:32:03Z</time>
      </trkpt>
      <trkpt lat="43.60744" lon="6.38193">
        <ele>607.21</ele>
        <time>2016-09-26T13:32:32Z</time>
      </trkpt>
      <trkpt lat="43.60744" lon="6.38192">
        <ele>606.25</ele>
        <time>2016-09-26T13:32:55Z</time>
      </trkpt>
      <trkpt lat="43.60744" lon="6.38192">
        <ele>606.73</ele>
        <time>2016-09-26T13:33:23Z</time>
      </trkpt>
      <trkpt lat="43.60744" lon="6.38192">
        <ele>606.73</ele>
        <time>2016-09-26T13:33:48Z</time>
      </trkpt>
      <trkpt lat="43.60745" lon="6.38195">
        <ele>607.21</ele>
        <time>2016-09-26T13:34:04Z</time>
      </trkpt>
      <trkpt lat="43.60745" lon="6.382">
        <ele>606.25</ele>
        <time>2016-09-26T13:34:16Z</time>
      </trkpt>
      <trkpt lat="43.60744" lon="6.38206">
        <ele>605.29</ele>
        <time>2016-09-26T13:34:34Z</time>
      </trkpt>
      <trkpt lat="43.60735" lon="6.38222">
        <ele>602.88</ele>
        <time>2016-09-26T13:34:52Z</time>
      </trkpt>
      <trkpt lat="43.60733" lon="6.38227">
        <ele>601.92</ele>
        <time>2016-09-26T13:35:09Z</time>
      </trkpt>
      <trkpt lat="43.60729" lon="6.38231">
        <ele>600</ele>
        <time>2016-09-26T13:35:27Z</time>
      </trkpt>
      <trkpt lat="43.60723" lon="6.38241">
        <ele>597.12</ele>
        <time>2016-09-26T13:35:42Z</time>
      </trkpt>
      <trkpt lat="43.60719" lon="6.38243">
        <ele>595.67</ele>
        <time>2016-09-26T13:35:55Z</time>
      </trkpt>
      <trkpt lat="43.60711" lon="6.38239">
        <ele>594.71</ele>
        <time>2016-09-26T13:36:17Z</time>
      </trkpt>
      <trkpt lat="43.60711" lon="6.38239">
        <ele>594.23</ele>
        <time>2016-09-26T13:36:39Z</time>
      </trkpt>
      <trkpt lat="43.6071" lon="6.38239">
        <ele>593.27</ele>
        <time>2016-09-26T13:36:55Z</time>
      </trkpt>
      <trkpt lat="43.60708" lon="6.38242">
        <ele>592.79</ele>
        <time>2016-09-26T13:37:03Z</time>
      </trkpt>
      <trkpt lat="43.60706" lon="6.38248">
        <ele>590.87</ele>
        <time>2016-09-26T13:37:17Z</time>
      </trkpt>
      <trkpt lat="43.60706" lon="6.38257">
        <ele>588.95</ele>
        <time>2016-09-26T13:37:30Z</time>
      </trkpt>
      <trkpt lat="43.60706" lon="6.38258">
        <ele>588.95</ele>
        <time>2016-09-26T13:37:44Z</time>
      </trkpt>
      <trkpt lat="43.60711" lon="6.3826">
        <ele>588.95</ele>
        <time>2016-09-26T13:37:59Z</time>
      </trkpt>
      <trkpt lat="43.60711" lon="6.3826">
        <ele>588.46</ele>
        <time>2016-09-26T13:38:13Z</time>
      </trkpt>
      <trkpt lat="43.60714" lon="6.38265">
        <ele>588.46</ele>
        <time>2016-09-26T13:38:33Z</time>
      </trkpt>
      <trkpt lat="43.60717" lon="6.38273">
        <ele>587.5</ele>
        <time>2016-09-26T13:38:51Z</time>
      </trkpt>
      <trkpt lat="43.60715" lon="6.38289">
        <ele>586.06</ele>
        <time>2016-09-26T13:39:07Z</time>
      </trkpt>
      <trkpt lat="43.60703" lon="6.38295">
        <ele>584.62</ele>
        <time>2016-09-26T13:39:23Z</time>
      </trkpt>
      <trkpt lat="43.60701" lon="6.38298">
        <ele>584.62</ele>
        <time>2016-09-26T13:39:38Z</time>
      </trkpt>
      <trkpt lat="43.60703" lon="6.38298">
        <ele>584.14</ele>
        <time>2016-09-26T13:39:56Z</time>
      </trkpt>
      <trkpt lat="43.60699" lon="6.38302">
        <ele>584.14</ele>
        <time>2016-09-26T13:40:12Z</time>
      </trkpt>
      <trkpt lat="43.60696" lon="6.38309">
        <ele>583.66</ele>
        <time>2016-09-26T13:40:27Z</time>
      </trkpt>
      <trkpt lat="43.60693" lon="6.38307">
        <ele>583.66</ele>
        <time>2016-09-26T13:40:49Z</time>
      </trkpt>
      <trkpt lat="43.60692" lon="6.38308">
        <ele>584.14</ele>
        <time>2016-09-26T13:41:19Z</time>
      </trkpt>
      <trkpt lat="43.60692" lon="6.38308">
        <ele>584.14</ele>
        <time>2016-09-26T13:41:43Z</time>
      </trkpt>
      <trkpt lat="43.60691" lon="6.38308">
        <ele>584.62</ele>
        <time>2016-09-26T13:42:14Z</time>
      </trkpt>
      <trkpt lat="43.60691" lon="6.38307">
        <ele>584.62</ele>
        <time>2016-09-26T13:42:34Z</time>
      </trkpt>
      <trkpt lat="43.60691" lon="6.38306">
        <ele>584.62</ele>
        <time>2016-09-26T13:43:04Z</time>
      </trkpt>
      <trkpt lat="43.60692" lon="6.38307">
        <ele>584.62</ele>
        <time>2016-09-26T13:43:27Z</time>
      </trkpt>
      <trkpt lat="43.60692" lon="6.38307">
        <ele>584.62</ele>
        <time>2016-09-26T13:43:47Z</time>
      </trkpt>
      <trkpt lat="43.60692" lon="6.38307">
        <ele>584.62</ele>
        <time>2016-09-26T13:44:08Z</time>
      </trkpt>
      <trkpt lat="43.60692" lon="6.38307">
        <ele>584.14</ele>
        <time>2016-09-26T13:44:10Z</time>
      </trkpt>
      <trkpt lat="43.6069" lon="6.38304">
        <ele>584.14</ele>
        <time>2016-09-26T13:44:13Z</time>
      </trkpt>
      <trkpt lat="43.60681" lon="6.38291">
        <ele>582.7</ele>
        <time>2016-09-26T13:44:27Z</time>
      </trkpt>
      <trkpt lat="43.60669" lon="6.38275">
        <ele>581.25</ele>
        <time>2016-09-26T13:44:40Z</time>
      </trkpt>
      <trkpt lat="43.60661" lon="6.38264">
        <ele>580.77</ele>
        <time>2016-09-26T13:44:48Z</time>
      </trkpt>
      <trkpt lat="43.60659" lon="6.38258">
        <ele>580.29</ele>
        <time>2016-09-26T13:44:51Z</time>
      </trkpt>
      <trkpt lat="43.60653" lon="6.38253">
        <ele>579.33</ele>
        <time>2016-09-26T13:44:57Z</time>
      </trkpt>
      <trkpt lat="43.60638" lon="6.3824">
        <ele>577.89</ele>
        <time>2016-09-26T13:45:13Z</time>
      </trkpt>
      <trkpt lat="43.60619" lon="6.38234">
        <ele>575.97</ele>
        <time>2016-09-26T13:45:26Z</time>
      </trkpt>
      <trkpt lat="43.60609" lon="6.3824">
        <ele>574.53</ele>
        <time>2016-09-26T13:45:37Z</time>
      </trkpt>
      <trkpt lat="43.60599" lon="6.38239">
        <ele>571.64</ele>
        <time>2016-09-26T13:45:50Z</time>
      </trkpt>
      <trkpt lat="43.60598" lon="6.38239">
        <ele>571.16</ele>
        <time>2016-09-26T13:45:51Z</time>
      </trkpt>
      <trkpt lat="43.60594" lon="6.38241">
        <ele>570.68</ele>
        <time>2016-09-26T13:45:54Z</time>
      </trkpt>
      <trkpt lat="43.60579" lon="6.38247">
        <ele>570.68</ele>
        <time>2016-09-26T13:46:09Z</time>
      </trkpt>
      <trkpt lat="43.60578" lon="6.38248">
        <ele>570.68</ele>
        <time>2016-09-26T13:46:22Z</time>
      </trkpt>
      <trkpt lat="43.60581" lon="6.38247">
        <ele>570.68</ele>
        <time>2016-09-26T13:46:34Z</time>
      </trkpt>
      <trkpt lat="43.60582" lon="6.38245">
        <ele>570.68</ele>
        <time>2016-09-26T13:46:56Z</time>
      </trkpt>
      <trkpt lat="43.60581" lon="6.38245">
        <ele>570.68</ele>
        <time>2016-09-26T13:47:18Z</time>
      </trkpt>
      <trkpt lat="43.60579" lon="6.38247">
        <ele>568.28</ele>
        <time>2016-09-26T13:47:36Z</time>
      </trkpt>
    </trkseg>
  </trk>
</gpx>